     2.11           OBSERVATION DATA    G (GPS)             RINEX VERSION / TYPE
teqc 2010Oct21 OPUS Account 20111027 18:48:13UTC            PGM / RUN BY / DATE
T 1525                                                      MARKER NAME
3028                                                        MARKER NUMBER
CSMIDDLETON NGS                                             OBSERVER / AGENCY
0220379089 TRIMBLE R7 2.28                                  REC # / TYPE / VERS
60124975 TRM41249.00 NONE                                   ANT # / TYPE
  -760145.0702 -5554991.1309  3030469.1658                  APPROX POSITION XYZ
        2.0010        0.0000        0.0000                  ANTENNA: DELTA H/E/N
     1     1                                                WAVELENGTH FACT L1/2
     5    L1    L2    C1    P1    P2                        # / TYPES OF OBSERV
    15                                                      LEAP SECONDS
  2011     8    18     0     0   30.0000000     GPS         TIME OF FIRST OBS
                                                            END OF HEADER
 11  8 18  0  0 30.0000000  0  8G17G10G09G12G05G02G04G28
 -32607168.73457 -25384019.40255  22593710.9144                   22593708.8714
 -26576973.93758 -20686912.59456  21021952.1954                   21021950.0784
 -17137058.23457 -13328228.04355  22825407.0004                   22825406.4964
 -17363333.73857 -13505645.14856  22134278.3054                   22134276.0704
 -11264875.25057  -8753041.60555  22963441.9304                   22963440.4574
 -31147414.05558 -24245230.32456  20648562.1414                   20648557.5204
 -35084428.49658 -27311984.62956  20868401.1334                   20868398.6804
 -27006709.75055 -21034142.76652  24199501.4454                   24199502.4694
 11  8 18  0  1  0.0000000  0  8G17G10G09G12G05G02G04G28
 -32587917.61347 -25369018.58245  22597374.9064                   22597372.8284
 -26636893.27048 -20733602.94146  21010550.0394                   21010547.8524
 -17099000.56247 -13298572.74645  22832648.9534                   22832648.4264
 -17469028.81647 -13588004.89546  22114164.9924                   22114162.4774
 -11392698.52347  -8852644.05545  22939117.7114                   22939116.7734
 -31191033.94948 -24279219.84446  20640261.7814                   20640256.8674
 -35044360.07048 -27280762.49246  20876025.7504                   20876023.1804
 -26930558.11345 -20974804.03142  24213993.1254                   24213994.4574
 11  8 18  0  1 30.0000000  0  8G17G10G09G12G05G02G04G28
 -32568457.64147 -25353854.99245  22601077.4384                   22601075.7074
 -26696154.34048 -20779780.36746  20999273.0084                   20999270.2274
 -17060500.25847 -13268572.54745  22839975.7584                   22839974.8244
 -17574348.34447 -13670072.00846  22094123.6564                   22094120.4384
 -11520296.44947  -8952070.91045  22914836.7274                   22914835.9494
 -31234222.47748 -24312873.22747  20632043.2584                   20632038.4734
 -35003943.00448 -27249268.69146  20883716.5004                   20883714.4184
 -26854123.99246 -20915245.18743  24228537.9144                   24228540.0784
 11  8 18  0  2  0.0000000  0  7G17G10G09G12G05G02G04
 -32548791.35947 -25338530.66045  22604820.1484                   22604817.6024
 -26754758.20348 -20825445.68046  20988121.1484                   20988118.6844
 -17021563.60947 -13238232.35545  22847384.9534                   22847384.4654
 -17679292.77748 -13751846.82846  22074153.1564                   22074150.3324
 -11647669.16047  -9051322.25045  22890598.2664                   22890597.4224
 -31276983.31648 -24346193.34446  20623905.9844                   20623900.8404
 -34963182.52048 -27217507.29746  20891473.0554                   20891471.1804
 11  8 18  0  2 30.0000000  0  7G17G10G09G12G05G02G04
 -32528919.34047 -25323046.00845  22608601.8204                   22608599.5514
 -26812704.64548 -20870598.71946  20977093.9304                   20977092.1454
 -16982195.49247 -13207555.93045  22854876.3444                   22854875.5044
 -17783860.92647 -13833328.44546  22054254.4384                   22054252.1094
 -11774815.37947  -9150397.12145  22866403.2734                   22866402.1844
 -31319319.01248 -24379182.18746  20615849.7734                   20615844.6294
 -34922082.67648 -27185481.47746  20899294.2274                   20899291.5864
 11  8 18  0  3  0.0000000  0  7G17G10G09G12G05G02G04
 -32508837.46147 -25307397.82845  22612423.2194                   22612421.5204
 -26869988.34048 -20915235.34446  20966193.4614                   20966190.9734
 -16942395.24247 -13176542.80545  22862450.4454                   22862449.1724
 -17888046.64848 -13914512.07446  22034428.8054                   22034425.6294
 -11901728.52047  -9249290.37145  22842252.3364                   22842251.4534
 -31361226.55148 -24411837.39547  20607874.9454                   20607870.1134
 -34880642.20348 -27153190.21146  20907180.0004                   20907177.8164
 11  8 18  0  3 30.0000000  0  7G17G10G09G12G05G02G04
 -32488541.62547 -25291582.91845  22616285.3594                   22616282.9774
 -26926604.12147 -20959351.50046  20955419.4694                   20955417.2664
 -16902163.05947 -13145193.11345  22870106.6174                   22870105.2544
 -17991844.05148 -13995393.11746  22014676.5944                   22014673.7274
 -12028401.80947  -9347996.73045  22818146.8984                   22818146.2934
 -31402703.25448 -24444156.88746  20599982.1804                   20599977.1524
 -34838860.08248 -27120632.73846  20915130.9924                   20915128.4064
 11  8 18  0  4  0.0000000  0  7G17G10G09G12G05G02G04
 -32468031.87947 -25275601.35545  22620187.7664                   22620185.8834
 -26982550.57448 -21002946.11346  20944773.2974                   20944770.9304
 -16861502.50447 -13113509.64145  22877844.0474                   22877843.3164
 -18095250.94548 -14075969.87546  21994998.9224                   21994996.2344
 -12154832.96147  -9446514.38345  22794087.3134                   22794086.4384
 -31443750.59048 -24476141.80946  20592171.3284                   20592166.6804
 -34796738.92648 -27087811.07446  20923146.5784                   20923144.1604
 11  8 18  0  4 30.0000000  0  7G17G10G09G12G05G02G04
 -32447311.43747 -25259455.59845  22624130.9304                   22624128.8754
 -27037830.01648 -21046020.98046  20934253.6334                   20934251.4384
 -16820420.71947 -13081497.91844  22885661.5944                   22885660.6764
 -18198268.61748 -14156243.33646  21975395.3834                   21975392.1994
 -12281022.91047  -9544844.10945  22770074.1804                   22770073.6054
 -31484373.24648 -24507795.81247  20584441.0474                   20584436.2194
 -34754285.06648 -27054730.16846  20931224.9144                   20931222.9344
 11  8 18  0  5  0.0000000  0  7G17G10G09G12G05G02G04
 -32426383.98047 -25243148.51645  22628113.4384                   22628111.3674
 -27092445.28548 -21088578.30146  20923860.8914                   20923858.8134
 -16778925.34447 -13049163.91844  22893558.2894                   22893557.1994
 -18300898.61748 -14236214.73046  21955865.3754                   21955862.1724
 -12406972.86747  -9642986.81245  22746107.1254                   22746106.4574
 -31524576.21948 -24539122.78947  20576790.6954                   20576785.3404
 -34711505.02048 -27021395.08646  20939365.9774                   20939363.5824
 11  8 18  0  5 30.0000000  0  7G17G10G09G12G05G02G04
 -32405253.41447 -25226683.17245  22632134.6804                   22632131.8714
 -27146399.46548 -21130620.50446  20913593.8204                   20913590.8914
 -16737024.46147 -13016513.92245  22901531.6094                   22901530.6764
 -18403143.23448 -14315885.82846  21936409.1484                   21936406.1644
 -12532684.25847  -9740943.62545  22722185.0394                   22722183.4694
 -31564364.84448 -24570126.89547  20569219.3054                   20569213.9494
 -34668405.99248 -26987811.44546  20947567.2894                   20947565.3674
 11  8 18  0  6  0.0000000  0  7G17G10G09G12G05G02G04
 -32383924.49247 -25210063.27345  22636193.3524                   22636191.0314
 -27199696.12548 -21172150.33646  20903451.5084                   20903449.6604
 -16694726.73447 -12983554.72344  22909581.0394                   22909579.2624
 -18505005.27048 -14395258.81646  21917024.9774                   21917022.2194
 -12658160.12147  -9838716.91045  22698307.8284                   22698306.4304
 -31603745.46948 -24600813.09047  20561725.0634                   20561720.4344
 -34624995.63748 -26953985.21146  20955828.5084                   20955826.3554
 11  8 18  0  6 30.0000000  0  7G17G10G09G12G05G02G04
 -32362405.32847 -25193295.12545  22640288.8524                   22640286.2974
 -27252342.07848 -21213173.13346  20893433.4844                   20893431.1094
 -16652044.00447 -12950295.51644  22917703.0474                   22917702.5784
 -18606490.69548 -14474338.33646  21897713.0704                   21897710.0474
 -12783405.79747  -9936310.84045  22674473.6094                   22674472.6804
 -31642727.41848 -24631188.62547  20554307.2274                   20554302.1024
 -34581284.64148 -26919924.71146  20964146.0394                   20964143.8834
 11  8 18  0  7  0.0000000  0  7G17G10G09G12G05G02G04
 -32340700.15247 -25176382.03545  22644419.0474                   22644416.7034
 -27304340.89548 -21253691.66446  20883538.4064                   20883536.4224
 -16608984.37547 -12916742.60544  22925896.7734                   22925895.6054
 -18707601.64548 -14553126.06646  21878471.9924                   21878469.1644
 -12908422.97347 -10033726.71545  22650683.9694                   22650682.7814
 -31681316.41448 -24661257.94947  20546963.6564                   20546958.6604
 -34537280.18748 -26885635.55146  20972519.9064                   20972518.2384
 11  8 18  0  7 30.0000000  0  7G17G10G09G12G05G02G04
 -32318816.48847 -25159329.86345  22648582.5784                   22648581.0554
 -27355699.20748 -21293711.10546  20873765.3204                   20873763.0274
 -16565559.44546 -12882905.04744  22934160.5004                   22934159.8014
 -18808344.00448 -14631626.59846  21859301.6724                   21859298.2504
 -13033217.06647 -10130968.75845  22626936.3204                   22626934.7854
 -31719521.65248 -24691028.24247  20539693.8364                   20539688.5664
 -34492993.09848 -26851126.14546  20980947.6564                   20980945.1414
 11  8 18  0  8  0.0000000  0  7G17G10G09G12G05G02G04
 -32296763.19547 -25142145.50445  22652779.6334                   22652777.9924
 -27406425.19548 -21333237.81646  20864112.3364                   20864110.2344
 -16521782.09846 -12848792.87944  22942490.6884                   22942490.1484
 -18908724.90648 -14709845.47746  21840199.8754                   21840196.8404
 -13157794.90247 -10228042.29345  22603229.7274                   22603228.3914
 -31757353.79748 -24720507.80947  20532494.6254                   20532489.6764
 -34448435.24648 -26816405.74646  20989426.5004                   20989424.2034
 11  8 18  0  8 30.0000000  0  8G17G10G09G12G05G02G04G30
 -32274550.93047 -25124837.30945  22657006.8284                   22657005.2384
 -27456528.12148 -21372279.03146  20854578.0784                   20854575.8954
 -16477666.63347 -12814417.23044  22950885.6564                   22950884.9264
 -19008752.46947 -14787789.02046  21821165.2504                   21821161.9774
 -13282164.11747 -10324953.26245  22579563.1804                   22579562.1294
 -31794824.31248 -24749705.60246  20525364.2344                   20525359.5554
 -34403619.80548 -26781484.63746  20997954.5944                   20997952.8204
   -192842.78156   -136627.09854  24212774.6254                   24212773.2774
 11  8 18  0  9  0.0000000  0  8G17G10G09G12G05G02G04G30
 -32252194.25447 -25107416.55145  22661260.9774                   22661258.9804
 -27506022.19148 -21410845.80946  20845159.6254                   20845157.4414
 -16433231.77047 -12779792.70744  22959341.3754                   22959340.5004
 -19108439.32847 -14865467.09446  21802195.3594                   21802192.4804
 -13406337.24247 -10421711.42245  22555933.8754                   22555932.3674
 -31831949.64848 -24778634.42246  20518299.5944                   20518294.5084
 -34358564.15648 -26746376.35946  21006528.5704                   21006526.5044
   -322993.58647   -238043.24644  24188007.1954                   24188006.3554
 11  8 18  0  9 30.0000000  0  8G17G10G09G12G05G02G04G30
 -32229710.70347 -25089896.94545  22665539.5784                   22665537.8674
 -27554923.95748 -21448951.05146  20835854.1724                   20835851.8244
 -16388499.24646 -12744936.23844  22967853.3914                   22967853.5204
 -19207801.37547 -14942892.05146  21783287.3674                   21783284.1604
 -13530329.45347 -10518328.62145  22532338.7114                   22532337.5824
 -31868748.90248 -24807309.14547  20511296.7194                   20511291.4694
 -34313289.09048 -26711097.09846  21015144.1024                   21015141.8554
   -452984.62147   -339334.91844  24163271.2114                   24163269.7934
 11  8 18  0 10  0.0000000  0  8G17G10G09G12G05G02G04G30
 -30631693.17247 -23844688.52345  22969632.4224                   22969629.8054
 -26027823.50848 -20259002.61746  21126451.5704                   21126449.6604
 -14768066.64846 -11482261.52344  23276212.1254                   23276211.0514
 -17731425.70348 -13792469.45346  22064232.1804                   22064229.3524
 -12078726.56247  -9387209.37945  22808569.8674                   22808568.5274
 -30329814.48448 -23608139.44947  20804146.2034                   20804141.4534
 -32692391.45348 -25448059.98846  21323590.8284                   21323588.3634
    992598.23447    787093.32044  24438356.1884                   24438355.1374
 11  8 18  0 10 30.0000000  0  8G17G10G09G12G05G02G04G30
 -30608994.41447 -23827001.21945  22973951.6174                   22973949.1884
 -26075576.88748 -20296213.01246  21117364.2274                   21117361.9694
 -14722788.71946 -11446980.06644  23284828.0394                   23284827.7304
 -17830170.50847 -13869413.44146  22045441.9924                   22045438.9184
 -12202387.82047  -9483568.69945  22785037.6724                   22785036.0124
 -30366004.29348 -23636339.27347  20797259.4694                   20797254.5274
 -32646724.41048 -25412475.28146  21332280.9144                   21332278.7584
    862894.73447    686025.71144  24413674.0004                   24413673.2464
 11  8 18  0 11  0.0000000  0  8G17G10G09G12G05G02G04G30
 -30586208.04347 -23809245.65645  22978287.4224                   22978285.8134
 -26122775.38748 -20332991.04346  21108382.8134                   21108380.6024
 -14677264.66446 -11411506.83244  23293490.8834                   23293490.8404
 -17928624.15647 -13946130.56246  22026706.6024                   22026703.4654
 -12325900.73847  -9579812.42645  22761533.5864                   22761532.1374
 -30401911.91048 -23664319.21547  20790426.5314                   20790421.4574
 -32600886.40248 -25376757.35546  21341003.6334                   21341001.4024
    733317.90647    585056.82444  24389015.9774                   24389015.6604
 11  8 18  0 11 30.0000000  0  8G17G10G09G12G05G02G04G30
 -30563350.29347 -23791434.46945  22982637.4144                   22982635.6994
 -26169434.50448 -20369348.77346  21099503.7974                   21099501.7114
 -14631514.68747 -11375857.53944  23302197.1724                   23302196.5474
 -18026800.54347 -14022631.62146  22008024.2424                   22008021.1024
 -12449279.11747  -9675951.31245  22738054.7894                   22738053.8204
 -30437555.10948 -23692093.11347  20783643.7974                   20783638.8204
 -32554896.10948 -25340920.77046  21349755.2974                   21349753.1334
    603853.62946    484175.62144  24364379.6804                   24364378.9884
 11  8 18  0 12  0.0000000  0  8G17G10G09G12G05G02G04G30
 -30540438.70347 -23773581.34445  22986997.1954                   22986995.3404
 -26215570.96948 -20405299.23446  21090724.2114                   21090722.0474
 -14585559.92647 -11340048.68044  23310942.1414                   23310941.6994
 -18124715.67247 -14098929.09846  21989391.6254                   21989388.7734
 -12572537.90247  -9771997.02345  22714599.9224                   22714599.0634
 -30472952.88348 -23719675.77347  20776907.8284                   20776902.7854
 -32508773.81248 -25304981.31646  21358531.8444                   21358529.5274
    474486.73446    383370.32043  24339763.6954                   24339761.6954
 11  8 18  0 12 30.0000000  0  8G17G10G09G12G05G02G04G30
 -30517494.38747 -23755702.70745  22991363.4694                   22991361.9414
 -26261204.63348 -20440857.92246  21082040.1334                   21082037.9574
 -14539424.91447 -11304099.37145  23319721.6254                   23319720.5274
 -18222388.03548 -14175037.39846  21970805.5234                   21970802.2664
 -12695695.18447  -9867963.62145  22691164.1564                   22691163.2114
 -30508127.41848 -23747084.48846  20770214.1024                   20770209.1524
 -32462543.10548 -25268957.39146  21367329.4144                   21367327.1454
    345198.46546    282626.28542  24315160.0864                   24315158.0274
 11  8 18  0 13  0.0000000  0  8G17G10G09G12G05G02G04G30
 -30494536.57847 -23737813.53545  22995732.2734                   22995730.6294
 -26306354.65247 -20476039.73046  21073448.7584                   21073446.9734
 -14493133.43447 -11268028.14845  23328531.0084                   23328529.6564
 -18319835.24648 -14250970.25446  21952261.5864                   21952258.4494
 -12818768.21547  -9963864.59845  22667743.5394                   22667742.0904
 -30543099.91848 -23774335.77047  20763559.2504                   20763554.2464
 -32416226.34847 -25232866.41046  21376143.0084                   21376141.0904
    215971.68045    181930.12942  24290568.2584                   24290566.2934
 11  8 18  0 13 30.0000000  0  8G17G10G09G12G05G02G04G30
 -30471588.12147 -23719931.66445  23000099.4534                   23000097.6724
 -26351043.67248 -20510862.32846  21064944.5234                   21064942.4774
 -14446712.45347 -11231856.00044  23337363.4844                   23337363.8134
 -18417078.44948 -14326744.12546  21933756.3524                   21933753.9184
 -12941778.05947 -10059716.33645  22644335.7194                   22644333.9304
 -30577894.84048 -23801448.68047  20756937.8834                   20756933.1334
 -32369849.53548 -25196728.64146  21384968.3054                   21384966.6134
     86785.27746     81265.50442  24265984.6414                   24265982.3594
 11  8 18  0 14  0.0000000  0  8G17G10G09G12G05G02G04G30
 -30448671.39847 -23702074.52745  23004460.7974                   23004458.5474
 -26395293.38348 -20545342.60246  21056524.2734                   21056522.1764
 -14400188.45347 -11195603.59444  23346217.4614                   23346216.8164
 -18514138.23848 -14402375.08246  21915287.1644                   21915283.6954
 -13064744.53547 -10155534.28145  22620936.0234                   22620934.7194
 -30612536.14148 -23828441.87946  20750345.7194                   20750341.0984
 -32323438.15248 -25160563.94146  21393800.1564                   21393798.1884
    -42380.89546    -19383.42642  24241405.8054                   24241401.6454
 11  8 18  0 14 30.0000000  0  8G17G10G09G12G05G02G04G30
 -30425806.36347 -23684257.66045  23008811.3674                   23008809.0944
 -26439122.50048 -20579495.14546  21048183.8914                   21048181.8204
 -14353584.87547 -11159289.18044  23355085.6724                   23355084.8554
 -18611031.97748 -14477876.63746  21896848.6094                   21896845.5314
 -13187684.74247 -10251331.76245  22597541.1414                   22597540.0354
 -30647045.03948 -23855331.91447  20743779.1094                   20743774.2154
 -32277014.30948 -25124389.51646  21402634.4844                   21402631.9304
   -171544.11346   -120030.03943  24216825.9224                   24216823.7704
 11  8 18  0 15  0.0000000  0  8G17G10G09G12G05G02G04G30
 -30403008.87147 -23666493.41445  23013149.7194                   23013148.3094
 -26482546.95348 -20613332.36346  21039920.7194                   21039918.4454
 -14306922.00047 -11122928.53544  23363965.3594                   23363964.3794
 -18707773.74648 -14553259.78146  21878439.3364                   21878436.4064
 -13310612.28547 -10347119.36345  22574148.1564                   22574147.0274
 -30681439.30148 -23882132.62147  20737234.0084                   20737228.9494
 -32230597.05548 -25088220.21546  21411467.4694                   21411465.0204
   -300718.42247   -220685.28943  24192245.6254                   24192242.6374
 11  8 18  0 15 30.0000000  0  9G17G10G09G12G05G02G04G30G25
 -30380292.41047 -23648792.30945  23017472.6954                   23017470.0004
 -26525579.56248 -20646864.24246  21031731.4384                   21031729.2814
 -14260217.12946 -11086535.19544  23372853.0554                   23372852.4454
 -18804375.41047 -14628533.75446  21860056.7734                   21860053.6054
 -13433538.26647 -10442905.74645  22550756.1564                   22550755.0434
 -30715733.76648 -23908855.56647  20730708.0864                   20730702.9384
 -32184202.41048 -25052068.55146  21420295.8524                   21420293.4414
   -429915.14847   -321358.00043  24167659.6564                   24167658.0314
   1384831.92257   1092905.72354  24743446.0864                   24743446.8874
 11  8 18  0 16  0.0000000  0  9G17G10G09G12G05G02G04G30G25
 -30357667.68747 -23631162.69945  23021777.8754                   23021776.2774
 -26568230.94147 -20680099.07046  21023615.2664                   21023613.0594
 -14213485.42646 -11050120.93744  23381745.7504                   23381745.7114
 -18900846.18048 -14703705.72346  21841698.6804                   21841695.7154
 -13556471.54747 -10538697.80945  22527362.8204                   22527361.1724
 -30749941.21548 -23935510.71147  20724198.7664                   20724193.6604
 -32137844.41847 -25015945.44546  21429117.4064                   21429115.3984
   -559143.11347   -422055.05144  24143068.9844                   24143067.2854
   1255541.21547    992159.77345  24718842.7584                   24718843.7894
 11  8 18  0 16 30.0000000  0  9G17G10G09G12G05G02G04G30G25
 -30335137.43047 -23613606.68045  23026065.8914                   23026063.7624
 -26610503.22748 -20713038.49646  21015571.1414                   21015569.1214
 -14166733.42646 -11013690.86344  23390642.3524                   23390641.7704
 -18997186.25048 -14778775.85946  21823365.6414                   21823362.3594
 -13679412.07847 -10634495.55145  22503968.4144                   22503966.3244
 -30784065.79348 -23962101.28147  20717705.0944                   20717699.6684
 -32091528.64148 -24979855.23046  21437931.3054                   21437929.0664
   -688402.71346   -522776.73844  24118472.0554                   24118469.2934
   1126121.99647    891313.68045  24694215.2734                   24694216.3484
 11  8 18  0 17  0.0000000  0  9G17G10G09G12G05G02G04G30G25
 -30312694.28947 -23596118.56245  23030335.8984                   23030333.6954
 -26652388.78548 -20745676.57046  21007600.5234                   21007598.4184
 -14119957.73047 -10977242.34044  23399543.3364                   23399543.0904
 -19093386.85548 -14853737.32446  21805059.7114                   21805056.4304
 -13802350.66047 -10730291.75445  22480573.7274                   22480572.2234
 -30818101.88748 -23988622.90647  20711227.7504                   20711222.8834
 -32045250.54348 -24943794.37546  21446737.5234                   21446735.7154
   -817684.46546   -623515.70743  24093869.6884                   24093868.0314
    996583.30547    790374.48445  24669564.6174                   24669566.1054
 11  8 18  0 17 30.0000000  0  9G17G10G09G12G05G02G04G30G25
 -30290324.34847 -23578687.47345  23034592.9144                   23034591.2344
 -26693873.00848 -20778001.91846  20999706.3914                   20999704.2074
 -14073148.23847 -10940767.44544  23408451.0314                   23408449.8634
 -19189431.91848 -14928577.58246  21786782.6644                   21786779.6914
 -13925270.52047 -10826073.37945  22457182.8674                   22457180.9734
 -30852036.71948 -24015065.62947  20704770.2584                   20704765.3754
 -31998998.42248 -24907753.76246  21455539.0554                   21455536.5164
   -946971.98846   -724259.14543  24069266.7584                   24069265.3054
    866941.16847    689354.71945  24644894.5784                   24644895.6214
 11  8 18  0 18  0.0000000  0  9G17G10G09G12G05G02G04G30G25
 -30268009.94547 -23561299.65245  23038839.5634                   23038837.5124
 -26734938.39548 -20810000.89846  20991892.0084                   20991889.5044
 -14026292.01646 -10904256.16844  23417367.3754                   23417366.8284
 -19285301.91448 -15003281.43446  21768539.1484                   21768536.0044
 -14048152.18047 -10921825.23445  22433799.1564                   22433797.2734
 -30885854.95348 -24041417.48446  20698334.9454                   20698329.7544
 -31952758.21148 -24871722.43446  21464338.0164                   21464335.6844
  -1076246.17246   -824992.19943  24044666.7734                   24044665.2234
    737214.56647    588269.12544  24620208.4694                   24620209.5944
 11  8 18  0 18 30.0000000  0  9G17G10G09G12G05G02G04G30G25
 -30245732.84447 -23543940.90645  23043078.1724                   23043076.3094
 -26775565.76648 -20841658.56646  20984160.3134                   20984158.2344
 -13979373.86746 -10867696.60944  23426295.9844                   23426294.9414
 -19380976.68047 -15077833.15646  21750332.6094                   21750329.4964
 -14170974.19147 -11017530.61345  22410426.5314                   22410425.4144
 -30919539.09848 -24067664.85546  20691924.9774                   20691919.5664
 -31906513.74248 -24835687.80546  21473138.1954                   21473136.1764
  -1205485.56246   -925698.15243  24020073.6174                   24020071.7734
    607424.43446    487134.02044  24595509.9844                   24595511.8444
 11  8 18  0 19  0.0000000  0  9G17G10G09G12G05G02G04G30G25
 -30223471.62947 -23526594.54345  23047314.9694                   23047312.5664
 -26815733.64148 -20872958.18046  20976516.9304                   20976514.6884
 -13932376.50846 -10831075.37944  23435239.0784                   23435238.8404
 -19476432.65248 -15152214.40246  21732168.3834                   21732165.1374
 -14293712.72347 -11113170.94545  22387070.2274                   22387068.3674
 -30953069.69148 -24093792.59047  20685544.6174                   20685539.7274
 -31860246.42248 -24799635.35246  21481942.5234                   21481940.1524
  -1334666.92646  -1026358.91843  23995491.7034                   23995489.4344
    477593.84846    385967.39543  24570804.0394                   24570805.5664
 11  8 18  0 19 30.0000000  0  9G17G10G09G12G05G02G04G30G25
 -30201202.71947 -23509242.18445  23051552.1484                   23051550.4344
 -26855418.41848 -20903881.35546  20968965.2034                   20968962.8014
 -13885281.00447 -10794377.63344  23444201.4224                   23444200.6024
 -19571644.86747 -15226405.71946  21714049.9774                   21714046.7234
 -14416342.87947 -11208726.83246  22363734.6254                   22363732.9884
 -30986425.23448 -24119783.91047  20679197.1954                   20679192.1644
 -31813935.94548 -24763549.28146  21490755.2424                   21490753.3014
  -1463764.72346  -1126954.56644  23970924.5234                   23970922.5984
    347748.00046    284788.88743  24546094.8364                   24546096.4104
 11  8 18  0 20  0.0000000  0  9G17G10G09G12G05G02G04G30G25
 -30178903.85547 -23491866.48045  23055796.1484                   23055793.8834
 -26894597.95348 -20934410.84846  20961509.6254                   20961507.1054
 -13838069.14847 -10757589.23444  23453185.8054                   23453185.6484
 -19666589.28147 -15300388.35546  21695982.6484                   21695979.1564
 -14538839.77347 -11304178.88345  22340424.0864                   22340422.4024
 -31019584.76648 -24145622.50447  20672886.8914                   20672881.7934
 -31767562.74648 -24727414.32446  21499579.6954                   21499577.7074
  -1592754.66046  -1227466.19544  23946379.0474                   23946377.7624
    217910.82446    183617.16842  24521386.9064                   24521388.1604
 11  8 18  0 20 30.0000000  0  9G17G10G09G12G05G02G04G30G25
 -30156552.59047 -23474449.96545  23060049.3914                   23060047.3594
 -26933248.67648 -20964528.26646  20954154.4384                   20954152.1214
 -13790721.79347 -10720695.24244  23462195.6094                   23462195.1094
 -19761240.89847 -15374142.83246  21677971.0474                   21677967.7154
 -14661177.94147 -11399507.25446  22317143.9454                   22317142.0354
 -31052526.93048 -24171291.69546  20666618.1954                   20666613.3524
 -31721106.63748 -24691214.77746  21508419.9144                   21508417.7154
  -1721611.45746  -1327874.06243  23921857.6884                   23921856.5084
     88107.27046     82471.60943  24496686.8914                   24496685.5784
 11  8 18  0 21  0.0000000  0  9G17G10G09G12G05G02G04G30G25
 -30134127.55547 -23456975.95345  23064317.0474                   23064315.0044
 -26971349.53548 -20994217.21946  20946904.1884                   20946901.9964
 -13743221.87547 -10683682.38344  23471234.2034                   23471234.4064
 -19855576.94147 -15447651.42246  21660019.2974                   21660015.8134
 -14783334.19147 -11494693.85945  22293898.3594                   22293896.5984
 -31085232.85548 -24196776.81647  20660394.8364                   20660389.8834
 -31674549.26648 -24654936.32046  21517279.6954                   21517277.3984
  -1850311.79346  -1428160.04343  23897366.8134                   23897365.8954
    -41639.50847    -18629.77743  24471996.5004                   24471995.3674
 11  8 18  0 21 30.0000000  0  9G17G10G09G12G05G02G04G30G25
 -30111606.81647 -23439427.37545  23068601.9844                   23068600.5434
 -27008878.76648 -21023460.75446  20939762.7114                   20939760.1174
 -13695551.79347 -10646536.92244  23480306.6954                   23480305.3874
 -19949573.64848 -15520895.59846  21642132.1724                   21642129.1684
 -14905283.91847 -11589719.55145  22270692.0784                   22270690.0514
 -31117681.96548 -24222061.82847  20654219.7424                   20654214.6644
 -31627871.57448 -24618564.10946  21526162.1724                   21526159.7854
  -1978831.59046  -1528305.28943  23872911.0314                   23872909.1134
   -171305.92247   -119668.46943  24447322.2974                   24447321.9614
 11  8 18  0 22  0.0000000  0  9G17G10G09G12G05G02G04G30G25
 -30088971.23047 -23421789.29745  23072909.6724                   23072907.7074
 -27045816.46948 -21052243.35246  20932733.4384                   20932731.2774
 -13647696.27047 -10609246.96944  23489412.6564                   23489412.5354
 -20043209.78547 -15593858.80146  21624313.7894                   21624310.3754
 -15027005.87947 -11684567.77046  22247528.8834                   22247527.2424
 -31149856.44948 -24247132.84047  20648096.7274                   20648092.0354
 -31581056.97348 -24582085.22346  21535070.9144                   21535068.6524
  -2107149.35546  -1628293.14543  23848492.6024                   23848490.5314
   -300870.69147   -220627.98844  24422666.9384                   24422667.0004
 11  8 18  0 22 30.0000000  0  9G17G10G09G12G05G02G04G30G25
 -30066200.46147 -23404045.88345  23077242.9144                   23077241.2304
 -27082142.39148 -21080549.24246  20925820.9224                   20925818.5204
 -13599638.87547 -10571799.70744  23498557.2974                   23498557.2114
 -20136463.28948 -15666523.85946  21606568.3754                   21606565.1334
 -15148477.47747 -11779220.87946  22224413.7584                   22224411.8674
 -31181738.05948 -24271975.63747  20642030.4224                   20642025.0664
 -31534088.07848 -24545486.09846  21544008.4924                   21544006.6564
  -2235242.61346  -1728106.02743  23824117.2034                   23824115.7234
   -430311.68047   -321491.05144  24398034.5234                   24398035.0354
 11  8 18  0 23  0.0000000  0  9G17G10G09G12G05G02G04G30G25
 -30043279.65247 -23386185.55945  23081604.3364                   23081602.9454
 -27117841.80548 -21108366.93746  20919027.5314                   20919025.2664
 -13551368.68747 -10534186.65244  23507743.2894                   23507743.1954
 -20229317.48447 -15738877.76246  21588898.7584                   21588895.5984
 -15269681.36747 -11873665.38746  22201349.1804                   22201347.5084
 -31213313.56648 -24296579.91847  20636021.6724                   20636016.8714
 -31486952.38348 -24508757.00445  21552977.9694                   21552976.3204
  -2363094.31646  -1827730.71143  23799787.7344                   23799785.5634
   -559612.12147   -422244.60544  24373430.0944                   24373430.5554
 11  8 18  0 23 30.0000000  0  9G17G10G09G12G05G02G04G30G25
 -30020191.68747 -23368194.97745  23085997.2974                   23085996.0434
 -27152897.70748 -21135683.19946  20912356.7734                   20912354.2624
 -13502872.88347 -10496397.79344  23516970.9304                   23516971.4614
 -20321753.28948 -15810905.67246  21571308.8134                   21571305.6644
 -15390598.21147 -11967886.24246  22178339.3754                   22178337.6094
 -31244567.55148 -24320933.66047  20630074.1804                   20630069.2194
 -31439635.82448 -24471886.98445  21561982.1254                   21561980.3164
  -2490685.16447  -1927152.07444  23775508.0864                   23775506.6764
   -688753.07047   -522873.85244  24348854.2894                   24348856.4694
 11  8 18  0 24  0.0000000  0  9G17G10G09G12G05G02G04G30G25
 -29996922.96147 -23350063.56245  23090425.8444                   23090424.3364
 -27187296.48048 -21162487.42246  20905810.7194                   20905808.3874
 -13454141.41447 -10458425.30144  23526245.5944                   23526245.0354
 -20413755.23447 -15882595.49646  21553801.5634                   21553798.4184
 -15511211.86747 -12061870.83646  22155387.3444                   22155385.0394
 -31275487.75848 -24345027.30947  20624190.0634                   20624184.7584
 -31392127.03148 -24434867.16846  21571022.6094                   21571020.8054
  -2617999.03547  -2026357.67643  23751280.8204                   23751279.4144
   -817718.61747   -623366.42644  24324313.6564                   24324314.4184
 11  8 18  0 24 30.0000000  0  9G17G10G09G12G05G02G04G30G25
 -29973461.95347 -23331782.29745  23094890.1024                   23094888.6954
 -27221026.62548 -21188770.62546  20899392.1724                   20899389.4694
 -13405167.19146 -10420263.65644  23535564.1804                   23535564.1294
 -20505310.44947 -15953937.21546  21536379.0234                   21536375.7934
 -15631508.56247 -12155608.45346  22132495.9774                   22132493.7384
 -31306064.59048 -24368853.39147  20618371.5554                   20618366.7194
 -31344417.52048 -24397690.96946  21580102.0944                   21580100.2034
  -2745022.40647  -2125336.87543  23727109.4534                   23727108.0944
   -946495.57046   -723712.05544  24299807.7584                   24299809.8444
 11  8 18  0 25  0.0000000  0  9G17G10G09G12G05G02G04G30G25
 -29949798.78147 -23313343.50845  23099393.1174                   23099391.4224
 -27254077.96147 -21214524.88746  20893102.6644                   20893099.9264
 -13355944.14146 -10381908.12144  23544931.0004                   23544931.2544
 -20596406.71547 -16024921.32046  21519044.1484                   21519041.2304
 -15751475.81247 -12249089.36746  22109666.6564                   22109664.3134
 -31336289.62948 -24392405.35947  20612619.8754                   20612614.8674
 -31296499.93048 -24360352.60245  21589219.9454                   21589218.3484
  -2871742.91447  -2224080.10943  23702995.2274                   23702993.1644
  -1075071.79347   -823901.27744  24275340.4614                   24275342.1604
 11  8 18  0 25 30.0000000  0  9G17G10G09G12G05G02G04G30G25
 -29925923.94547 -23294739.78145  23103936.6334                   23103935.5164
 -27286440.95748 -21239742.78546  20886944.2664                   20886942.0274
 -13306466.67247 -10343354.33644  23554346.9144                   23554346.0664
 -20687032.82447 -16095539.07046  21501798.5634                   21501795.5084
 -15871101.65247 -12342304.21946  22086902.2344                   22086900.6174
 -31366155.23448 -24415677.24647  20606936.7504                   20606932.0474
 -31248367.48848 -24322846.82846  21598379.3364                   21598377.4344
  -2998149.04747  -2322578.32444  23678940.3134                   23678938.3984
  -1203435.98047   -923925.32044  24250914.4614                   24250915.0744
 11  8 18  0 26  0.0000000  0  9G17G10G09G12G05G02G04G30G25
 -29901828.27047 -23275963.97345  23108521.5634                   23108520.2704
 -27318106.75847 -21264417.41846  20880918.3364                   20880915.6644
 -13256729.73447 -10304598.39144  23563810.4384                   23563811.5234
 -20777177.87547 -16165781.96946  21484644.4384                   21484641.0394
 -15990375.30147 -12435244.66846  22064205.3524                   22064203.3324
 -31395653.76648 -24438663.10247  20601323.2114                   20601318.7624
 -31200013.55948 -24285168.46145  21607581.1724                   21607579.1844
  -3124229.39847  -2420822.66444  23654948.2814                   23654946.3914
  -1331576.99647  -1023775.46544  24226530.0234                   24226530.8674
 11  8 18  0 26 30.0000000  0  9G17G10G09G12G05G02G04G30G25
 -29877506.93047 -23257012.32045  23113150.5634                   23113148.7544
 -27349071.04747 -21288545.41446  20875026.0704                   20875023.4494
 -13206732.76647 -10265639.78944  23573325.8594                   23573325.6254
 -20866835.25047 -16235644.85546  21467583.2504                   21467579.9734
 -16109289.44947 -12527904.98046  22041577.1334                   22041574.4534
 -31424782.12148 -24461360.51247  20595780.3054                   20595775.0944
 -31151436.23848 -24247316.02745  21616824.8054                   21616822.5984
  -3249976.77747  -2518807.58243  23631019.6954                   23631017.2464
  -1459488.01247  -1123446.38344  24202189.1094                   24202189.2854
 11  8 18  0 27  0.0000000  0  9G17G10G09G12G05G02G04G30G25
 -29852953.46547 -23237879.79745  23117822.2274                   23117820.7114
 -27379327.43048 -21312121.79746  20869268.2504                   20869265.4774
 -13156473.08646 -10226476.45744  23582889.9924                   23582889.7624
 -20955996.75447 -16305121.34446  21450616.7114                   21450613.0904
 -16227835.34447 -12620278.34846  22019018.0704                   22019016.0044
 -31453535.75448 -24483765.94147  20590308.6954                   20590303.7384
 -31102631.72748 -24209286.56245  21626112.3594                   21626109.8874
  -3375382.64146  -2616526.32844  23607155.8134                   23607153.5044
  -1587160.63747  -1222931.53144  24177893.8204                   24177894.2974
 11  8 18  0 27 30.0000000  0  9G17G10G09G12G05G02G04G30G25
 -29828163.15647 -23218562.72345  23122540.2274                   23122538.0984
 -27408871.01248 -21335142.74646  20863646.4694                   20863644.2234
 -13105949.77347 -10187107.74244  23592503.1024                   23592503.1174
 -21044655.80548 -16374206.30546  21433745.3444                   21433742.0044
 -16346005.99647 -12712359.30546  21996530.9844                   21996529.3914
 -31481911.56648 -24505876.94947  20584908.9534                   20584903.9344
 -31053597.64848 -24171078.21546  21635442.8674                   21635440.7274
  -3500439.81247  -2713973.38344  23583357.8054                   23583355.7774
  -1714588.00047  -1322225.57444  24153645.0784                   24153645.1024
 11  8 18  0 28  0.0000000  0  9G17G10G09G12G05G02G04G30G25
 -29803132.27047 -23199058.17645  23127303.3204                   23127301.8404
 -27437698.33647 -21357605.57046  20858160.5784                   20858157.9964
 -13055163.12147 -10147533.78944  23602169.0474                   23602168.0354
 -21132806.75047 -16442895.34046  21416970.6484                   21416967.4414
 -16463794.89547 -12804142.79346  21974116.3914                   21974114.5514
 -31509907.47748 -24527691.94146  20579581.6174                   20579576.5164
 -31004332.87148 -24132690.10945  21644817.9844                   21644815.6884
  -3625142.39147  -2811144.12544  23559627.0634                   23559625.3714
  -1841764.39547  -1421324.00844  24129443.9064                   24129444.4144
 11  8 18  0 28 30.0000000  0  9G17G10G09G12G05G02G04G30G25
 -29777856.72347 -23179362.97744  23132112.7584                   23132111.7734
 -27465805.68047 -21379507.37546  20852811.8914                   20852809.6884
 -13004112.94946 -10107754.50844  23611882.8674                   23611883.3874
 -21220443.83647 -16511183.95346  21400293.6884                   21400291.2034
 -16581195.41047 -12895623.65246  21951775.6954                   21951773.5784
 -31537520.83648 -24549208.83647  20574327.1334                   20574321.6294
 -30954835.88747 -24094121.06646  21654236.8674                   21654234.3634
  -3749483.78147  -2908033.39144  23535965.9144                   23535964.8554
  -1968683.65646  -1520222.05544  24105291.7114                   24105292.3984
 11  8 18  0 29  0.0000000  0  9G17G10G09G12G05G02G04G30G25
 -29752334.50847 -23159475.58244  23136969.5084                   23136967.6914
 -27493191.41448 -21400846.88746  20847600.9144                   20847598.6684
 -12952801.53147 -10067771.64544  23621647.6724                   23621646.9614
 -21307563.39848 -16579069.29346  21383715.4304                   21383712.2544
 -16698203.85947 -12986799.00046  21929509.5314                   21929507.6644
 -31564751.58248 -24570427.57846  20569144.9454                   20569140.0314
 -30905107.35948 -24055371.58645  21663700.0234                   21663698.0474
  -3873460.06247  -3004638.19944  23512373.6254                   23512372.5204
  -2095341.79747  -1618916.63344  24081189.7664                   24081190.0784
 11  8 18  0 29 30.0000000  0  9G17G10G09G12G05G02G04G30G25
 -29726563.16047 -23139394.08645  23141873.6484                   23141872.4184
 -27519852.97348 -21421622.10946  20842527.1644                   20842524.9884
 -12901230.07447 -10027586.13344  23631461.2894                   23631461.0824
 -21394160.79348 -16646547.75046  21367236.3444                   21367233.1454
 -16814815.06247 -13077664.81246  21907319.5554                   21907317.2424
 -31591598.64148 -24591347.36747  20564036.0944                   20564031.2464
 -30855147.25448 -24016441.66445  21673206.9844                   21673205.0164
  -3997066.12146  -3100954.52044  23488852.2584                   23488851.6094
  -2221734.14847  -1717404.08244  24057137.5554                   24057138.0704
 11  8 18  0 30  0.0000000  0  9G17G10G09G12G05G02G04G30G25
 -29700541.52347 -23119117.54344  23146825.9774                   23146823.9614
 -27545789.94947 -21441832.71146  20837591.4454                   20837589.3014
 -12849401.59847  -9987200.35944  23641323.7584                   23641323.2854
 -21480233.30148 -16713617.20746  21350857.1884                   21350854.3794
 -16931025.84847 -13168218.59446  21885205.2344                   21885203.3834
 -31618062.78948 -24611968.77346  20559000.0784                   20558995.0984
 -30804957.27348 -23977332.62145  21682758.2114                   21682755.9454
  -4120298.80947  -3196979.87944  23465402.2034                   23465401.4024
  -2347857.73047  -1815682.09444  24033137.1954                   24033138.4534
 11  8 18  0 30 30.0000000  0  9G17G10G09G12G05G02G04G30G25
 -29674267.63347 -23098644.43044  23151824.8834                   23151824.1524
 -27571000.59047 -21461477.34846  20832793.9384                   20832791.3244
 -12797317.93047  -9946615.73444  23651235.0474                   23651234.1414
 -21565777.06648 -16780274.64146  21334579.2114                   21334575.9574
 -17046831.78947 -13258456.92646  21863168.0554                   21863165.7034
 -31644143.47348 -24632291.39147  20554037.3054                   20554032.0044
 -30754537.67248 -23938044.63345  21692352.7894                   21692350.6134
  -4243153.69947  -3292710.91044  23442023.4224                   23442022.4574
  -2473708.39547  -1913747.41444  24009189.0164                   24009189.4454
 11  8 18  0 31  0.0000000  0  9G17G10G09G12G05G02G04G30G25
 -29647739.32847 -23077973.07845  23156874.0314                   23156872.4884
 -27595483.27048 -21480554.73046  20828135.4304                   20828132.8094
 -12744981.02047  -9905833.78144  23661194.6174                   23661194.0864
 -21650788.87948 -16846517.56646  21318401.4144                   21318398.0164
 -17162228.52347 -13348376.39146  21841208.3054                   21841206.5234
 -31669840.76248 -24652315.24647  20549147.1484                   20549142.2624
 -30703888.89848 -23898578.07845  21701990.4304                   21701988.7544
  -4365626.54347  -3388144.21544  23418717.5314                   23418716.7934
  -2599282.02747  -2011596.91444  23985293.3364                   23985292.2814
 11  8 18  0 31 30.0000000  0  9G17G10G09G12G05G02G04G30G25
 -29620956.74647 -23057103.57044  23161970.2424                   23161968.2774
 -27619238.45348 -21499065.24646  20823614.7974                   20823612.5314
 -12692394.95747  -9864857.64844  23671201.6884                   23671200.5554
 -21735266.71547 -16912344.40646  21302326.0164                   21302322.4454
 -17277213.86347 -13437975.29746  21819327.6884                   21819326.0394
 -31695156.21148 -24672041.57047  20544330.0314                   20544324.6484
 -30653013.76648 -23858935.14545  21711671.5704                   21711669.4184
  -4487715.11347  -3483278.10544  23395485.0004                   23395483.3594
  -2724576.66447  -2109229.01644  23961450.7034                   23961450.3324
 11  8 18  0 32  0.0000000  0  9G17G10G09G12G05G02G04G30G25
 -29593917.16447 -23036033.80944  23167115.7974                   23167114.4344
 -27642263.57447 -21517006.88746  20819233.1884                   20819230.5124
 -12639560.68046  -9823688.15644  23681255.4694                   23681255.7624
 -21819206.24647 -16977751.79346  21286353.0084                   21286349.7814
 -17391782.71147 -13527249.65646  21797525.8914                   21797524.2624
 -31720088.77748 -24691469.53547  20539585.4454                   20539580.5084
 -30601912.03548 -23819115.63345  21721395.8524                   21721394.4144
  -4609414.36747  -3578108.65244  23372326.4454                   23372323.6994
  -2849587.53547  -2206640.01644  23937661.5944                   23937661.3714
 11  8 18  0 32 30.0000000  0  9G17G10G09G12G05G02G04G30G25
 -29566618.69547 -23014762.33245  23172310.6954                   23172308.4654
 -27664557.23848 -21534378.54346  20814990.8914                   20814988.2584
 -12586480.26646  -9782326.81244  23691355.2194                   23691356.1094
 -21902603.69947 -17042736.78146  21270482.8364                   21270479.1764
 -17505930.88347 -13616196.22346  21775804.2974                   21775801.8984
 -31744638.12548 -24710598.89546  20534913.7734                   20534908.8324
 -30550584.16448 -23779119.91445  21731163.3914                   21731161.7854
  -4730720.17247  -3672632.63744  23349242.9694                   23349240.3674
  -2974310.64147  -2303826.77744  23913927.2894                   23913927.3054
 11  8 18  0 33  0.0000000  0  9G17G10G09G12G05G02G04G30G25
 -29539057.89547 -22993286.43744  23177555.1174                   23177554.0044
 -27686116.64548 -21551178.07446  20810888.1414                   20810885.5824
 -12533154.36747  -9740774.24244  23701503.5634                   23701504.0204
 -21985453.87147 -17107295.31646  21254716.8284                   21254713.4414
 -17619652.44547 -13704810.37946  21754163.6724                   21754161.4264
 -31768802.61748 -24729428.37947  20530315.3134                   20530310.1214
 -30499029.17248 -23738947.21145  21740973.8284                   21740972.0004
  -4851626.64847  -3766845.44144  23326235.0234                   23326233.3954
  -3098740.45747  -2400784.98044  23890248.9534                   23890249.6414
 11  8 18  0 33 30.0000000  0  9G17G10G09G12G05G02G04G30G25
 -29511232.78147 -22971604.57444  23182850.0944                   23182848.6094
 -27706940.43448 -21567404.38346  20806925.5704                   20806923.2114
 -12479585.16446  -9699032.03144  23711697.5084                   23711697.8984
 -22067753.07447 -17171424.52346  21239055.8754                   21239052.2704
 -17732943.54747 -13793089.10546  21732604.9064                   21732603.1334
 -31792582.21948 -24747957.93747  20525790.0554                   20525785.4774
 -30447247.95348 -23698598.22745  21750827.6414                   21750825.8524
  -4972129.76647  -3860743.93444  23303303.9304                   23303301.6844
  -3222873.06247  -2497511.60944  23866627.1804                   23866627.4264
 11  8 18  0 34  0.0000000  0  9G17G10G09G12G05G02G04G30G25
 -29483141.80147 -22949715.53945  23188195.9774                   23188194.7934
 -27727027.45348 -21583056.60546  20803102.9924                   20803100.7464
 -12425774.73447  -9657101.88744  23721937.6094                   23721938.7774
 -22149498.20347 -17235121.99246  21223500.1484                   21223497.0554
 -17845800.19547 -13881029.29346  21711129.1804                   21711126.7774
 -31815976.78548 -24766187.46147  20521338.6414                   20521333.5164
 -30395241.00048 -23658073.35545  21760724.2274                   21760722.5434
  -5092225.41847  -3954324.94944  23280450.5474                   23280448.4144
  -3346704.64147  -2594003.64144  23843062.6564                   23843063.1684
 11  8 18  0 34 30.0000000  0  9G17G10G09G12G05G02G04G30G25
 -29454782.75447 -22927617.61744  23193592.5164                   23193591.1024
 -27746376.17648 -21598133.51246  20799420.8984                   20799418.4144
 -12371724.61346  -9614984.98044  23732222.6414                   23732223.3134
 -22230685.43448 -17298384.74246  21208050.8524                   21208047.6644
 -17958217.89147 -13968627.44946  21689736.5634                   21689734.3914
 -31838986.01248 -24784116.72747  20516959.8134                   20516954.7074
 -30343008.74648 -23617372.91845  21770664.0704                   21770661.9774
  -5211909.37947  -4047585.14144  23257675.7814                   23257672.5164
  -3470231.04347  -2690257.87544  23819556.4694                   23819556.5554
 11  8 18  0 35  0.0000000  0  9G17G10G09G12G05G02G04G30G25
 -29426153.67247 -22905309.28544  23199040.4614                   23199038.8444
 -27764985.06248 -21612633.93046  20795879.8364                   20795877.5824
 -12317436.63746  -9572682.71944  23742554.0004                   23742554.1294
 -22311310.66047 -17361209.55946  21192708.2274                   21192705.1374
 -18070192.32447 -14055880.18446  21668428.5634                   21668426.2424
 -31861609.21148 -24801745.18747  20512654.7734                   20512649.7304
 -30290551.48048 -23576497.14545  21780646.4144                   21780644.5044
  -5331177.00047  -4140520.91444  23234979.1024                   23234977.4924
  -3593447.88347  -2786270.91044  23796109.2274                   23796109.4224
 11  8 18  0 35 30.0000000  0  9G17G10G09G12G05G02G04G30G25
 -29397253.16047 -22882789.45744  23204539.6174                   23204538.1764
 -27782853.48048 -21626557.35546  20792479.7734                   20792477.0784
 -12262913.89846  -9530197.52044  23752929.1884                   23752930.1644
 -22391371.37548 -17423594.50846  21177473.3674                   21177469.8714
 -18181719.59047 -14142784.49246  21647205.5004                   21647203.6094
 -31883846.96548 -24819073.29746  20508423.1334                   20508418.1804
 -30237870.34047 -23535446.94145  21790670.9224                   21790669.4344
  -5450024.82047  -4233129.54744  23212363.4144                   23212361.6414
  -3716351.93047  -2882040.22344  23772720.9064                   23772721.7074
 11  8 18  0 36  0.0000000  0  9G17G10G09G12G05G02G04G30G25
 -29368079.80147 -22860057.01645  23210091.2504                   23210090.1844
 -27799980.86348 -21639903.35546  20789220.4454                   20789218.0474
 -12208158.78547  -9487531.25044  23763348.9534                   23763348.8634
 -22470864.52048 -17485537.19146  21162346.0234                   21162343.0394
 -18292796.84048 -14229338.12946  21626068.4384                   21626066.0354
 -31905699.66048 -24836101.35946  20504264.7344                   20504259.7344
 -30184966.74648 -23494223.38345  21800738.7034                   21800736.8284
  -5568449.36747  -4325408.37144  23189827.7344                   23189825.8484
  -3838939.86347  -2977563.20344  23749393.0634                   23749393.7034
 11  8 18  0 36 30.0000000  0  9G17G10G09G12G05G02G04G30G25
 -29338633.48447 -22837111.89544  23215694.7274                   23215693.4494
 -27816367.21948 -21652671.93046  20786102.1644                   20786099.6724
 -12153174.61747  -9444686.50044  23773812.7194                   23773811.8554
 -22549787.51248 -17547035.60546  21147327.4064                   21147324.2584
 -18403420.93047 -14315538.66046  21605017.0084                   21605015.0274
 -31927168.49648 -24852830.32046  20500179.5004                   20500174.2854
 -30131842.25848 -23452827.70745  21810847.8754                   21810845.9224
  -5686447.62547  -4417355.00044  23167373.4694                   23167371.9264
  -3961208.72747  -3072837.59044  23726125.7734                   23726127.1764
 11  8 18  0 37  0.0000000  0  9G17G10G09G12G05G02G04G30G25
 -29308913.98847 -22813953.88344  23221350.2114                   23221348.7974
 -27832013.17248 -21664863.56646  20783124.8204                   20783122.4144
 -12097965.31647  -9401666.32844  23784318.0084                   23784317.8054
 -22628139.14848 -17608088.80946  21132417.5704                   21132414.3244
 -18513589.35547 -14401384.12546  21584052.5234                   21584050.4884
 -31948255.31648 -24869261.59447  20496166.8284                   20496161.6844
 -30078499.25848 -23411261.75045  21820998.4144                   21820996.9064
  -5804017.37547  -4508967.72344  23145000.6484                   23144998.8674
  -4083156.64847  -3167861.88344  23702920.2034                   23702921.3794
 11  8 18  0 37 30.0000000  0  9G17G10G09G12G05G02G04G30G25
 -29278920.39847 -22790582.30944  23227058.1884                   23227056.9064
 -27846918.78948 -21676478.32046  20780288.2894                   20780285.5514
 -12042533.63746  -9358472.89144  23794866.2664                   23794866.5354
 -22705916.95348 -17668694.87546  21117617.2034                   21117613.4264
 -18623299.23847 -14486872.27746  21563175.4304                   21563173.0864
 -31968960.90648 -24885395.81247  20492226.7584                   20492221.4224
 -30024939.42647 -23369526.82045  21831190.8364                   21831188.4774
  -5921155.34447  -4600243.98044  23122709.8754                   23122708.3364
  -4204780.44147  -3262633.62544  23679776.2504                   23679776.4384
 11  8 18  0 38  0.0000000  0  9G17G10G09G12G05G02G04G30G25
 -29248652.93047 -22766997.31244  23232818.3134                   23232817.0434
 -27861084.70748 -21687516.68446  20777592.5474                   20777590.4614
 -11986883.80147  -9315109.43044  23805456.5394                   23805455.8204
 -22783119.34848 -17728852.58246  21102926.2814                   21102922.6684
 -18732548.48047 -14572001.50046  21542386.1254                   21542383.9104
 -31989286.85548 -24901234.20746  20488358.5164                   20488353.4574
 -29971165.07048 -23327624.74245  21841423.9224                   21841421.5514
  -6037859.45747  -4691182.16844  23100501.7114                   23100500.2894
  -4326078.18047  -3357151.31644  23656693.7734                   23656694.1764
 11  8 18  0 38 30.0000000  0  9G17G10G09G12G05G02G04G30G25
 -29218111.82446 -22743199.07444  23238629.6884                   23238627.7154
 -27874511.91448 -21697979.43446  20775037.5784                   20775035.0434
 -11931019.73047  -9271579.07044  23816086.8524                   23816086.5314
 -22859744.91448 -17788560.81246  21088344.3754                   21088341.1054
 -18841335.12948 -14656770.26246  21521684.6884                   21521682.8594
 -32009235.48048 -24916778.56247  20484562.1954                   20484557.4184
 -29917178.82848 -23285557.56245  21851696.6334                   21851694.7074
  -6154127.61346  -4781780.65644  23078376.7194                   23078374.6844
  -4447047.93047  -3451413.43444  23633674.1564                   23633673.9494
 11  8 18  0 39  0.0000000  0  9G17G10G09G12G05G02G04G30G25
 -29187295.64847 -22719186.50444  23244493.7274                   23244492.8444
 -27887199.90248 -21707866.16846  20772623.3754                   20772620.8554
 -11874944.12547  -9227883.83244  23826757.8204                   23826758.3014
 -22935790.53548 -17847817.14146  21073873.5394                   21073869.9304
 -18949655.18447 -14741175.42646  21501071.8284                   21501069.9494
 -32028806.66848 -24932028.82446  20480838.0004                   20480833.1524
 -29862981.77748 -23243326.09845  21862010.2504                   21862008.6094
  -6269956.28147  -4872036.67644  23056335.2424                   23056333.0634
  -4567686.21547  -3545417.28944  23610717.4694                   23610717.1454
 11  8 18  0 39 30.0000000  0  9G17G10G09G12G05G02G04G30G25
 -29156206.57046 -22694961.28144  23250409.4534                   23250408.0784
 -27899151.82848 -21717179.34046  20770348.6254                   20770346.4224
 -11818662.78547  -9184028.32044  23837468.2034                   23837467.9064
 -23011257.03948 -17906622.19946  21059512.6094                   21059509.0664
 -19057509.06247 -14825217.36746  21480548.0554                   21480545.7464
 -32048004.25848 -24946987.96546  20477184.9384                   20477180.2544
 -29808578.43048 -23200933.90245  21872362.5864                   21872360.8674
  -6385345.06646  -4961949.96144  23034377.4304                   23034374.9694
  -4687992.96547  -3639162.78544  23587823.7664                   23587823.3444
 11  8 18  0 40  0.0000000  0  9G17G10G09G12G05G02G04G30G25
 -27549424.02347 -21442922.96944  23556170.3524                   23556168.6214
 -26334946.21548 -20498317.81246  21068007.5864                   21068004.7664
 -10186759.53947  -7912415.46144  24148008.8984                   24148009.1684
 -21510718.26248 -16737371.20346  21345055.9224                   21345052.7114
 -17589468.96548 -13681289.95346  21759906.5394                   21759904.4024
 -30491407.92648 -23734055.74647  20773395.5084                   20773390.4414
 -28178550.98048 -21930782.65645  22182547.0554                   22182545.2974
  -4924866.12547  -3823914.37144  23312297.3524                   23312295.7304
  -3232540.13747  -2505043.68444  23864787.3364                   23864786.5004
 11  8 18  0 40 30.0000000  0  9G17G10G09G12G05G02G04G30G25
 -27517785.19147 -21418269.35544  23562190.7664                   23562190.0634
 -26345424.35948 -20506482.59046  21066013.4614                   21066011.0634
 -10130074.30547  -7868245.25044  24158795.6024                   24158796.1174
 -21585017.41848 -16795266.64846  21330917.2274                   21330914.0274
 -17696379.71948 -13764596.98446  21739562.2344                   21739560.1484
 -30509860.00848 -23748433.96946  20769884.1884                   20769878.8244
 -28123737.73048 -21888071.04745  22192977.2664                   22192975.8094
  -5039364.52747  -3913133.84444  23290508.8134                   23290507.3714
  -3352173.35247  -2598264.32844  23842021.3594                   23842021.2194
 11  8 18  0 41  0.0000000  0  9G17G10G09G12G05G02G04G30G25
 -27485871.01247 -21393401.19944  23568264.8524                   23568263.0124
 -26355166.29348 -20514073.69146  21064159.3444                   21064156.8794
 -10073192.12947  -7823921.56244  24169619.7194                   24169620.1454
 -21658729.55948 -16852704.67646  21316890.3594                   21316886.5594
 -17802814.47748 -13847533.11346  21719308.3914                   21719306.0084
 -30527940.83648 -23762522.90647  20766443.1484                   20766438.3204
 -28068722.09448 -21845201.73445  22203446.7114                   22203445.1844
  -5153413.37947  -4002003.00444  23268805.8834                   23268803.9454
  -3471465.63747  -2691219.30944  23819321.1174                   23819320.5704
 11  8 18  0 41 30.0000000  0  9G17G10G09G12G05G02G04G30G25
 -27453680.76247 -21368317.92644  23574390.1414                   23574388.7274
 -26364172.10948 -20521091.20746  21062445.5784                   21062443.0164
 -10016116.07446  -7779446.78943  24180480.3524                   24180482.2234
 -21731853.08648 -16909684.05146  21302975.3054                   21302971.8674
 -17908770.27048 -13930096.00846  21699145.6334                   21699143.0944
 -30545651.75048 -23776323.59847  20763073.0864                   20763068.1374
 -28013505.86348 -21802176.12545  22213953.9694                   22213951.8594
  -5267009.85947  -4090519.70344  23247189.5704                   23247187.2894
  -3590414.39147  -2783906.60944  23796685.9534                   23796686.3204
 11  8 18  0 42  0.0000000  0  9G17G10G09G12G05G02G04G30G25
 -27421214.55947 -21343019.63744  23580567.9534                   23580566.4534
 -26372443.09848 -20527536.11746  21060871.6954                   21060869.0944
  -9958850.30946  -7734824.20744  24191377.7504                   24191378.8914
 -21804386.61348 -16966203.68746  21289172.6564                   21289169.0984
 -18014245.98048 -14012284.82046  21679073.9774                   21679071.7074
 -30562994.49248 -23789837.39547  20759772.7424                   20759767.5664
 -27958091.58647 -21758996.20345  22224498.5004                   22224497.2384
  -5380151.92247  -4178682.31644  23225659.2114                   23225657.3324
  -3709017.54347  -2876324.60544  23774116.7034                   23774116.8594
 11  8 18  0 42 30.0000000  0  9G17G10G09G12G05G02G04G30G25
 -27388472.67247 -21317506.52744  23586798.6804                   23586797.4654
 -26379980.52348 -20533409.43046  21059437.6334                   21059434.9184
  -9901398.56647  -7690056.73044  24202311.2504                   24202311.3914
 -21876328.60248 -17022262.38346  21275482.6334                   21275479.0164
 -18119239.05148 -14094097.55146  21659094.7424                   21659092.5904
 -30579971.01248 -23803065.82846  20756542.3524                   20756537.3364
 -27902481.76247 -21715663.90245  22235080.9064                   22235079.6134
  -5492837.41047  -4266489.16044  23204215.9694                   23204213.7814
  -3827273.14147  -2968471.75844  23751612.5634                   23751612.5434
 11  8 18  0 43  0.0000000  0  9G17G10G09G12G05G02G04G30G25
 -27355455.47747 -21291778.91844  23593082.1334                   23593080.3364
 -26386785.81248 -20538712.24646  21058142.4844                   21058140.2894
  -9843765.23046  -7645147.73043  24213277.7974                   24213279.7424
 -21947677.96148 -17077859.28146  21261905.3284                   21261901.7154
 -18223747.79348 -14175532.88346  21639207.3594                   21639205.4224
 -30596583.33648 -23816010.47746  20753381.2194                   20753376.4734
 -27846678.85547 -21672181.15645  22245699.9924                   22245698.0234
  -5605064.48446  -4353938.78144  23182859.7664                   23182857.4804
  -3945179.36747  -3060346.68444  23729176.1884                   23729175.7274
 11  8 18  0 43 30.0000000  0  9G17G10G09G12G05G02G04G30G25
 -27322164.18047 -21265837.69944  23599416.7734                   23599416.1764
 -26392861.26648 -20543446.36746  21056986.4304                   21056984.4774
  -9785955.19946  -7600101.04344  24224279.5554                   24224280.4774
 -22018434.04748 -17132993.89146  21248440.8284                   21248437.3204
 -18327771.27348 -14256590.08646  21619412.4304                   21619410.0744
 -30612834.30948 -23828673.55546  20750288.7504                   20750283.5354
 -27790686.37547 -21628550.68045  22256355.3054                   22256353.2854
  -5716832.00847  -4441030.32444  23161590.8364                   23161588.5314
  -4062735.27747  -3151948.63344  23706805.5394                   23706806.0864
 11  8 18  0 44  0.0000000  0  9G17G10G09G12G05G02G04G30G25
 -27288598.43047 -21239682.62944  23605804.1644                   23605803.5274
 -26398207.59448 -20547612.33246  21055968.9774                   21055966.6334
  -9727972.17246  -7554919.58243  24235313.3054                   24235313.6804
 -22088595.80148 -17187665.37946  21235089.3444                   21235086.1764
 -18431307.07448 -14337267.28146  21599710.2424                   21599707.8484
 -30628725.78948 -23841056.50846  20747264.5704                   20747259.5784
 -27734506.30547 -21584774.02745  22267046.2424                   22267044.3444
  -5828137.55947  -4527761.86344  23140409.8364                   23140407.6484
  -4179938.54747  -3243275.76244  23684502.0314                   23684503.2304
 11  8 18  0 44 30.0000000  0  9G17G10G09G12G05G02G04G30G25
 -27254758.88747 -21213314.21944  23612243.6804                   23612242.6294
 -26402826.03148 -20551211.10546  21055089.7974                   21055087.3094
  -9669820.00046  -7509606.32043  24246378.9064                   24246380.4344
 -22158161.45348 -17241872.37146  21221851.5004                   21221848.5044
 -18534352.90248 -14417562.67646  21580100.8914                   21580098.8954
 -30644258.98048 -23853160.27747  20744308.9614                   20744303.8204
 -27678140.87947 -21540852.94545  22277771.5704                   22277770.0044
  -5938978.77347  -4614131.60544  23119317.4614                   23119315.4804
  -4296786.90647  -3334326.34444  23662267.5944                   23662268.3794
 11  8 18  0 45  0.0000000  0  9G17G10G09G12G05G02G04G30G25
 -27220644.70347 -21186731.78944  23618735.8984                   23618734.4144
 -26406717.23848 -20554243.20346  21054349.7424                   21054347.0944
  -9611501.77046  -7464163.66844  24257477.1254                   24257478.0434
 -22227129.23448 -17295613.48846  21208727.4844                   21208723.8484
 -18636906.29748 -14497474.36346  21560585.8524                   21560583.3054
 -30659435.02748 -23864985.75046  20741421.1254                   20741415.6134
 -27621591.72747 -21496788.69545  22288532.4614                   22288531.4494
  -6049352.78547  -4700137.27744  23098314.2424                   23098312.2584
  -4413277.57447  -3425098.21544  23640099.5704                   23640100.3054
 11  8 18  0 45 30.0000000  0  9G17G10G09G12G05G02G04G30G25
 -27186256.55147 -21159935.87944  23625279.6564                   23625278.3594
 -26409883.06648 -20556710.07446  21053747.0084                   21053744.3754
  -9553021.87946  -7418595.02744  24268606.3524                   24268606.0514
 -22295498.34848 -17348888.10546  21195717.1724                   21195713.8794
 -18738965.99248 -14577001.34446  21541164.3134                   21541161.5354
 -30674257.10948 -23876535.41846  20738600.2194                   20738595.1604
 -27564861.95347 -21452583.71145  22299328.4694                   22299325.9454
  -6159258.23047  -4785777.85244  23077399.4304                   23077397.5864
  -4529409.24247  -3515590.35244  23618000.5084                   23618001.1994
 11  8 18  0 46  0.0000000  0  9G17G10G09G12G05G02G04G30G25
 -27151593.80547 -21132925.98044  23631875.4534                   23631873.8874
 -26412323.86348 -20558611.98446  21053282.9384                   21053280.4414
  -9494383.29346  -7372902.77044  24279764.4384                   24279765.1884
 -22363266.50848 -17401694.44946  21182821.0784                   21182818.0824
 -18840528.87148 -14656141.19146  21521837.4924                   21521835.2894
 -30688725.47348 -23887809.46946  20735846.8594                   20735842.1804
 -27507952.77047 -21408238.92645  22310157.4694                   22310155.5864
  -6268691.89847  -4871050.78144  23056575.7814                   23056573.4454
  -4645178.83647  -3605800.35945  23595970.6884                   23595970.4184
 11  8 18  0 46 30.0000000  0  9G17G10G09G12G05G02G04G30G25
 -27116657.72747 -21105703.13744  23638524.0164                   23638522.5234
 -26414041.78548 -20559950.61746  21052955.6724                   21052953.3484
  -9435591.00846  -7327090.66844  24290952.1254                   24290952.4024
 -22430433.60948 -17454032.42646  21170039.6484                   21170036.1884
 -18941594.18048 -14734893.33246  21502605.5084                   21502603.5314
 -30702842.99248 -23898810.12546  20733160.4614                   20733155.2704
 -27450867.59847 -21363757.00845  22321020.5704                   22321018.4264
  -6377652.78947  -4955955.30944  23035840.6414                   23035838.3284
  -4760585.38347  -3695727.46945  23574008.9304                   23574008.9964
 11  8 18  0 47  0.0000000  0  9G17G10G09G12G05G02G04G30G25
 -27081446.87546 -21078266.15244  23645224.3524                   23645222.9844
 -26415036.80948 -20560725.94546  21052766.2734                   21052763.9384
  -9376647.41846  -7281160.71944  24302168.9534                   24302169.2194
 -22496996.72748 -17505899.77046  21157373.3754                   21157369.5864
 -19042158.26248 -14813254.89546  21483468.7504                   21483466.2504
 -30716610.14148 -23909537.76246  20730540.8444                   20730535.1294
 -27393607.00047 -21319138.39545  22331917.2034                   22331915.1024
  -6486137.25047  -5040488.59844  23015196.9774                   23015194.3054
  -4875625.25047  -3785368.85545  23552117.6024                   23552117.8404
 11  8 18  0 47 30.0000000  0  9G17G10G09G12G05G02G04G30G25
 -27045961.91846 -21050615.57044  23651976.5084                   23651975.9414
 -26415310.85948 -20560939.48846  21052713.9924                   21052711.5744
  -9317556.89146  -7235116.27744  24313413.5234                   24313414.4574
 -22562955.21548 -17557295.97346  21144821.4924                   21144818.2774
 -19142219.63348 -14891224.74646  21464427.5314                   21464425.1564
 -30730029.06248 -23919994.05146  20727987.3444                   20727982.0704
 -27336174.01247 -21274385.44945  22342846.3054                   22342844.6414
  -6594143.60247  -5124649.32844  22994643.4774                   22994641.3094
  -4990296.89147  -3874723.30145  23530296.5164                   23530295.7074
 11  8 18  0 48  0.0000000  0  9G17G10G09G12G05G02G04G30G25
 -27010202.64546 -21022751.23044  23658780.2584                   23658780.4264
 -26414864.91848 -20560591.98846  21052799.2194                   21052796.5944
  -9258322.48846  -7188959.71544  24324685.4614                   24324687.0004
 -22628306.87548 -17608219.32046  21132385.4924                   21132382.3134
 -19241775.68448 -14968800.84446  21445482.3594                   21445480.1334
 -30743100.91848 -23930179.90646  20725499.6484                   20725494.0004
 -27278569.93447 -21229499.19945  22353807.4144                   22353806.2664
  -6701669.00447  -5208435.27044  22974182.0084                   22974180.6884
  -5104597.47747  -3963788.62545  23508546.0704                   23508545.1994
 11  8 18  0 48 30.0000000  0  9G17G10G09G12G05G02G04G30G25
 -26974168.19146 -20994672.46944  23665638.7424                   23665637.3094
 -26413698.88348 -20559683.37546  21053020.9304                   21053018.7034
  -9198947.29346  -7142693.44944  24335984.2424                   24335985.1294
 -22693049.82448 -17658668.35246  21120065.6564                   21120062.3364
 -19340823.68048 -15045981.05546  21426634.5314                   21426631.8674
 -30755826.75048 -23940096.13747  20723078.0234                   20723072.9694
 -27220796.44947 -21184480.93745  22364801.9224                   22364800.0824
  -6808710.53547  -5291844.21544  22953813.1804                   22953811.0124
  -5218524.12547  -4052562.57845  23486865.8594                   23486865.5354
 11  8 18  0 49  0.0000000  0  9G17G10G09G12G05G02G04G30G25
 -26937858.12546 -20966378.94144  23672548.2344                   23672546.4884
 -26411814.40648 -20558214.94146  21053379.5864                   21053377.2704
  -9139434.55546  -7096319.98444  24347309.1094                   24347310.3524
 -22757182.61748 -17708641.94146  21107861.2814                   21107858.1914
 -19439361.34848 -15122763.60546  21407883.1884                   21407880.9614
 -30768208.14848 -23949743.97746  20720721.9144                   20720717.0704
 -27162855.15647 -21139331.91845  22375827.5474                   22375825.9534
  -6915265.71947  -5374874.16844  22933536.4924                   22933533.8954
  -5332074.37147  -4141043.21945  23465258.1644                   23465257.7974
 11  8 18  0 49 30.0000000  0  9G17G10G09G12G05G02G04G30G25
 -26901273.53946 -20937871.50444  23679510.1724                   23679508.2774
 -26409213.56648 -20556188.30146  21053874.8134                   21053872.2974
  -9079788.54346  -7049842.66043  24358659.7114                   24358659.7464
 -22820704.16048 -17758139.21946  21095773.8834                   21095770.4024
 -19537387.11348 -15199147.27746  21389229.2194                   21389227.2234
 -30780247.26248 -23959125.10946  20718430.8674                   20718425.7464
 -27104748.79347 -21094054.26245  22386885.1174                   22386882.8714
  -7021332.94547  -5457523.87944  22913352.0554                   22913349.5634
  -5445246.65247  -4229229.35244  23443722.5004                   23443722.2384
 11  8 18  0 50  0.0000000  0  9G17G10G09G12G05G02G04G30G25
 -26864415.08246 -20909150.65244  23686523.7114                   23686522.6804
 -26405898.50048 -20553605.11746  21054505.2664                   21054502.7504
  -9020014.06247  -7003265.24643  24370034.5944                   24370035.5634
 -22883614.81248 -17807160.49246  21083802.1804                   21083798.9574
 -19634900.18748 -15275131.44546  21370673.3444                   21370670.8524
 -30791947.00848 -23968241.78946  20716204.2114                   20716199.1254
 -27046480.72747 -21048650.60245  22397973.4534                   22397971.1174
  -7126910.98447  -5539792.40645  22893260.7424                   22893258.8594
  -5558039.75847  -4317120.01645  23422258.1414                   23422258.4064
 11  8 18  0 50 30.0000000  0  9G17G10G09G12G05G02G04G30G25
 -26827282.54346 -20880216.23044  23693589.9694                   23693588.6374
 -26401869.53148 -20550465.65246  21055272.0704                   21055269.6094
  -8960113.96146  -6956589.89843  24381433.2034                   24381433.7544
 -22945912.06648 -17855703.78946  21071947.5084                   21071944.0044
 -19731897.58648 -15350713.79346  21352215.4144                   21352212.9104
 -30803307.62148 -23977094.21146  20714042.1804                   20714037.5204
 -26988051.80547 -21003121.59045  22409091.3914                   22409089.5044
  -7231996.56647  -5621677.21544  22873264.4384                   22873261.5744
  -5670450.57847  -4404712.80945  23400867.3754                   23400867.6954
 11  8 18  0 51  0.0000000  0  9G17G10G09G12G05G02G04G30G25
 -26789875.13347 -20851067.59844  23700708.4304                   23700707.1564
 -26397127.73048 -20546770.73046  21056174.1884                   21056171.4654
  -8900090.87546  -6909818.76243  24392855.8984                   24392855.9884
 -23007593.95348 -17903767.57846  21060209.6254                   21060206.3634
 -19828376.21548 -15425891.91046  21333856.1484                   21333853.4064
 -30814330.14548 -23985683.19146  20711945.0084                   20711939.9264
 -26929463.31647 -20957468.25445  22420240.5944                   22420239.1254
  -7336586.66047  -5703175.93044  22853361.2424                   22853358.8364
  -5782475.97747  -4492005.27344  23379549.1254                   23379549.4534
 11  8 18  0 51 30.0000000  0  9G17G10G09G12G05G02G04G30G25
 -26752192.41047 -20821704.47744  23707879.7034                   23707877.3594
 -26391673.98048 -20542521.03946  21057212.1954                   21057210.1294
  -8839948.38746  -6862954.50843  24404299.4454                   24404299.9924
 -23068658.80548 -17951350.55946  21048589.8594                   21048586.0514
 -19924334.07848 -15500664.23046  21315595.5394                   21315593.6374
 -30825016.15648 -23994009.95347  20709911.8674                   20709906.6024
 -26870717.09047 -20911692.00045  22431419.5394                   22431418.0514
  -7440678.97347  -5784286.77044  22833552.7194                   22833550.9414
  -5894113.66447  -4578995.62945  23358305.4224                   23358305.1994
 11  8 18  0 52  0.0000000  0  9G17G10G09G12G05G02G04G30G25
 -26714234.96146 -20792127.26644  23715102.5004                   23715100.5864
 -26385510.23048 -20537718.09846  21058385.4304                   21058382.7194
  -8779690.46946  -6816000.41043  24415766.7584                   24415766.5784
 -23129105.64548 -17998451.98046  21037086.7734                   21037083.4654
 -20019769.49648 -15575029.44146  21297434.7584                   21297432.5864
 -30835367.66848 -24002076.06246  20707941.8914                   20707936.6254
 -26811815.83247 -20865794.94945  22442628.6884                   22442626.4614
  -7544271.70747  -5865008.30544  22813839.3204                   22813836.9774
  -6005361.84047  -4665682.48845  23337135.4144                   23337135.5664
 11  8 18  0 52 30.0000000  0  9G17G10G09G12G05G02G04G30G25
 -26676002.80946 -20762335.98844  23722378.0394                   23722376.5944
 -26378638.19547 -20532363.25446  21059692.5164                   21059690.3204
  -8719320.91046  -6768959.21543  24427255.1954                   24427255.7274
 -23188933.98048 -18045071.44146  21025701.8204                   21025698.7854
 -20114680.70748 -15648986.18446  21279373.7814                   21279371.0664
 -30845386.62548 -24009883.05146  20706035.5234                   20706029.8134
 -26752761.42247 -20819778.53145  22453865.9064                   22453864.1724
  -7647362.67647  -5945338.88344  22794222.2664                   22794219.8054
  -6116218.28947  -4752064.09445  23316040.5864                   23316039.9304
 11  8 18  0 53  0.0000000  0  9G17G10G09G12G05G02G04G30G25
 -26637496.12146 -20732330.76644  23729705.2504                   23729704.3324
 -26371059.47748 -20526457.74646  21061134.7584                   21061132.5664
  -8658843.47346  -6721834.04343  24438763.3984                   24438763.5864
 -23248142.00448 -18091207.55146  21014434.8284                   21014431.4774
 -20209065.74648 -15722532.93046  21261413.0314                   21261410.7624
 -30855074.46548 -24017432.02346  20704191.8754                   20704186.3984
 -26693555.97347 -20773644.42645  22465132.6414                   22465130.6994
  -7749949.79347  -6025276.84044  22774700.3054                   22774697.5394
  -6226680.92247  -4838138.81645  23295019.7734                   23295019.5474
 11  8 18  0 53 30.0000000  0  9G17G10G09G12G05G02G04G30G25
 -26598716.50446 -20702112.90244  23737085.6174                   23737083.7704
 -26362776.84848 -20520003.73846  21062710.8524                   21062708.4844
  -8598262.80546  -6674628.46943  24450290.7344                   24450291.9304
 -23306729.95748 -18136860.49246  21003285.9774                   21003282.3954
 -20302923.83648 -15795669.06246  21243552.3914                   21243550.0314
 -30864434.23848 -24024725.33647  20702410.7894                   20702405.6024
 -26634202.82047 -20727395.22745  22476427.0474                   22476424.6884
  -7852032.12147  -6104821.47344  22755274.8674                   22755272.6134
  -6336748.78147  -4923905.93045  23274073.9614                   23274074.5904
 11  8 18  0 54  0.0000000  0  9G17G10G09G12G05G02G04G30G25
 -26559663.60946 -20671682.08644  23744517.1024                   23744515.3404
 -26353791.71947 -20513002.32446  21064420.6644                   21064417.9804
  -8537582.39146  -6627345.13743  24461839.0554                   24461839.9884
 -23364696.55548 -18182029.25846  20992255.2504                   20992251.7424
 -20396252.60948 -15868392.74646  21225792.6724                   21225789.7814
 -30873467.12948 -24031763.96146  20700691.6954                   20700686.8014
 -26574703.41447 -20681032.07445  22487749.3984                   22487747.5234
  -7953607.04747  -6183970.70344  22735946.0164                   22735943.6644
  -6446419.23047  -5009363.36745  23253204.7814                   23253205.2734
 11  8 18  0 54 30.0000000  0  9G17G10G09G12G05G02G04G30G25
 -26520337.52346 -20641038.39844  23751999.8674                   23751999.1174
 -26344105.55547 -20505454.65646  21066263.9774                   21066261.4844
  -8476805.47346  -6579986.59443  24473404.5164                   24473405.0864
 -23422040.34448 -18226712.71946  20981342.9534                   20981339.2344
 -20489050.16848 -15940702.48846  21208133.8054                   21208131.3674
 -30882175.01248 -24038549.33246  20699035.1254                   20699029.2344
 -26515059.69947 -20634556.46145  22499099.3594                   22499097.5704
  -8054672.23447  -6262722.76245  22716713.4304                   22716711.7814
  -6555689.98447  -5094509.35245  23232411.4534                   23232411.3914
 11  8 18  0 55  0.0000000  0  9G17G10G09G12G05G02G04G30G25
 -26480738.75446 -20610182.22744  23759536.1094                   23759534.8794
 -26333720.11748 -20497362.09046  21068240.2664                   21068237.3244
  -8415936.39546  -6532556.27043  24484986.9454                   24484988.1564
 -23478760.80148 -18270910.47346  20970549.6884                   20970545.9774
 -20581315.44548 -16012597.46946  21190576.2734                   21190573.6764
 -30890559.93748 -24045083.05146  20697439.0474                   20697434.3204
 -26455274.14547 -20587970.31645  22510475.9064                   22510474.5824
  -8155226.25847  -6341076.49645  22697579.2274                   22697576.3714
  -6664559.47747  -5179342.66445  23211694.2734                   23211693.8324
 11  8 18  0 55 30.0000000  0  9G17G10G09G12G05G02G04G30G25
 -26440868.23446 -20579114.29744  23767123.1254                   23767121.2854
 -26322638.04348 -20488726.69946  21070349.3674                   21070346.8404
  -8354979.36346  -6485057.43743  24496587.6644                   24496588.3914
 -23534857.39848 -18314622.09846  20959875.0164                   20959871.2734
 -20673046.59448 -16084076.24646  21173120.4534                   21173117.6604
 -30898624.12548 -24051366.83646  20695904.5864                   20695899.6094
 -26395349.47747 -20541275.80145  22521879.3134                   22521877.9184
  -8255267.44947  -6419030.61745  22678541.9774                   22678539.8364
  -6773026.07847  -5263862.02345  23191053.3284                   23191053.6644
 11  8 18  0 56  0.0000000  0  9G17G10G09G12G05G02G04G30G25
 -26400725.73446 -20547834.42644  23774760.9144                   23774760.0514
 -26310860.37548 -20479549.28946  21072590.3204                   21072587.7464
  -8293937.39847  -6437492.40244  24508203.4694                   24508204.3244
 -23590328.56248 -18357846.37946  20949318.7974                   20949315.4534
 -20764241.40248 -16155137.09846  21155766.8984                   21155764.1524
 -30906368.77048 -24057401.62546  20694431.0474                   20694425.6524
 -26335286.93447 -20494473.83245  22533308.8914                   22533307.6914
  -8354793.05947  -6496583.00445  22659602.7584                   22659600.5204
  -6881086.91847  -5348065.22345  23170489.8754                   23170489.6564
 11  8 18  0 56 30.0000000  0  9G17G10G09G12G05G02G04G30G25
 -26360311.43746 -20516342.80144  23782451.6024                   23782451.0984
 -26298389.46948 -20469831.68446  21074963.4064                   21074960.8874
  -8232814.41046  -6389864.25444  24519834.5944                   24519835.7774
 -23645173.55948 -18400582.73846  20938882.4304                   20938878.8244
 -20854898.67248 -16225779.08246  21138514.8914                   21138512.5274
 -30913795.50048 -24063188.68747  20693017.5704                   20693012.4774
 -26275088.73447 -20447566.15645  22544764.2894                   22544762.7074
  -8453801.46547  -6573732.36745  22640761.4224                   22640758.9964
  -6988740.34447  -5431950.95745  23150004.6564                   23150004.0124
 11  8 18  0 57  0.0000000  0  9G17G10G09G12G05G02G04G30G25
 -26319626.61746 -20484640.37144  23790193.4144                   23790193.2544
 -26285228.22748 -20459576.16046  21077467.9144                   21077465.6644
  -8171614.98846  -6342176.54344  24531480.3914                   24531481.6214
 -23699392.62148 -18442831.35546  20928564.6414                   20928560.9534
 -20945017.35548 -16296001.39546  21121365.8444                   21121363.1844
 -30920907.91048 -24068730.83246  20691664.4694                   20691658.8054
 -26214758.14147 -20400555.30545  22556244.8524                   22556242.7664
  -8552291.68747  -6650477.95745  22622019.5394                   22622017.0164
  -7095985.29347  -5515518.37545  23129596.6414                   23129596.6644
 11  8 18  0 57 30.0000000  0  9G17G10G09G12G05G02G04G30G25
 -26278671.74246 -20452727.50844  23797987.6484                   23797986.3324
 -26271378.49648 -20448784.14546  21080103.4694                   21080100.7504
  -8110342.91846  -6294432.21944  24543140.5634                   24543141.7814
 -23752984.98048 -18484591.63746  20918366.6174                   20918362.9924
 -21034595.76648 -16365802.72346  21104319.5474                   21104317.3164
 -30927707.40648 -24074029.14846  20690370.4224                   20690365.3134
 -26154297.22747 -20353442.90645  22567749.9614                   22567748.5864
  -8650261.72747  -6726818.19944  22603376.2274                   22603374.4344
  -7202819.74247  -5598765.92645  23109266.1564                   23109266.0664
 11  8 18  0 58  0.0000000  0  9G17G10G09G12G05G02G04G30G25
 -26237446.51647 -20420603.99244  23805832.6954                   23805831.5944
 -26256841.43748 -20437456.55946  21082869.8594                   21082866.9104
  -8049001.48046  -6246633.86544  24554813.5634                   24554814.5354
 -23805948.69948 -18525862.06646  20908287.8204                   20908284.3954
 -21123631.77348 -16435181.38346  21087376.5314                   21087374.1764
 -30934195.08248 -24079084.47746  20689135.7424                   20689130.6524
 -26093707.53947 -20306230.17645  22579279.6484                   22579278.0744
  -8747709.00847  -6802751.09445  22584832.9304                   22584830.8594
  -7309240.94947  -5681691.46545  23089014.9064                   23089015.2194
 11  8 18  0 58 30.0000000  0  9G17G10G09G12G05G02G04G30G25
 -26195951.41447 -20388270.16844  23813728.9144                   23813728.0784
 -26241619.24648 -20425595.10246  21085766.2274                   21085763.6484
  -7987594.52046  -6198784.41044  24566497.9534                   24566500.1294
 -23858283.72748 -18566642.60946  20898328.4384                   20898325.2814
 -21212124.05548 -16504136.37146  21070537.2894                   21070534.3954
 -30940373.16848 -24083898.56647  20687960.2274                   20687955.1914
 -26032991.23047 -20258918.76244  22590833.9224                   22590832.0984
  -8844632.02347  -6878275.48045  22566388.9144                   22566386.9064
  -7415247.39547  -5764293.82845  23068842.1804                   23068842.2344
 11  8 18  0 59  0.0000000  0  9G17G10G09G12G05G02G04G30G25
 -26154185.93047 -20355725.65244  23821676.2814                   23821675.4104
 -26225712.90248 -20413200.53546  21088793.0944                   21088791.0234
  -7926124.50446  -6150885.86344  24578197.1024                   24578198.2194
 -23909987.76248 -18606931.47346  20888489.6884                   20888486.3874
 -21300069.63348 -16572665.35246  21053801.5314                   21053798.5704
 -30946242.17648 -24088471.82446  20686843.2734                   20686838.2344
 -25972149.09047 -20211509.30144  22602411.5234                   22602409.7154
  -8941027.41447  -6953388.72745  22548045.6094                   22548042.9614
  -7520835.60247  -5846570.27745  23048749.2424                   23048749.4184
 11  8 18  0 59 30.0000000  0  9G17G10G09G12G05G02G04G30G25
 -26112150.70347 -20322970.95744  23829675.6254                   23829674.4384
 -26209125.14848 -20400275.00846  21091949.8204                   21091947.3134
  -7864595.68446  -6102941.48443  24589904.8444                   24589906.6524
 -23961060.78548 -18646728.63346  20878771.1884                   20878767.5044
 -21387467.69948 -16640767.69946  21037170.3054                   21037168.0664
 -30951804.41848 -24092806.02746  20685784.7584                   20685779.8054
 -25911183.83647 -20164003.92244  22614012.9384                   22614010.9534
  -9036893.98847  -7028089.91845  22529802.9534                   22529800.5314
  -7626004.24647  -5928519.81645  23028736.6564                   23028736.7894
 11  8 18  1  0  0.0000000  0  9G17G10G09G12G05G02G04G30G25
 -26069845.23046 -20290005.68044  23837725.9144                   23837724.6024
 -26191857.44548 -20386819.64146  21095235.6884                   21095233.2504
  -7803010.92646  -6054953.48843  24601624.4534                   24601625.2584
 -24011501.10248 -18686032.77346  20869172.5944                   20869169.2234
 -21474315.68448 -16708441.42246  21020643.4384                   21020640.8874
 -30957061.38348 -24096902.36346  20684784.5314                   20684779.5904
 -25850096.79747 -20116403.63745  22625637.5164                   22625635.7384
  -9132229.05947  -7102376.94545  22511661.5004                   22511658.7034
  -7730750.66047  -6010140.33245  23008804.7734                   23008804.3754
 11  8 18  1  0 30.0000000  0  9G17G10G09G12G05G02G04G30G25
 -26027268.59047 -20256829.06644  23845828.2894                   23845826.7194
 -26173910.06648 -20372834.65646  21098651.4844                   21098648.4844
  -7741372.59446  -6006923.72343  24613353.2194                   24613355.3754
 -24061306.66048 -18724842.29746  20859694.4614                   20859691.2544
 -21560610.78148 -16775684.32046  21004222.3054                   21004219.7504
 -30962013.25048 -24100760.95346  20683842.2424                   20683837.3484
 -25788888.59047 -20068708.93445  22637285.0084                   22637283.3754
  -9227029.36747  -7176247.28145  22493621.3524                   22493618.7894
  -7835071.34447  -6091429.10545  22988953.3284                   22988952.6374
 11  8 18  1  1  0.0000000  0  9G17G10G09G12G05G02G04G30G25
 -25984422.42247 -20223442.44544  23853980.7664                   23853979.8594
 -26155286.51648 -20358322.78546  21102195.0084                   21102192.8134
  -7679685.39546  -5958855.93443  24625091.8674                   24625093.6134
 -24110477.94548 -18763157.58246  20850337.6414                   20850334.1954
 -21646352.34448 -16842495.89146  20987906.0394                   20987903.2154
 -30966662.76248 -24104383.93746  20682957.2504                   20682952.2974
 -25727562.18447 -20020922.14845  22648954.7274                   22648953.3444
  -9321294.07447  -7249700.26245  22475683.2584                   22475680.5164
  -7938965.37147  -6172385.44545  22969182.3364                   22969181.5084
 11  8 18  1  1 30.0000000  0  9G17G10G09G12G05G02G04G30G25
 -25941305.71946 -20189845.01644  23862186.5704                   23862185.5474
 -26135987.44148 -20343284.53946  21105867.8054                   21105864.7854
  -7617951.82846  -5910751.99243  24636840.1954                   24636841.3404
 -24159012.49248 -18800976.69946  20841101.4454                   20841098.8134
 -21731537.66048 -16908874.02746  20971695.7344                   20971693.3054
 -30971010.69148 -24107771.93447  20682129.8284                   20682124.7894
 -25666118.22747 -19973043.75445  22660647.5314                   22660646.0904
  -9415020.07447  -7322733.49245  22457848.0784                   22457845.0164
  -8042429.56247  -6253006.85245  22949493.5084                   22949493.0164
 11  8 18  1  2  0.0000000  0  9G17G10G09G12G05G02G04G30G25
 -25897918.50847 -20156036.77744  23870442.7424                   23870440.4804
 -26116014.85948 -20327721.48046  21109668.2034                   21109665.7074
  -7556175.41446  -5862614.68443  24648596.1174                   24648596.3594
 -24206910.04348 -18838299.46946  20831987.5394                   20831984.1604
 -21816165.09048 -16974817.44546  20955591.8204                   20955589.2384
 -30975058.87148 -24110926.34446  20681359.6334                   20681354.7734
 -25604559.03147 -19925075.55545  22672362.0944                   22672360.1954
  -9508205.55547  -7395345.52045  22440114.7814                   22440112.9924
  -8145461.84447  -6333291.68745  22929887.6254                   22929886.3914
 11  8 18  1  2 30.0000000  0  9G17G10G09G12G05G02G04G30G25
 -25854259.08246 -20122016.47744  23878750.6414                   23878749.4184
 -26095369.08248 -20311633.85246  21113596.9224                   21113594.0744
  -7494357.62546  -5814445.12943  24660359.8204                   24660360.1094
 -24254168.14148 -18875123.94546  20822994.4144                   20822991.0474
 -21900230.82848 -17040323.18046  20939594.4384                   20939592.1684
 -30978806.52748 -24113846.59446  20680646.3754                   20680641.7344
 -25542883.99247 -19877017.10945  22684097.8754                   22684096.8634
  -9600846.40247  -7467533.16845  22422486.7034                   22422484.3914
  -8248058.05147  -6413236.75445  22910363.5234                   22910362.8014
 11  8 18  1  3  0.0000000  0  9G17G10G09G12G05G02G04G30G25
 -25810330.11746 -20087786.07844  23887110.5164                   23887108.7584
 -26074054.01648 -20295024.69546  21117653.2814                   21117650.4454
  -7432503.59446  -5766247.39542  24672129.9534                   24672131.1294
 -24300787.18048 -18911450.46146  20814122.9614                   20814119.7504
 -21983735.54748 -17105391.75846  20923704.1254                   20923701.4774
 -30982257.41448 -24116535.58246  20679989.7814                   20679984.8794
 -25481096.99247 -19828871.42245  22695855.4224                   22695854.7344
  -9692942.57447  -7539296.39845  22404960.3524                   22404958.1094
  -8350218.03547  -6492841.89545  22890923.2344                   22890922.9384
 11  8 18  1  3 30.0000000  0  9G17G10G09G12G05G02G04G30G25
 -25766128.89146 -20053343.57043  23895520.8594                   23895519.9064
 -26052069.24248 -20277893.70346  21121836.3054                   21121833.6294
  -7370614.48846  -5718022.28743  24683907.3594                   24683909.2194
 -24346764.13748 -18947276.65246  20805373.9534                   20805370.3554
 -22066674.85248 -17170019.75046  20907920.9694                   20907918.7814
 -30985410.69548 -24118992.67246  20679389.6334                   20679384.7154
 -25419197.26647 -19780637.87145  22707634.7584                   22707633.6524
  -9784489.55947  -7610631.69145  22387539.2194                   22387537.4454
  -8451936.99647  -6572103.40245  22871566.6884                   22871566.3984
 11  8 18  1  4  0.0000000  0  9G17G10G09G12G05G02G04G30G25
 -25721655.17246 -20018688.72744  23903984.5864                   23903983.5864
 -26029416.23448 -20260241.99246  21126147.2194                   21126144.5164
  -7308693.23046  -5669772.07843  24695690.2734                   24695692.2344
 -24392097.85248 -18982601.60946  20796747.3984                   20796744.1254
 -22149046.49648 -17234205.41846  20892246.4534                   20892243.8164
 -30988267.44548 -24121218.69546  20678846.0784                   20678840.9304
 -25357186.11747 -19732317.51645  22719435.0864                   22719433.5124
  -9875484.80547  -7681537.05945  22370224.1254                   22370222.0394
  -8553212.33247  -6651019.23045  22852294.5394                   22852294.2154
 11  8 18  1  4 30.0000000  0  9G17G10G09G12G05G02G04G30G25
 -25676908.80946 -19983821.45743  23912498.7034                   23912497.4574
 -26006096.58648 -20242070.82046  21130584.6484                   21130581.8054
  -7246742.53146  -5621498.96943  24707479.7664                   24707481.3014
 -24436787.09048 -19017424.38746  20788243.3204                   20788239.6764
 -22230848.11748 -17297946.91046  20876679.9534                   20876677.3284
 -30990828.80548 -24123214.55546  20678358.5474                   20678353.6954
 -25295064.72747 -19683911.26644  22731256.4454                   22731255.2464
  -9965925.88747  -7752010.61345  22353013.3674                   22353011.3914
  -8654041.47347  -6729587.36745  22833107.4224                   22833106.8094
 11  8 18  1  5  0.0000000  0  9G17G10G09G12G05G02G04G30G25
 -25631889.32446 -19948741.36344  23921066.2814                   23921065.5554
 -25982111.48448 -20223381.13746  21135149.2344                   21135146.7894
  -7184765.10346  -5573205.05943  24719273.8284                   24719274.5984
 -24480830.45348 -19051743.87546  20779862.0164                   20779858.5824
 -22312078.11748 -17361242.97746  20861222.6884                   20861219.8054
 -30993095.78148 -24124981.02346  20677927.0554                   20677922.0784
 -25232834.17647 -19635419.94545  22743098.6094                   22743097.4534
 -10055810.18047  -7822050.31645  22335909.4614                   22335907.5084
  -8754421.50048  -6807805.55545  22814006.1024                   22814005.7034
 11  8 18  1  5 30.0000000  0  9G17G10G09G12G05G02G04G30G25
 -25586597.05546 -19913448.70744  23929685.3204                   23929684.0474
 -25957463.56248 -20204174.94546  21139839.4534                   21139836.7384
  -7122764.69946  -5524893.19143  24731072.1564                   24731073.0474
 -24524226.80148 -19085559.18746  20771604.0474                   20771600.9384
 -22392734.84448 -17424092.33646  20845873.7114                   20845871.1374
 -30995069.91048 -24126519.29346  20677551.4304                   20677546.5234
 -25170496.25847 -19586844.95744  22754961.1954                   22754959.8284
 -10145135.88347  -7891654.74645  22318911.2974                   22318909.0664
  -8854350.45748  -6885672.27345  22794990.2424                   22794989.4224
 11  8 18  1  6  0.0000000  0  9G17G10G09G12G05G02G04G30G25
 -25541032.32446 -19877943.75044  23938355.5704                   23938354.7074
 -25932154.87548 -20184453.87946  21144655.9064                   21144652.8484
  -7060744.82446  -5476566.20743  24742874.6724                   24742875.3954
 -24566976.09448 -19118870.31246  20763468.8754                   20763465.6954
 -22472816.47348 -17486493.57846  20830635.0084                   20830632.2424
 -30996752.98048 -24127830.76646  20677230.8914                   20677225.8874
 -25108052.86747 -19538187.79344  22766843.8834                   22766842.6564
 -10233901.01647  -7960822.36745  22302019.9614                   22302017.5044
  -8953826.25847  -6963185.86345  22776060.3284                   22776059.2974
 11  8 18  1  6 30.0000000  0  9G17G10G09G12G05G02G04G30G25
 -25495195.65646 -19842226.90644  23947078.2194                   23947077.4494
 -25906188.09048 -20164220.01646  21149596.7894                   21149593.9574
  -6998708.88346  -5428226.69143  24754679.7344                   24754681.0704
 -24609078.00448 -19151676.99246  20755457.2424                   20755453.7774
 -22552321.81648 -17548445.76246  20815505.2584                   20815502.9224
 -30998146.98048 -24128916.99246  20676965.7274                   20676960.7194
 -25045505.94147 -19489449.94144  22778746.2504                   22778744.0234
 -10322104.02047  -8029551.96145  22285235.3914                   22285232.5354
  -9052847.08247  -7040344.94945  22757217.0784                   22757216.9534
 11  8 18  1  7  0.0000000  0  9G17G10G09G12G05G02G04G30G25
 -25449086.25446 -19806297.52344  23955853.0634                   23955852.4734
 -25879564.07048 -20143474.00446  21154663.4144                   21154660.2854
  -6936659.33246  -5379876.62143  24766487.6484                   24766488.5004
 -24650530.76248 -19183977.83246  20747569.1414                   20747565.6094
 -22631248.44948 -17609947.00046  20800486.4454                   20800483.6134
 -30999252.35548 -24129778.31647  20676755.7424                   20676750.8134
 -24982856.12547 -19440631.90244  22790667.9384                   22790665.8484
 -10409741.96147  -8097841.25845  22268558.1804                   22268556.0354
  -9151409.81247  -7117147.07445  22738461.3834                   22738460.9144
 11  8 18  1  7 30.0000000  0  9G17G10G09G12G05G02G04G30G25
 -25402704.10946 -19770155.61344  23964678.9774                   23964678.5124
 -25852285.12547 -20122217.67246  21159854.1484                   21159852.0274
  -6874599.21546  -5331518.28143  24778297.1094                   24778298.9304
 -24691333.33648 -19215772.03946  20739804.4774                   20739801.0784
 -22709594.62548 -17670995.93746  20785577.3134                   20785574.3954
 -31000070.60948 -24130415.90646  20676599.8914                   20676595.2074
 -24920104.89847 -19391734.85544  22802609.3914                   22802607.1954
 -10496812.80947  -8165688.65245  22251989.5004                   22251986.7274
  -9249512.10547  -7193590.41845  22719793.3754                   22719792.9734
 11  8 18  1  8  0.0000000  0  8G17G10G12G05G02G04G30G25
 -25356049.71947 -19733801.57044  23973557.4064                   23973555.6174
 -25824353.43448 -20100452.71546  21165169.3984                   21165166.6174
 -24731485.48848 -19247059.42246  20732163.9924                   20732160.5554
 -22787358.82448 -17731591.37546  20770779.5634                   20770776.7234
 -31000603.35248 -24130831.02346  20676498.1024                   20676493.3364
 -24857254.10247 -19342760.23844  22814569.4534                   22814568.0474
 -10583314.71147  -8233092.69545  22235529.0634                   22235525.9534
  -9347151.96947  -7269673.41845  22701213.1564                   22701212.8324
 11  8 18  1  8 30.0000000  0  8G17G10G12G05G02G04G30G25
 -25309122.67647 -19697235.06244  23982487.0394                   23982485.6054
 -25795770.39848 -20078180.20746  21170608.2734                   21170605.9184
 -24770985.59448 -19277838.71146  20724647.1024                   20724643.5314
 -22864538.82848 -17791731.60946  20756092.8984                   20756089.4104
 -31000851.26248 -24131024.19546  20676451.0784                   20676446.5164
 -24794304.46947 -19293708.60244  22826548.4064                   22826546.6914
 -10669244.91047  -8300051.26645  22219176.6024                   22219173.6804
  -9444326.39847  -7345393.75045  22682721.0554                   22682720.9454
 11  8 18  1  9  0.0000000  0  8G17G10G12G05G02G04G30G25
 -25261922.65647 -19660455.87144  23991469.3054                   23991467.9344
 -25766537.93747 -20055401.65646  21176171.4064                   21176168.6334
 -24809832.95748 -19308109.37946  20717254.7894                   20717251.5664
 -22941132.86748 -17851415.23846  20741517.4384                   20741514.3754
 -31000815.59048 -24130996.38746  20676458.3364                   20676453.2504
 -24731257.35247 -19244580.99644  22838546.2344                   22838543.9384
 -10754601.29747  -8366562.69945  22202933.4384                   22202931.6844
  -9541033.04347  -7420749.55145  22664318.0004                   22664317.8754
 11  8 18  1  9 30.0000000  0  8G17G10G12G05G02G04G30G25
 -25214445.85547 -19623460.97344  24000503.3364                   24000502.6294
 -25736654.29348 -20032115.68446  21181857.8054                   21181855.3714
 -24848022.60948 -19337867.54346  20709987.3914                   20709984.1994
 -23017134.98048 -17910637.62146  20727054.2504                   20727051.3954
 -31000493.72748 -24130745.57046  20676519.4144                   20676514.3874
 -24668110.02047 -19195375.31644  22850562.4534                   22850560.6214
 -10839377.71547  -8432622.19145  22186801.1334                   22186799.1174
  -9637265.47347  -7495735.83245  22646005.7664                   22646005.3524
 11  8 18  1 10  0.0000000  0  8G17G10G12G05G02G04G30G25
 -25166690.90647 -19586249.33644  24009590.7814                   24009589.3714
 -25706119.60948 -20008322.41846  21187668.3054                   21187665.5514
 -24885552.23848 -19367111.40246  20702846.1334                   20702842.4804
 -23092542.25048 -17969396.50446  20712704.8134                   20712702.2194
 -30999885.20748 -24130271.40246  20676634.8444                   20676630.0864
 -24604862.33647 -19146091.43044  22862598.2034                   22862596.4184
 -10923570.41047  -8498226.84445  22170779.3364                   22170777.4024
  -9733019.67647  -7570349.47745  22627784.8524                   22627784.1994
 11  8 18  1 10 30.0000000  0  8G17G10G12G05G02G04G30G25
 -25118660.10247 -19548822.77044  24018730.7504                   24018729.5824
 -25674938.91448 -19984025.75846  21193601.9614                   21193599.6054
 -24922423.91048 -19395842.57846  20695829.3914                   20695825.9774
 -23167355.40248 -18027692.42646  20698468.4694                   20698465.4384
 -30998994.46948 -24129577.32046  20676804.6884                   20676799.7734
 -24541518.19147 -19096732.39144  22874652.1644                   22874650.7934
 -11007180.11347  -8563377.19945  22154868.9454                   22154867.0864
  -9828296.10547  -7644590.81645  22609654.2894                   22609654.0554
 11  8 18  1 11  0.0000000  0  8G17G10G12G05G02G04G30G25
 -25070356.01647 -19511183.23444  24027922.8054                   24027921.9104
 -25643116.32447 -19959228.93046  21199657.7274                   21199655.0784
 -24958638.84848 -19424061.99646  20688938.3134                   20688934.9614
 -23241574.82448 -18085525.71946  20684344.6954                   20684342.1764
 -30997824.50848 -24128665.64546  20677027.2114                   20677022.7934
 -24478081.27747 -19047301.06244  22886723.9454                   22886722.9104
 -11090206.79747  -8628073.26645  22139069.8284                   22139067.6804
  -9923094.50047  -7718459.66445  22591614.9774                   22591613.8404
 11  8 18  1 11 30.0000000  0  8G17G10G12G05G02G04G30G25
 -25021778.65646 -19473330.79744  24037166.3364                   24037166.2544
 -25610654.31647 -19933933.84446  21205835.3674                   21205832.1374
 -24994196.60948 -19451769.33246  20682171.8054                   20682168.0784
 -23315199.43748 -18142895.51246  20670334.4924                   20670331.5274
 -30996377.08248 -24127537.78146  20677302.5864                   20677297.6174
 -24414552.95347 -18997798.48844  22898813.1804                   22898811.2814
 -11172648.74247  -8692313.69945  22123381.5554                   22123379.6334
 -10017412.88347  -7791954.46145  22573666.6884                   22573665.4654
 11  8 18  1 12  0.0000000  0  8G17G10G12G05G02G04G30G25
 -24972929.17246 -19435266.26244  24046463.0234                   24046461.4024
 -25577555.94147 -19908142.89546  21212133.2034                   21212130.6334
 -25029097.53148 -19478964.85546  20675530.0474                   20675526.5234
 -23388228.46948 -18199801.22746  20656437.6094                   20656434.5554
 -30994654.51248 -24126195.50846  20677630.4844                   20677625.6564
 -24350935.85247 -18948226.75844  22910917.9384                   22910917.2734
 -11254504.91447  -8756097.66845  22107805.1094                   22107802.6414
 -10111249.92247  -7865074.17645  22555809.4534                   22555809.3324
 11  8 18  1 12 30.0000000  0  8G17G10G12G05G02G04G30G25
 -24923809.38346 -19396991.12543  24055809.0084                   24055808.3714
 -25543825.06247 -19881859.08646  21218552.2344                   21218549.5084
 -25063342.77048 -19505649.44147  20669013.2664                   20669009.8984
 -23460662.19548 -18256243.05147  20642653.8134                   20642651.0474
 -30992659.78148 -24124641.17646  20678010.4064                   20678005.5554
 -24287232.65247 -18898587.93444  22923041.1804                   22923039.8484
 -11335775.05947  -8819425.00845  22092340.1644                   22092337.5554
 -10204605.04747  -7937818.37945  22538044.9534                   22538044.4844
 11  8 18  1 13  0.0000000  0  8G17G10G12G05G02G04G30G25
 -24874420.30546 -19358506.12543  24065208.1334                   24065206.8794
 -25509464.81248 -19855084.85946  21225090.5784                   21225087.5434
 -25096932.82448 -19531823.51246  20662621.5314                   20662618.2194
 -23532500.03548 -18312220.55946  20628983.5084                   20628980.8794
 -30990394.68048 -24122876.15646  20678441.2664                   20678436.0204
 -24223445.54347 -18848883.70344  22935179.4454                   22935177.7234
 -11416458.16447  -8882294.91045  22076986.1334                   22076984.3244
 -10297476.86347  -8010185.98445  22520372.2344                   22520371.8284
 11  8 18  1 13 30.0000000  0  8G17G10G12G05G02G04G30G25
 -24824762.60246 -19319811.85243  24074657.1564                   24074656.1174
 -25474478.20748 -19827822.55146  21231748.3134                   21231745.7154
 -25129867.43748 -19557486.83246  20656354.3284                   20656350.9024
 -23603740.57048 -18367732.62547  20615426.7114                   20615424.1914
 -30987861.68048 -24120902.37946  20678923.3834                   20678918.4264
 -24159576.51647 -18799115.65644  22947333.4304                   22947332.1724
 -11496552.64847  -8944706.15645  22061744.1334                   22061742.4384
 -10389863.59448  -8082175.59845  22502791.0314                   22502790.3244
 11  8 18  1 14  0.0000000  0  8G17G10G12G05G02G04G30G25
 -24774836.96546 -19280908.76243  24084157.4454                   24084157.1644
 -25438867.84048 -19800074.21146  21238524.7814                   21238522.1524
 -25162146.62148 -19582639.43746  20650211.9144                   20650208.3054
 -23674383.00048 -18422778.65246  20601984.0164                   20601981.2464
 -30985062.37948 -24118721.10246  20679455.9844                   20679450.6954
 -24095627.57047 -18749285.32444  22959502.5864                   22959500.9494
 -11576057.21147  -9006657.72345  22046615.6954                   22046612.7194
 -10481763.62547  -8153785.94945  22485303.0474                   22485303.0704
 11  8 18  1 14 30.0000000  0  8G17G10G12G05G02G04G30G25
 -24724644.04346 -19241797.39143  24093709.6024                   24093709.7274
 -25402636.24648 -19771841.79346  21245419.8594                   21245417.1914
 -25193770.06648 -19607281.07847  20644194.0634                   20644190.5434
 -23744426.37948 -18477357.87546  20588655.2034                   20588652.4574
 -30981998.59448 -24116333.72746  20680038.7814                   20680033.7894
 -24031600.28147 -18699393.92644  22971686.5474                   22971684.3094
 -11654970.31647  -9068148.41045  22031598.4534                   22031596.5164
 -10573175.10247  -8225015.62145  22467908.2114                   22467908.2154
 11  8 18  1 15  0.0000000  0  8G17G10G12G05G02G04G30G25
 -24674184.07446 -19202477.95343  24103311.8054                   24103310.1954
 -25365785.95348 -19743127.28546  21252432.1644                   21252429.1994
 -25224737.80148 -19631411.77746  20638301.2034                   20638297.6804
 -23813869.53148 -18531469.39546  20575440.5554                   20575437.7424
 -30978671.74248 -24113741.36346  20680672.0394                   20680666.8524
 -23967496.05547 -18649442.58244  22983884.6484                   22983883.6374
 -11733290.32047  -9129176.96145  22016695.0084                   22016692.0434
 -10664095.97747  -8295863.00445  22450606.0084                   22450605.8404
 11  8 18  1 15 30.0000000  0  8G17G10G12G05G02G04G30G25
 -24623458.68046 -19162951.69543  24112964.9774                   24112963.5474
 -25328320.96148 -19713933.78145  21259561.5164                   21259558.8244
 -25255050.41848 -19655031.99246  20632533.1484                   20632529.4734
 -23882712.25848 -18585113.03947  20562340.1094                   20562337.3524
 -30975084.50448 -24110946.11346  20681354.5004                   20681349.4064
 -23903317.68447 -18599433.47344  22996097.7114                   22996095.7544
 -11811016.75047  -9189742.97745  22001903.3984                   22001900.9774
 -10754525.46947  -8366327.48045  22433398.2344                   22433397.7114
 11  8 18  1 16  0.0000000  0  8G17G10G12G05G02G04G30G25
 -24572468.25046 -19123218.90243  24122668.1564                   24122666.7664
 -25290244.01248 -19684263.42246  21266806.9144                   21266804.3404
 -25284708.55548 -19678142.22346  20626889.1334                   20626885.5434
 -23950953.80148 -18638288.23446  20549354.2424                   20549351.2194
 -30971238.68748 -24107949.36346  20682086.4774                   20682081.4924
 -23839066.95746 -18549367.96144  23008323.8444                   23008322.3984
 -11888148.31647  -9249845.46945  21987226.0634                   21987223.1374
 -10844461.87547  -8436407.74245  22416283.9384                   22416283.6954
 11  8 18  1 16 30.0000000  0  8G17G10G12G05G02G04G30G25
 -24521213.44946 -19083280.10543  24132421.2584                   24132420.1994
 -25251557.63348 -19654118.18046  21274168.8524                   21274166.2304
 -25313711.78948 -19700742.14146  20621369.7894                   20621366.6414
 -24018592.70748 -18690993.84447  20536482.8914                   20536480.4454
 -30967136.04748 -24104752.49646  20682867.2664                   20682861.9734
 -23774745.09846 -18499247.04344  23020563.7664                   23020562.1604
 -11964683.31647  -9309483.12545  21972662.3284                   21972659.4104
 -10933903.21947  -8506102.25445  22399263.8594                   22399263.3014
 11  8 18  1 17  0.0000000  0  8G17G10G12G05G02G04G30G25
 -22894278.04746 -17815538.25843  24442016.8594                   24442016.1804
 -23636847.42248 -18395902.42246  21581437.9224                   21581435.3754
 -23766640.66848 -18495232.17247  20915767.4844                   20915764.3134
 -22510207.80948 -17515628.95746  20823519.1174                   20823516.2544
 -29387359.78548 -22873758.00446  20983488.4224                   20983483.6484
 -22134937.86746 -17221475.18444  23332608.8134                   23332607.5514
 -10465199.40647  -8141054.09045  22258004.4774                   22258001.8554
  -9447426.43447  -7347808.62145  22682131.2424                   22682130.4654
 11  8 18  1 17 30.0000000  0  8G17G10G12G05G02G04G30G25
 -22842499.88346 -17775191.64844  24451869.9224                   24451868.1484
 -23596953.98847 -18364816.63746  21589029.3204                   21589026.8404
 -23794337.63348 -18516814.20747  20910497.2734                   20910493.5314
 -22576643.05148 -17567396.64847  20810876.5554                   20810874.2544
 -29382751.86348 -22870167.41046  20984365.4384                   20984360.6094
 -22070482.91846 -17171250.55144  23344874.1954                   23344872.9414
 -10540540.80947  -8199761.67645  22243667.6254                   22243665.0084
  -9535876.10947  -7416730.39845  22665299.6174                   22665298.8364
 11  8 18  1 18  0.0000000  0  9G17G10G29G12G05G02G04G30G25
 -22790461.44547 -17734642.22744  24461772.7274                   24461771.6914
 -23556461.81248 -18333264.29346  21596734.6564                   21596731.9414
   4582822.68056   3581453.83253  24782400.4144                   24782398.9614
 -23821381.96148 -18537887.70746  20905350.7194                   20905347.1884
 -22642475.16848 -17618694.36347  20798349.6644                   20798346.5274
 -29377894.23048 -22866382.23846  20985290.0314                   20985284.9964
 -22005964.27346 -17120976.29744  23357151.5944                   23357150.9534
 -10615283.76648  -8258002.94945  22229444.3914                   22229442.0744
  -9623827.77747  -7485264.12945  22648562.6644                   22648562.4224
 11  8 18  1 18 30.0000000  0  9G17G10G29G12G05G02G04G30G25
 -22738164.64547 -17693891.49644  24471724.0234                   24471724.0124
 -23515374.36747 -18301248.08646  21604553.1644                   21604550.8914
   4485619.05946   3505710.83643  24763902.8674                   24763901.2194
 -23847774.87948 -18558453.61746  20900328.3754                   20900324.6134
 -22707704.60948 -17669522.46947  20785936.5084                   20785933.9184
 -29372789.80148 -22862404.75446  20986261.0004                   20986255.8914
 -21941384.53146 -17070654.43744  23369441.3284                   23369440.3634
 -10689428.16047  -8315777.80545  22215334.9534                   22215332.8404
  -9711280.77747  -7553409.29745  22631920.8204                   22631920.4534
 11  8 18  1 19  0.0000000  0  9G17G10G29G12G05G02G04G30G25
 -22685614.49247 -17652943.35244  24481724.9614                   24481723.3204
 -23473699.46547 -18268774.13746  21612483.5084                   21612481.3054
   4388404.88746   3429959.62943  24745404.0944                   24745401.6604
 -23873521.01648 -18578515.53146  20895428.6884                   20895425.6994
 -22772334.96148 -17719883.73447  20773637.9064                   20773635.1994
 -29367444.71548 -22858239.73446  20987278.1174                   20987273.1214
 -21876750.14146 -17020289.98444  23381740.5634                   23381739.3984
 -10762977.03547  -8373088.61745  22201339.0314                   22201336.7854
  -9798237.87547  -7621168.04345  22615373.4534                   22615373.1564
 11  8 18  1 19 30.0000000  0  9G17G10G29G12G05G02G04G30G25
 -22632812.73847 -17611799.12544  24491772.1484                   24491771.3524
 -23431441.28548 -18235845.67646  21620525.3754                   21620522.7934
   4291178.81346   3354199.10543  24726901.9064                   24726900.9844
 -23898621.48848 -18598074.34846  20890652.3524                   20890649.3054
 -22836366.68748 -17769778.56247  20761453.2034                   20761450.4104
 -29361862.18748 -22853889.71146  20988340.3754                   20988335.3714
 -21812063.75847 -16969885.01244  23394050.1334                   23394048.8954
 -10835930.30947  -8429935.32845  22187456.7274                   22187454.2624
  -9884698.60547  -7688540.02345  22598920.6954                   22598920.2854
 11  8 18  1 20  0.0000000  0  9G17G10G29G12G05G02G04G30G25
 -22579758.66047 -17570458.33244  24501867.9144                   24501868.0824
 -23388601.41048 -18202463.94945  21628677.5084                   21628674.7624
   4193942.22346   3278430.39843  24708397.9924                   24708396.7234
 -23923075.73048 -18617129.60546  20885999.0634                   20885995.3794
 -22899797.53948 -17819205.16047  20749382.4224                   20749379.6374
 -29356042.10948 -22849354.58246  20989448.0474                   20989443.0744
 -21747325.84447 -16919439.89844  23406369.6564                   23406367.4494
 -10908285.48447  -8486315.99645  22173688.0474                   22173685.5274
  -9970659.99647  -7755522.92645  22582562.6334                   22582562.1994
 11  8 18  1 20 30.0000000  0  9G17G10G29G12G05G02G04G30G25
 -22526452.58646 -17528921.13744  24512012.0704                   24512010.8444
 -23345182.22347 -18168630.81246  21636939.9304                   21636937.4734
   4096695.49246   3202653.78143  24689893.0634                   24689891.6994
 -23946883.54348 -18635681.13746  20881468.3674                   20881465.2034
 -22962626.28148 -17868162.58647  20737426.6024                   20737423.5474
 -29349986.26648 -22844635.72346  20990600.5944                   20990595.3984
 -21682537.27747 -16868955.31244  23418698.0704                   23418696.0084
 -10980040.77047  -8542229.20345  22160033.2894                   22160031.0594
 -10056119.93047  -7822115.06645  22566300.0864                   22566300.0274
 11  8 18  1 21  0.0000000  0  9G17G10G29G12G05G02G04G30G25
 -22472893.93046 -17487187.12944  24522203.2734                   24522203.1254
 -23301185.57047 -18134347.69945  21645312.1414                   21645309.1484
   3999439.73046   3126870.14843  24671386.4144                   24671384.4774
 -23970043.61348 -18653727.95346  20877061.5704                   20877058.0084
 -23024850.96548 -17916649.31247  20725585.6954                   20725582.6334
 -29343694.67648 -22839733.18046  20991797.7274                   20991792.4734
 -21617698.65646 -16818431.71544  23431036.7584                   23431035.5594
 -11051193.67647  -8597673.02045  22146493.7344                   22146491.1174
 -10141075.45747  -7888314.17645  22550133.7974                   22550133.5784
 11  8 18  1 21 30.0000000  0  9G17G10G29G12G05G02G04G30G25
 -22419083.62146 -17445257.03544  24532443.0634                   24532443.1844
 -23256614.24648 -18099616.78545  21653794.0004                   21653791.1054
   3902174.77746   3051079.35243  24652877.1094                   24652875.5164
 -23992556.33248 -18671270.33246  20872777.1724                   20872774.1454
 -23086471.17248 -17964665.02747  20713859.7274                   20713856.8524
 -29337169.39848 -22834648.54746  20993039.2504                   20993034.4534
 -21552811.51246 -16767870.31244  23443384.2504                   23443382.6024
 -11121743.14147  -8652646.60945  22133068.3914                   22133065.9024
 -10225525.07447  -7954119.05545  22534063.2974                   22534062.7154
 11  8 18  1 22  0.0000000  0  9G17G10G29G12G05G02G04G30G25
 -22365021.24246 -17403130.55543  24542731.0394                   24542730.5474
 -23211470.57448 -18064439.89145  21662384.1564                   21662381.7504
   3804901.05946   2975281.71543  24634366.8284                   24634364.4694
 -24014421.09048 -18688307.80946  20868616.8754                   20868613.2424
 -23147485.27748 -18012208.45747  20702248.7504                   20702246.0664
 -29330411.59048 -22829382.71546  20994325.3754                   20994320.0824
 -21487876.67246 -16717271.73444  23455740.8284                   23455739.4884
 -11191687.28547  -8707148.51645  22119758.2584                   22119755.7584
 -10309466.39547  -8019527.87945  22518090.1024                   22518089.1174
 11  8 18  1 22 30.0000000  0  9G17G10G29G12G05G02G04G30G25
 -22310707.68746 -17360808.33243  24553066.4454                   24553065.5594
 -23165757.43048 -18028819.26245  21671083.2194                   21671080.5864
   3707619.10947   2899477.64544  24615854.0314                   24615852.6294
 -24035638.24248 -18704840.65646  20864579.0784                   20864576.1214
 -23207892.17248 -18059278.72347  20690754.1484                   20690751.3364
 -29323422.35948 -22823936.55546  20995655.2734                   20995650.2154
 -21422895.68746 -16666637.19944  23468106.0084                   23468104.7704
 -11261024.77047  -8761177.69145  22106564.1414                   22106561.1254
 -10392897.58647  -8084539.19145  22502213.2034                   22502213.3094
 11  8 18  1 23  0.0000000  0  9G17G10G29G12G05G02G04G30G25
 -22256143.94146 -17318291.17243  24563449.6564                   24563448.6174
 -23119477.94548 -17992757.32845  21679889.9144                   21679887.1454
   3610328.74647   2823666.98844  24597340.5944                   24597339.6484
 -24056208.50448 -18720869.43746  20860664.3444                   20860661.3674
 -23267691.53948 -18105875.60947  20679374.2734                   20679371.5704
 -29316203.50848 -22818311.46946  20997028.9304                   20997023.7274
 -21357870.16046 -16615967.92244  23480480.3284                   23480478.8014
 -11329754.38747  -8814733.21145  22093485.0314                   22093482.5234
 -10475817.16848  -8149151.84045  22486434.3674                   22486433.8244
 11  8 18  1 23 30.0000000  0  9G17G10G29G12G05G02G04G30G25
 -22201329.30146 -17275578.48843  24573880.7974                   24573879.8874
 -23072633.94547 -17956255.49245  21688803.8134                   21688801.3484
   3513030.93047   2747850.57044  24578825.3364                   24578823.4024
 -24076130.60248 -18736393.15646  20856873.6334                   20856870.3874
 -23326881.50048 -18151997.62147  20668110.8444                   20668107.9304
 -29308755.44948 -22812507.77746  20998446.7114                   20998441.4144
 -21292800.32847 -16565264.15244  23492862.7504                   23492860.8674
 -11397873.89847  -8867813.30545  22080522.4534                   22080519.7304
 -10558222.28147  -8213363.59445  22470753.3284                   22470752.7114
 11  8 18  1 24  0.0000000  0  9G17G10G29G12G05G02G04G30G25
 -22146264.09046 -17232670.53143  24584359.8524                   24584359.9384
 -23025228.03548 -17919315.81245  21697824.9844                   21697822.4024
   3415725.82447   2672028.47744  24560309.3834                   24560307.1214
 -24095405.18748 -18751412.31246  20853205.5314                   20853202.3754
 -23385461.43048 -18197644.29747  20656963.4774                   20656960.4534
 -29301079.92248 -22806526.83246  20999907.1484                   20999901.4064
 -21227687.74647 -16514527.06644  23505252.9144                   23505251.2664
 -11465382.09847  -8920417.04345  22067675.9144                   22067673.5554
 -10640111.30547  -8277173.21145  22455170.2114                   22455169.9104
 11  8 18  1 24 30.0000000  0  9G17G10G29G12G05G02G04G30G25
 -22090950.43046 -17189569.01243  24594885.3524                   24594884.6094
 -22977264.37548 -17881941.52345  21706952.1414                   21706949.4144
   3318412.36347   2596199.85544  24541790.8834                   24541787.9654
 -24114033.43448 -18765927.82846  20849660.9694                   20849657.7624
 -23443431.56648 -18242815.79347  20645932.3054                   20645929.0514
 -29293179.46948 -22800370.62946  21001410.4304                   21001405.4734
 -21162534.80947 -16463758.54344  23517651.3674                   23517649.6024
 -11532278.87147  -8972544.35545  22054946.0704                   22054943.4494
 -10721483.62547  -8340580.18045  22439685.3284                   22439685.1484
 11  8 18  1 25  0.0000000  0  8G10G29G12G05G02G04G30G25
 -22928744.90648 -17844134.13345  21716185.3284                   21716182.7274
   3221091.77046   2520365.67644  24523270.3284                   24523269.7274
 -24132014.66848 -18779939.17647  20846239.2664                   20846236.1454
 -23500790.17248 -18287510.77347  20635017.2114                   20635014.1414
 -29285054.87548 -22794039.76646  21002956.5864                   21002951.4884
 -21097342.09847 -16412959.01644  23530056.8444                   23530056.0004
 -11598561.97348  -9024193.46945  22042332.6564                   22042330.1844
 -10802336.54347  -8403582.41445  22424299.8364                   22424298.9654
 11  8 18  1 25 30.0000000  0  8G10G29G12G05G02G04G30G25
 -22879673.26248 -17805896.49245  21725523.3054                   21725520.8674
   3123763.52047   2444525.56644  24504750.0004                   24504748.0164
 -24149349.93448 -18793447.17646  20842940.4224                   20842937.3054
 -23557537.35948 -18331729.33247  20624218.2974                   20624215.5554
 -29276708.34048 -22787535.96146  21004544.5084                   21004539.9734
 -21032111.61347 -16362130.06244  23542470.3444                   23542468.8954
 -11664230.93448  -9075364.03945  22029836.0634                   22029833.5824
 -10882668.99247  -8466179.09045  22409013.3524                   22409012.6884
 11  8 18  1 26  0.0000000  0  8G10G29G12G05G02G04G30G25
 -22830049.04748 -17767228.26645  21734966.4614                   21734963.7624
   3026430.83247   2368681.98443  24486227.6254                   24486226.0204
 -24166036.27348 -18806449.51246  20839765.1334                   20839761.7664
 -23613669.32448 -18375468.48447  20613536.7424                   20613533.8204
 -29268137.59848 -22780857.45346  21006175.6724                   21006170.6684
 -20966841.32047 -16311270.08644  23554891.1094                   23554889.5044
 -11729281.49648  -9126052.75445  22017457.3674                   22017454.9534
 -10962476.25848  -8528366.52045  22393826.1254                   22393825.7624
 11  8 18  1 26 30.0000000  0  8G10G29G12G05G02G04G30G25
 -22779872.75448 -17728129.84445  21744514.4304                   21744511.8754
   2929096.90246   2292837.40243  24467706.0784                   24467703.8134
 -24182071.39548 -18818944.40646  20836713.9224                   20836710.5554
 -23669182.42648 -18418725.41847  20602973.2584                   20602970.0904
 -29259341.64548 -22774003.45346  21007849.1334                   21007844.6054
 -20901530.00847 -16260378.14544  23567319.6484                   23567317.5314
 -11793709.50848  -9176256.34045  22005197.1024                   22005194.2424
 -11041753.72347  -8590141.13345  22378739.6954                   22378739.5394
 11  8 18  1 27  0.0000000  0  8G10G29G12G05G02G04G30G25
 -22729148.20348 -17688604.21545  21754166.6644                   21754164.4184
   2831760.93046   2216991.25043  24449183.6094                   24449181.8054
 -24197456.75448 -18830932.98046  20833785.9694                   20833782.5124
 -23724076.89848 -18461500.29347  20592526.8754                   20592523.9414
 -29250322.97348 -22766975.89846  21009565.5234                   21009560.1524
 -20836179.77047 -16209455.86744  23579754.6644                   23579753.4734
 -11857514.82448  -9225974.73445  21993055.4614                   21993053.0084
 -11120500.73847  -8651502.38745  22363755.3284                   22363754.3524
 11  8 18  1 27 30.0000000  0  8G10G29G12G05G02G04G30G25
 -22677877.62948 -17648653.10545  21763923.6254                   21763920.9344
   2734423.61746   2141144.05943  24430660.7734                   24430658.9224
 -24212192.13748 -18842415.10246  20830982.0164                   20830978.5634
 -23778351.71948 -18503792.32447  20582198.6564                   20582195.7274
 -29241082.40248 -22759775.44146  21011323.9844                   21011319.3634
 -20770791.33646 -16158503.83244  23592197.4694                   23592196.2664
 -11920695.83248  -9275206.65245  21981032.6414                   21981029.8524
 -11198714.99647  -8712448.52346  22348871.1954                   22348870.9654
 11  8 18  1 28  0.0000000  0  8G10G29G12G05G02G04G30G25
 -22626066.00048 -17608280.40245  21773783.2584                   21773780.8984
   2637083.62546   2065294.78943  24412137.6724                   24412136.1914
 -24226279.78148 -18853392.47346  20828301.1644                   20828297.5514
 -23832008.19548 -18545602.52347  20571988.2424                   20571984.9184
 -29231623.25048 -22752404.66446  21013123.9384                   21013119.0744
 -20705367.85246 -16107524.48444  23604647.5394                   23604645.7854
 -11983253.16448  -9323952.59445  21969127.9224                   21969125.3594
 -11276396.73447  -8772979.69545  22334089.0004                   22334087.8834
 11  8 18  1 28 30.0000000  0  8G10G29G12G05G02G04G30G25
 -22573716.40247 -17567488.51245  21783744.9224                   21783742.2704
   2539740.87546   1989443.35244  24393613.4224                   24393612.2424
 -24239720.43748 -18863865.70346  20825743.6024                   20825740.1294
 -23885045.75848 -18586930.46547  20561895.6954                   20561892.4494
 -29221947.31648 -22744864.96546  21014965.2344                   21014960.3714
 -20639910.77046 -16056518.96144  23617103.2274                   23617101.8054
 -12045186.06648  -9372211.96545  21957342.9144                   21957340.1914
 -11353544.53947  -8833094.82446  22319408.0704                   22319407.2894
 11  8 18  1 29  0.0000000  0  8G10G29G12G05G02G04G30G25
 -22520833.23847 -17526280.84845  21793807.8444                   21793805.3984
   2442394.23446   1913588.86344  24375089.6254                   24375087.5084
 -24252515.80148 -18873836.10547  20823308.5084                   20823305.4494
 -23937465.23448 -18627776.77747  20551920.4614                   20551917.6724
 -29212057.34448 -22737158.47746  21016847.2734                   21016841.8794
 -20574422.68047 -16005489.28944  23629565.2584                   23629563.8014
 -12106494.57448  -9419984.80945  21945675.7974                   21945673.1604
 -11430158.05548  -8892793.63346  22304829.3284                   22304828.3094
 11  8 18  1 29 30.0000000  0  8G10G29G12G05G02G04G30G25
 -22467419.68448 -17484659.88745  21803972.4144                   21803969.6884
   2345043.34846   1837731.12144  24356563.9064                   24356561.8014
 -24264666.64848 -18883304.28946  20820996.3204                   20820993.0784
 -23989266.43048 -18668141.30947  20542062.9454                   20542060.1294
 -29201954.77048 -22729286.33646  21018769.8594                   21018764.8484
 -20508905.12147 -15954436.66844  23642033.1644                   23642031.2384
 -12167178.07448  -9467270.64145  21934128.4454                   21934125.8204
 -11506236.01648  -8952075.12146  22290352.1024                   22290350.7814
 11  8 18  1 30  0.0000000  0  8G10G29G12G05G02G04G30G25
 -22413479.74247 -17442628.75845  21814236.9224                   21814234.5744
   2247687.77346   1761869.69144  24338038.1954                   24338036.9384
 -24276174.68048 -18892271.58646  20818806.6804                   20818803.0704
 -24040449.77348 -18708024.39547  20532322.9304                   20532319.5554
 -29191642.12148 -22721250.49646  21020731.9774                   21020727.0124
 -20443360.63347 -15903363.04743  23654505.3984                   23654504.0664
 -12227236.60948  -9514069.48845  21922699.4454                   21922697.1374
 -11581777.96147  -9010938.94146  22275976.8754                   22275976.5004
 11  8 18  1 30 30.0000000  0  8G10G29G12G05G02G04G30G25
 -22359016.28948 -17400189.69145  21824601.1174                   21824598.2734
   2150328.23046   1686005.16444  24319510.3984                   24319510.0434
 -24287039.87148 -18900737.96546  20816738.9224                   20816735.3984
 -24091014.52748 -18747425.46947  20522700.7664                   20522698.0274
 -29181120.48048 -22713051.80546  21022734.5234                   21022729.2814
 -20377789.70347 -15852268.82844  23666984.5314                   23666982.1644
 -12286668.71548  -9560380.20345  21911389.8914                   21911387.6294
 -11656781.72347  -9069383.39546  22261704.3984                   22261703.7074
 11  8 18  1 31  0.0000000  0  8G10G29G12G05G02G04G30G25
 -22304032.28948 -17357345.00045  21835064.1174                   21835061.4414
   2052964.95746   1610137.74244  24300982.8834                   24300982.2384
 -24297262.84848 -18908703.92246  20814793.5944                   20814790.2704
 -24140960.03548 -18786344.01647  20513196.5004                   20513193.2154
 -29170391.43748 -22704691.50846  21024776.0474                   21024770.8134
 -20312193.71147 -15801155.07444  23679465.6884                   23679463.8204
 -12345473.27348  -9606201.93445  21900200.0784                   21900197.2814
 -11731245.77747  -9127407.30146  22247533.6174                   22247533.2774
 11  8 18  1 31 30.0000000  0  8G10G29G12G05G02G04G30G25
 -22248531.23848 -17314097.42645  21845625.2584                   21845622.5434
   1955597.51646   1534267.07844  24282454.3754                   24282453.0354
 -24306844.93748 -18916170.48446  20812970.2274                   20812966.6724
 -24190286.28148 -18824780.01647  20503810.2034                   20503807.0664
 -29159457.05148 -22696171.19546  21026856.5394                   21026851.4534
 -20246574.50847 -15750023.24643  23691953.0634                   23691951.3404
 -12403650.23048  -9651534.62145  21889129.4694                   21889126.4964
 -11805169.34848  -9185010.05946  22233466.6414                   22233465.9884
 11  8 18  1 32  0.0000000  0  8G10G29G12G05G02G04G30G25
 -22192516.11748 -17270449.27045  21856285.0394                   21856282.1024
   1858226.46146   1458393.60544  24263925.6644                   24263922.8244
 -24315786.67248 -18923138.08247  20811268.8204                   20811265.2664
 -24238993.43748 -18862733.60547  20494541.5004                   20494538.1174
 -29148318.42648 -22687491.73446  21028976.2274                   21028971.4884
 -20180933.36347 -15698874.31644  23704444.2274                   23704442.1804
 -12461198.49248  -9696377.41445  21878177.6724                   21878175.4734
 -11878550.77748  -9242190.37546  22219502.7034                   22219501.9774
 11  8 18  1 32 30.0000000  0  8G10G29G12G05G02G04G30G25
 -22135991.47748 -17226404.08245  21867040.9614                   21867038.8204
   1760850.58646   1382516.37544  24245395.7664                   24245393.5124
 -24324090.25048 -18929608.39546  20809688.5394                   20809685.5664
 -24287082.01248 -18900205.19547  20485390.1954                   20485387.3364
 -29136978.40648 -22678655.35546  21031134.3834                   21031129.0594
 -20115272.51247 -15647710.03543  23716939.2814                   23716936.5274
 -12518118.36348  -9740730.55145  21867346.8984                   21867344.0664
 -11951389.80148  -9298948.03946  22205641.9064                   22205641.1724
 11  8 18  1 33  0.0000000  0  8G10G29G12G05G02G04G30G25
 -22078960.13348 -17181964.06645  21877893.6564                   21877891.0354
   1663470.57046   1306635.94944  24226864.6484                   24226862.3164
 -24331755.91848 -18935581.65246  20808229.6334                   20808226.3244
 -24334551.41448 -18937194.31647  20476356.9304                   20476354.0164
 -29125437.94148 -22669662.77746  21033330.7274                   21033325.6604
 -20049593.07447 -15596531.29343  23729437.1254                   23729434.6884
 -12574408.77347  -9784593.20345  21856634.8914                   21856632.1024
 -12023684.71148  -9355281.71146  22191884.7114                   22191883.9614
 11  8 18  1 33 30.0000000  0  8G10G29G12G05G02G04G30G25
 -22021424.51648 -17137131.10545  21888842.6414                   21888839.7734
   1566087.50046   1230753.11344  24208333.1334                   24208331.7704
 -24338783.87548 -18941057.99246  20806892.6804                   20806889.2894
 -24381400.92648 -18973700.39847  20467442.1094                   20467439.2584
 -29113697.98448 -22660514.74646  21035564.5234                   21035559.8164
 -19983895.41847 -15545338.30943  23741939.6024                   23741937.7074
 -12630068.29348  -9827964.25445  21846043.3134                   21846040.5904
 -12095433.37948  -9411189.75446  22178231.2274                   22178230.5824
 11  8 18  1 34  0.0000000  0  8G10G29G12G05G02G04G30G25
 -21963388.50848 -17091908.23445  21899886.4694                   21899884.0864
   1468701.03146   1154867.59843  24189801.2504                   24189799.8244
 -24345175.38748 -18946038.39846  20805675.9844                   20805672.8524
 -24427630.38748 -19009723.31647  20458644.6644                   20458641.7664
 -29101760.41848 -22651212.74646  21037836.1954                   21037831.0204
 -19918181.35547 -15494132.57044  23754444.1174                   23754442.6764
 -12685096.49248  -9870843.37545  21835571.5864                   21835568.5124
 -12166634.89548  -9466671.45346  22164681.9384                   22164681.1604
 11  8 18  1 34 30.0000000  0  8G10G29G12G05G02G04G30G25
 -21904853.91847 -17046296.84845  21911024.9694                   21911022.4884
   1371312.33247   1078980.33644  24171269.0084                   24171266.8594
 -24350930.12948 -18950522.61746  20804580.8134                   20804577.8954
 -24473238.96148 -19045262.43447  20449966.0864                   20449962.7114
 -29089625.83248 -22641757.21146  21040145.0084                   21040140.0554
 -19852451.33647 -15442914.39144  23766952.8284                   23766950.3834
 -12739491.89548  -9913229.40645  21825220.6644                   21825217.7584
 -12237287.07848  -9521725.09446  22151237.1644                   22151236.8754
 11  8 18  1 35  0.0000000  0  8G10G29G12G05G02G04G30G25
 -21845825.08648 -17000300.34045  21922257.8914                   21922255.1884
   1273921.13747   1003091.10943  24152735.7734                   24152732.5744
 -24356050.36348 -18954512.42646  20803606.8754                   20803603.2274
 -24518227.12148 -19080318.11747  20441405.0314                   20441401.8554
 -29077296.41048 -22632149.86346  21042491.6804                   21042486.4844
 -19786707.19146 -15391685.20744  23779462.9774                   23779460.8634
 -12793254.48448  -9955122.33645  21814989.7504                   21814987.6094
 -12307389.24248  -9576350.15246  22137897.4304                   22137896.7894
 11  8 18  1 35 30.0000000  0  8G10G29G12G05G02G04G30G25
 -21786305.51248 -16953921.44945  21933583.6414                   21933581.5234
   1176527.30947    927199.79343  24134202.8054                   24134198.5744
 -24360536.91848 -18958008.45346  20802752.5554                   20802749.7504
 -24562594.98048 -19114890.44147  20432961.8594                   20432959.1294
 -29064773.94548 -22622392.08646  21044874.1484                   21044869.3284
 -19720950.46146 -15340446.23843  23791976.0314                   23791975.2624
 -12846383.99248  -9996521.96145  21804879.8284                   21804877.2464
 -12376940.45748  -9630545.90246  22124662.2274                   22124661.7074
 11  8 18  1 36  0.0000000  0  8G10G29G12G05G02G04G30G25
 -21726298.89147 -16907163.03945  21945002.5864                   21945000.0744
   1079130.52047    851306.21144  24115668.7974                   24115665.5004
 -24364391.49648 -18961012.03546  20802019.3834                   20802016.0554
 -24606343.14848 -19148979.89147  20424637.0474                   20424634.1334
 -29052060.56648 -22612485.55146  21047293.3524                   21047288.3674
 -19655183.11346 -15289198.98844  23804490.9304                   23804489.6724
 -12898880.30148 -10037428.16845  21794889.7504                   21794887.5704
 -12445939.98448  -9684311.76646  22111532.4144                   22111531.2234
 11  8 18  1 36 30.0000000  0  8G10G29G12G05G02G04G30G25
 -21665809.69148 -16860028.59445  21956513.4534                   21956510.9804
    981729.94547    775409.69144  24097134.0004                   24097130.2704
 -24367615.94548 -18963524.60246  20801405.7504                   20801402.4774
 -24649472.66448 -19182587.27747  20416429.6414                   20416426.4414
 -29039158.65248 -22602432.09446  21049748.8594                   21049743.8444
 -19589407.41846 -15237945.19943  23817008.1724                   23817006.3134
 -12950743.76648 -10077841.26645  21785020.4614                   21785017.9304
 -12514387.55948  -9737647.53546  22098506.7814                   22098506.3014
 11  8 18  1 37  0.0000000  0  8G10G29G12G05G02G04G30G25
 -21604840.26247 -16812519.94545  21968115.5474                   21968113.1604
    884326.83646    699511.21144  24078599.0394                   24078596.5354
 -24370210.58248 -18965546.40246  20800912.0314                   20800908.8524
 -24691982.39148 -19215711.71147  20408340.2274                   20408336.9024
 -29026068.94548 -22592232.31646  21052239.6094                   21052234.3284
 -19523623.59047 -15186685.06643  23829525.6804                   23829524.5554
 -13001973.12148 -10117760.25045  21775271.9774                   21775269.5044
 -12582281.12148  -9790551.61346  22085587.0394                   22085586.5204
 11  8 18  1 37 30.0000000  0  8G10G29G12G05G02G04G30G25
 -21543392.76247 -16764638.77045  21979808.7894                   21979805.8714
    786922.61747    623611.87144  24060062.4454                   24060060.9414
 -24372175.00448 -18967077.12546  20800538.3594                   20800535.1914
 -24733871.19948 -19248352.31647  20400368.7344                   20400366.1994
 -29012791.55148 -22581886.28146  21054766.1484                   21054761.4024
 -19457831.62546 -15135418.61343  23842045.5314                   23842044.3244
 -13052566.49248 -10157183.65646  21765644.2584                   21765641.5084
 -12649618.23048  -9843022.08246  22072773.2274                   22072773.0594
 11  8 18  1 38  0.0000000  0  8G10G29G12G05G02G04G30G25
 -21481470.59448 -16716387.72345  21991591.9694                   21991589.2894
    689517.26246    547711.66044  24041526.9304                   24041525.6054
 -24373510.88748 -18968118.08246  20800283.6724                   20800280.5744
 -24775139.52748 -19280509.43047  20392516.0164                   20392512.9924
 -28999328.25448 -22571395.38746  21057328.3284                   21057323.5004
 -19392033.34046 -15084147.20344  23854567.2034                   23854566.0514
 -13102523.76248 -10196111.41045  21756137.8284                   21756135.2074
 -12716397.97748  -9895058.24246  22060065.4924                   22060064.6054
 11  8 18  1 38 30.0000000  0  8G10G29G12G05G02G04G30G25
 -21419077.26648 -16667769.52745  22003465.4384                   22003462.4304
    592110.82446    471810.60944  24022990.9454                   24022989.7624
 -24374219.21548 -18968670.02746  20800148.8984                   20800145.9574
 -24815787.30548 -19312182.99647  20384780.9304                   20384777.7774
 -28985680.78948 -22560760.99246  21059925.5234                   21059919.9654
 -19326229.73046 -15032871.66843  23867088.6024                   23867086.7774
 -13151844.45747 -10234543.12145  21746752.8284                   21746750.0664
 -12782619.28548  -9946659.25446  22047464.1334                   22047463.2974
 11  8 18  1 39  0.0000000  0  8G10G29G12G05G02G04G30G25
 -21356216.64147 -16618787.21945  22015427.1804                   22015424.7304
    494703.54346    395908.87144  24004454.7114                   24004453.9384
 -24374301.83648 -18968734.40646  20800133.5704                   20800130.1174
 -24855814.80148 -19343373.22347  20377163.8444                   20377160.8674
 -28971850.61348 -22549984.23046  21062556.9694                   21062552.0434
 -19260422.39147 -14981593.18743  23879611.1484                   23879609.8794
 -13200528.34048 -10272478.62146  21737488.6414                   21737485.9494
 -12848281.17648  -9997824.35246  22034969.0234                   22034968.3834
 11  8 18  1 39 30.0000000  0  8G10G29G12G05G02G04G30G25
 -21292891.77747 -16569443.17645  22027477.4774                   22027475.2194
    397295.80146    320006.79344  23985918.0164                   23985917.3754
 -24373759.56248 -18968311.85946  20800236.6954                   20800233.3794
 -24895222.39848 -19374080.41047  20369664.9614                   20369661.6374
 -28957839.19548 -22539066.23846  21065223.1484                   21065218.0824
 -19194612.49247 -14930312.70743  23892134.5314                   23892133.4264
 -13248575.03547 -10309917.60245  21728345.4924                   21728343.0704
 -12913382.56248 -10048552.69946  22022580.7424                   22022579.7974
 11  8 18  1 40  0.0000000  0  8G10G29G12G05G02G04G30G25
 -21229104.25047 -16519738.61345  22039615.7504                   22039613.5944
    299889.57046    244105.87144  23967383.9064                   23967381.8634
 -24372591.41848 -18967401.60546  20800459.1414                   20800455.6804
 -24934008.19548 -19404303.08647  20362283.8754                   20362281.0944
 -28943646.33248 -22528006.85546  21067924.1024                   21067918.8594
 -19128799.57047 -14879029.86743  23904658.3364                   23904656.9064
 -13295982.48847 -10346858.47345  21719324.1024                   21719321.2304
 -12977920.73448 -10098842.17246  22010299.6174                   22010298.4144
 11  8 18  1 40 30.0000000  0  8G10G29G12G05G02G04G30G25
 -21164857.64847 -16469676.33245  22051841.8054                   22051839.1724
    202485.50846    168206.59844  23948848.2114                   23948845.9064
 -24370799.56248 -18966005.35246  20800799.8834                   20800797.0474
 -24972172.74248 -19434041.66447  20355021.4064                   20355018.6884
 -28929273.62148 -22516807.32846  21070659.1954                   21070653.6254
 -19062984.68747 -14827745.53943  23917182.4454                   23917180.7584
 -13342750.34847 -10383300.94946  21710424.6024                   21710421.8324
 -13041894.50448 -10148691.85946  21998125.6414                   21998125.1724
 11  8 18  1 41  0.0000000  0  8G10G29G12G05G02G04G30G25
 -21100157.67647 -16419260.76245  22064153.3134                   22064151.1294
    105081.06646     92307.03144  23930312.9694                   23930310.2934
 -24368387.42648 -18964125.75446  20801259.1804                   20801255.6804
 -25009718.32848 -19463297.93747  20347876.8204                   20347873.6914
 -28914724.57048 -22505470.40246  21073427.9844                   21073422.6484
 -18997171.50447 -14776462.52743  23929706.6884                   23929704.6454
 -13388880.54747 -10419246.54346  21701645.9614                   21701643.5124
 -13105305.17648 -10198102.76646  21986059.1724                   21986058.2734
 11  8 18  1 41 30.0000000  0  8G10G29G12G05G02G04G30G25
 -21035005.44147 -16368492.78945  22076551.7114                   22076549.0554
      7679.29347     16409.50844  23911778.0084                   23911775.7034
 -24365353.91048 -18961761.96946  20801836.4924                   20801832.8404
 -25046643.05548 -19492070.42647  20340850.3674                   20340847.3954
 -28899998.82448 -22493995.80146  21076229.9614                   21076224.7934
 -18931358.95747 -14725180.00043  23942229.9694                   23942228.8794
 -13434370.59448 -10454693.32445  21692989.8284                   21692986.7894
 -13168149.52048 -10247072.36346  21974100.3054                   21974099.7194
 11  8 18  1 42  0.0000000  0  8G10G29G12G05G02G04G30G25
 -20969403.98047 -16317374.75845  22089035.3444                   22089032.6564
    -89719.20347    -59485.45744  23893243.4224                   23893241.1914
 -24361699.15648 -18958914.09446  20802531.6954                   20802528.5274
 -25082946.69548 -19520358.94947  20333941.6484                   20333938.5704
 -28885097.12948 -22482384.08646  21079065.4064                   21079060.5164
 -18865547.99246 -14673898.71943  23954753.3284                   23954752.3094
 -13479219.89847 -10489640.80145  21684454.7424                   21684452.0704
 -13230426.12948 -10295599.58646  21962249.2974                   21962248.6804
 11  8 18  1 42 30.0000000  0  8G10G29G12G05G02G04G30G25
 -20903357.02347 -16265909.60245  22101603.1884                   22101601.0234
   -187114.43747   -135377.89844  23874710.2344                   23874707.9844
 -24357425.83248 -18955584.22746  20803344.7424                   20803341.6024
 -25118629.83648 -19548163.96147  20327151.6024                   20327148.7344
 -28870021.17248 -22470636.58246  21081934.3364                   21081929.0514
 -18799739.84046 -14622619.61743  23967276.7424                   23967275.2274
 -13523428.49647 -10524089.02045  21676042.3834                   21676039.8594
 -13292134.35548 -10343683.89546  21950506.5704                   21950506.2424
 11  8 18  1 43  0.0000000  0  8G10G29G12G05G02G04G30G25
 -20836870.50447 -16214101.91445  22114255.7194                   22114252.5124
   -284508.89547   -211269.69544  23856176.2974                   23856173.9304
 -24352538.15648 -18951775.63746  20804274.9694                   20804271.7704
 -25153695.37948 -19575487.73047  20320478.7504                   20320475.9344
 -28854775.16048 -22458756.57046  21084835.6954                   21084830.8984
 -18733938.52746 -14571345.86343  23979797.2424                   23979795.9494
 -13566998.72347 -10558039.81646  21667751.3984                   21667748.5274
 -13353275.79348 -10391326.54746  21938871.7814                   21938871.2194
 11  8 18  1 43 30.0000000  0  8G10G29G12G05G02G04G30G25
 -20769945.14847 -16161952.26645  22126990.7194                   22126987.7194
   -381899.24647   -287158.27344  23837643.2114                   23837640.9344
 -24347034.35548 -18947486.96546  20805322.2194                   20805319.3094
 -25188140.91848 -19602328.38347  20313924.1564                   20313920.8714
 -28839357.87948 -22446743.10246  21087769.3834                   21087764.7704
 -18668142.20746 -14520076.02743  23992319.4774                   23992316.6724
 -13609927.69947 -10591490.92645  21659581.7194                   21659579.3134
 -13413846.68448 -10438524.62546  21927345.5554                   21927345.0124
 11  8 18  1 44  0.0000000  0  8G10G29G12G05G02G04G30G25
 -20702585.03547 -16109463.85545  22139809.1724                   22139806.1684
   -479285.94947   -363043.99244  23819111.5474                   23819109.1954
 -24340916.65648 -18942719.91846  20806486.3364                   20806483.4344
 -25221967.80548 -19628686.96547  20307486.8984                   20307484.0474
 -28823771.18448 -22434597.61746  21090735.6484                   21090731.0664
 -18602353.03946 -14468811.75844  24004838.2034                   24004837.0124
 -13652215.93048 -10624442.75445  21651534.5634                   21651532.4804
 -13473846.89548 -10485278.00446  21915927.6564                   21915927.4734
 11  8 18  1 44 30.0000000  0  8G10G29G12G05G02G04G30G25
 -20634792.89847 -16056638.78945  22152709.7814                   22152706.8714
   -576667.51647   -438925.69944  23800580.3524                   23800577.9344
 -24334185.18448 -18937474.61746  20807767.5554                   20807764.0314
 -25255175.37548 -19654562.96947  20301167.7894                   20301164.7034
 -28808015.63748 -22422320.56646  21093733.6334                   21093728.9574
 -18536571.00046 -14417553.06243  24017355.6724                   24017354.7384
 -13693862.40648 -10656894.52046  21643609.8204                   21643607.1954
 -13533274.61748 -10531585.28546  21904618.9924                   21904618.1294
 11  8 18  1 45  0.0000000  0  8G10G29G12G05G02G04G30G25
 -20566571.35247 -16003479.13745  22165691.6804                   22165689.0824
   -674042.73447   -514802.46144  23782049.9304                   23782048.2934
 -24326841.20348 -18931752.04346  20809165.0394                   20809162.0434
 -25287762.73448 -19679955.69547  20294966.8524                   20294963.4264
 -28792091.98048 -22409912.51646  21096763.7814                   21096759.0434
 -18470796.44146 -14366300.19543  24029871.9614                   24029871.4694
 -13734866.20348 -10688845.49246  21635806.6024                   21635804.3014
 -13592128.04748 -10577445.06246  21893419.4224                   21893418.2384
 11  8 18  1 45 30.0000000  0  8G10G29G12G05G02G04G30G25
 -20497925.10247 -15949988.53545  22178754.5704                   22178752.4774
   -771412.57847   -590674.97344  23763521.2734                   23763519.5164
 -24318887.10548 -18925554.05146  20810678.5234                   20810675.1604
 -25319731.93048 -19704866.73047  20288883.0314                   20288880.1764
 -28776002.84448 -22397375.52046  21099825.5864                   21099820.1644
 -18405031.58246 -14315054.87143  24042386.9224                   24042385.9454
 -13775228.33248 -10720296.46546  21628126.1724                   21628123.2114
 -13650407.51248 -10622857.59846  21882329.3204                   21882328.6564
 11  8 18  1 46  0.0000000  0  8G10G29G12G05G02G04G30G25
 -20428857.51647 -15896169.63745  22191897.7734                   22191895.1214
   -868776.51247   -666542.91444  23744993.6804                   23744991.9104
 -24310324.66448 -18918882.02746  20812307.9774                   20812304.8014
 -25351083.41048 -19729296.43747  20282917.1644                   20282914.1844
 -28759749.46148 -22384710.53146  21102918.5704                   21102913.2584
 -18339277.82846 -14263818.21143  24054899.2034                   24054898.4964
 -13814949.02348 -10751247.61345  21620567.3754                   21620565.0744
 -13708112.36748 -10667822.37946  21871348.4924                   21871347.9144
 11  8 18  1 46 30.0000000  0  8G10G29G12G05G02G04G30G25
 -20359371.80947 -15842024.91445  22205119.9064                   22205117.6294
   -966133.68747   -742405.59044  23726467.2814                   23726465.0474
 -24301154.96148 -18911736.81646  20814053.0004                   20814049.6724
 -25381817.69948 -19753245.21147  20277068.5164                   20277065.5664
 -28743333.00448 -22371918.47746  21106042.5944                   21106037.6294
 -18273535.89546 -14212590.76643  24067409.4774                   24067408.4344
 -13854027.84848 -10781698.62145  21613131.2584                   21613128.5784
 -13765241.42648 -10712338.48846  21860477.4064                   21860476.5084
 11  8 18  1 47  0.0000000  0  8G10G29G12G05G02G04G30G25
 -20289470.68447 -15787556.49245  22218422.1254                   22218419.3914
  -1063483.36347   -818262.41044  23707942.3444                   23707940.1174
 -24291379.08648 -18904119.26646  20815913.2114                   20815910.0514
 -25411934.15648 -19776712.55147  20271337.6724                   20271334.6414
 -28726754.39848 -22359000.07046  21109197.0944                   21109192.4614
 -18207806.31646 -14161372.94143  24079917.9454                   24079916.3834
 -13892464.12948 -10811648.94145  21605816.8054                   21605814.3754
 -13821793.22748 -10756404.78946  21849715.1334                   21849714.2774
 11  8 18  1 47 30.0000000  0  8G10G29G12G05G02G04G30G25
 -20219157.07447 -15732766.65645  22231802.6094                   22231799.4964
  -1160824.12947   -894112.26644  23689419.2974                   23689416.4844
 -24280997.88348 -18896030.03546  20817888.9384                   20817885.4454
 -25441432.76648 -19799698.46547  20265724.1254                   20265721.1334
 -28710013.94148 -22345955.55546  21112382.7814                   21112377.8874
 -18142089.18446 -14110164.81643  24092423.6564                   24092422.1294
 -13930257.25048 -10841098.10546  21598625.2664                   21598622.6914
 -13877766.29748 -10800020.12946  21839064.2664                   21839063.2424
 11  8 18  1 48  0.0000000  0  8G10G29G12G05G02G04G30G25
 -20148434.84847 -15677658.41845  22245260.5554                   22245257.4184
  -1258155.74247   -969955.00044  23670896.9224                   23670894.0314
 -24270013.34048 -18887470.66046  20819978.8054                   20819976.0704
 -25470314.75048 -19822203.89147  20260227.9844                   20260225.0164
 -28693113.58248 -22332786.43046  21115598.6094                   21115593.7424
 -18076386.10946 -14058967.62944  24104926.4924                   24104925.2854
 -13967407.51648 -10870046.35946  21591555.5944                   21591553.1484
 -13933160.15648 -10843184.13346  21828523.0234                   21828522.2584
 11  8 18  1 48 30.0000000  0  8G10G29G12G05G02G04G30G25
 -20077307.71147 -15622234.66045  22258795.5084                   22258792.5554
  -1355478.06647  -1045790.50844  23652377.6884                   23652374.2974
 -24258427.31648 -18878442.60546  20822184.0944                   20822180.9064
 -25498580.59448 -19844229.19947  20254849.1094                   20254846.0944
 -28676054.89847 -22319493.93746  21118844.9304                   21118839.9734
 -18010698.30947 -14007782.34444  24117426.4614                   24117425.1054
 -14003915.18748 -10898493.87946  21584608.6484                   21584605.9104
 -13987974.21948 -10885896.36346  21818092.3284                   21818091.7664
 11  8 18  1 49  0.0000000  0  8G10G29G12G05G02G04G30G25
 -20005778.10547 -15566497.29345  22272407.1644                   22272404.1414
  -1452790.27046  -1121618.14144  23633858.7814                   23633856.3714
 -24246240.78548 -18868946.62946  20824502.6174                   20824499.6524
 -25526230.03548 -19865774.19947  20249587.6254                   20249584.6094
 -28658838.55548 -22306078.59046  21122120.9774                   21122115.8364
 -17945026.15246 -13956609.25043  24129922.9304                   24129921.8484
 -14039779.82048 -10926440.35546  21577783.7664                   21577780.8914
 -14042207.19948 -10928155.79746  21807771.8204                   21807771.2304
 11  8 18  1 49 30.0000000  0  8G10G29G12G05G02G04G30G25
 -19933849.43047 -15510448.96545  22286094.6804                   22286092.0084
  -1550091.24247  -1197436.95744  23615343.5704                   23615341.0944
 -24233455.41848 -18858984.02746  20826935.8524                   20826932.8094
 -25553263.68448 -19886839.35947  20244442.9614                   20244439.7934
 -28641465.62148 -22292541.21946  21125427.0554                   21125421.9344
 -17879370.69946 -13905449.14843  24142416.3834                   24142415.1684
 -14075001.30548 -10953885.67246  21571081.4224                   21571078.5704
 -14095858.18748 -10969961.73846  21797562.8134                   21797561.7974
 11  8 18  1 50  0.0000000  0  8G10G29G12G05G02G04G30G25
 -19861525.36347 -15454092.54745  22299857.2194                   22299854.5514
  -1647380.38347  -1273246.64144  23596829.8204                   23596827.0634
 -24220072.93748 -18848556.12546  20829482.4304                   20829479.2114
 -25579682.22348 -19907425.21547  20239415.9534                   20239412.7504
 -28623937.33248 -22278882.78546  21128762.6094                   21128757.2194
 -17813732.89846 -13854302.82843  24154907.6414                   24154906.2504
 -14109579.68048 -10980829.87545  21564501.0704                   21564498.5944
 -14148926.41448 -11011313.59046  21787463.9384                   21787463.1414
 11  8 18  1 50 30.0000000  0  8G10G29G12G05G02G04G30G25
 -19788809.06247 -15397430.47744  22313695.0474                   22313692.2194
  -1744657.17247  -1349046.66444  23578318.2504                   23578316.5434
 -24206094.24248 -18837663.64546  20832142.5394                   20832139.4654
 -25605486.02048 -19927532.03547  20234505.5474                   20234502.5904
 -28606255.11748 -22265104.41446  21132127.4144                   21132122.2734
 -17748113.18046 -13803170.60243  24167395.1884                   24167393.5864
 -14143514.91848 -11007272.94146  21558043.8594                   21558041.2234
 -14201410.90248 -11052210.57446  21777476.7114                   21777475.5084
 11  8 18  1 51  0.0000000  0  8G10G29G12G05G02G04G30G25
 -19715702.18747 -15340464.07045  22327606.5554                   22327603.6644
  -1841919.16847  -1424835.15644  23559810.5004                   23559807.8204
 -24191519.87548 -18826307.00846  20834915.8754                   20834912.9384
 -25630674.02048 -19947159.02347  20229712.6484                   20229709.4774
 -28588418.05948 -22251205.38746  21135521.7894                   21135516.4614
 -17682511.10546 -13752052.11343  24179878.6954                   24179876.7584
 -14176805.56248 -11033213.71546  21551708.4534                   21551706.0824
 -14253309.39548 -11092650.94946  21767600.5234                   21767599.6294
 11  8 18  1 51 30.0000000  0  8G10G29G12G05G02G04G30G25
 -19642208.72747 -15283196.43744  22341591.8914                   22341588.9184
  -1939166.39547  -1500612.17644  23541304.3444                   23541302.5824
 -24176352.21948 -18814488.06246  20837802.4454                   20837799.1804
 -25655247.78548 -19966307.38747  20225036.3444                   20225033.5474
 -28570428.41048 -22237187.45346  21138945.0394                   21138939.7664
 -17616928.29346 -13700948.62543  24192358.3984                   24192357.1024
 -14209452.38348 -11058652.82846  21545496.0554                   21545493.4064
 -14304621.91448 -11132634.72346  21757836.1724                   21757835.6644
 11  8 18  1 52  0.0000000  0  8G10G29G12G05G02G04G30G25
 -19568332.45747 -15225630.49644  22355649.7584                   22355647.0904
  -2036398.55147  -1576377.43044  23522801.4064                   23522800.0824
 -24160593.47748 -18802208.52346  20840801.1334                   20840798.0704
 -25679208.02048 -19984977.66847  20220476.8284                   20220473.4414
 -28552287.16448 -22223051.38346  21142397.3444                   21142391.7774
 -17551365.70346 -13649860.89543  24204833.9064                   24204832.6294
 -14241455.67248 -11083590.48046  21539406.1564                   21539403.8484
 -14355347.76648 -11172161.36746  21748183.4304                   21748182.7234
 11  8 18  1 52 30.0000000  0  8G10G29G12G05G02G04G30G25
 -19494076.44147 -15167768.66845  22369780.3524                   22369777.5984
  -2133614.69547  -1652130.24244  23504302.4064                   23504299.8634
 -24144244.64848 -18789469.18746  20843912.4614                   20843909.1024
 -25702554.97748 -20003170.07447  20216033.9224                   20216030.9694
 -28533995.27347 -22208797.94146  21145877.9384                   21145872.4264
 -17485823.91046 -13598789.39143  24217306.7194                   24217304.7854
 -14272815.30948 -11108026.59846  21533438.7194                   21533435.8244
 -14405485.97348 -11211230.11346  21738642.2034                   21738641.4654
 11  8 18  1 53  0.0000000  0  9G26G10G29G12G05G02G04G30G25
   4569322.01656   3573503.38352  24742685.9924                   24742685.1414
 -19419444.02047 -15109613.52745  22383982.7344                   22383980.5944
  -2230813.89847  -1727869.84444  23485805.2734                   23485803.5824
 -24127307.31648 -18776271.26646  20847135.0554                   20847131.8914
 -25725289.28548 -20020885.09447  20211707.9304                   20211704.5704
 -28515554.52348 -22194428.50446  21149386.8594                   21149381.8524
 -17420303.69146 -13547734.68043  24229774.2424                   24229773.2854
 -14303531.46548 -11131961.29745  21527593.8284                   21527591.0904
 -14455035.85248 -11249840.43046  21729213.5234                   21729212.5004
 11  8 18  1 53 30.0000000  0  9G26G10G29G12G05G02G04G30G25
   4462920.19546   3490593.00843  24722438.8674                   24722438.1374
 -19344439.94547 -15051168.79745  22398255.1884                   22398253.1254
  -2327996.92247  -1803596.83244  23467313.1174                   23467310.0554
 -24109785.11347 -18762617.60246  20850469.5864                   20850466.6374
 -25747412.94148 -20038124.27347  20207497.6724                   20207494.4654
 -28496966.77748 -22179944.52346  21152923.9774                   21152918.9224
 -17354807.38346 -13496698.61743  24242237.7814                   24242236.8984
 -14333605.80948 -11155395.87146  21521870.4924                   21521867.8834
 -14503998.19548 -11287992.92646  21719896.1724                   21719895.3484
 11  8 18  1 54  0.0000000  0  9G26G10G29G12G05G02G04G30G25
   4356417.28946   3407603.84843  24702171.9774                   24702171.2034
 -19269071.12947 -14992439.84445  22412597.6484                   22412595.3054
  -2425166.44947  -1879313.32844  23448822.3984                   23448819.3794
 -24091683.28548 -18748512.28146  20853914.1414                   20853910.7894
 -25768930.32048 -20054891.02747  20203402.9064                   20203400.0744
 -28478236.85548 -22165349.75846  21156488.1954                   21156483.4144
 -17289339.27746 -13445684.54343  24254696.4224                   24254695.1724
 -14363042.12948 -11178333.29346  21516269.0784                   21516267.1994
 -14552375.88348 -11325689.84446  21710690.0084                   21710689.4104
 11  8 18  1 54 30.0000000  0  9G26G10G29G12G05G02G04G30G25
   4249814.43846   3324536.81643  24681886.1414                   24681885.6484
 -19193341.93447 -14933430.07045  22427008.8284                   22427006.4104
  -2522323.00447  -1955019.72744  23430333.6174                   23430330.9804
 -24073004.06648 -18733957.05146  20857468.9694                   20857465.8874
 -25789843.33248 -20071186.85547  20199423.3054                   20199420.4694
 -28459367.03948 -22150645.97746  21160079.1564                   21160073.9804
 -17223901.53146 -13394694.06643  24267148.5164                   24267146.7664
 -14391841.69548 -11200774.52346  21510788.7274                   21510785.8164
 -14600169.31648 -11362931.49646  21701595.4534                   21701594.5354
 11  8 18  1 55  0.0000000  0  9G26G10G29G12G05G02G04G30G25
   4143115.64546   3241395.04342  24661580.9614                   24661580.9184
 -19117254.65647 -14874141.28145  22441487.5234                   22441485.0164
  -2619464.29347  -2030714.21544  23411847.8054                   23411846.5004
 -24053748.65648 -18718952.83646  20861133.0234                   20861129.9454
 -25810151.61348 -20087011.46547  20195558.9064                   20195555.4924
 -28440357.14548 -22135833.06646  21163696.6024                   21163691.3524
 -17158493.32846 -13343726.62543  24279595.2974                   24279593.7344
 -14420003.56248 -11222718.85246  21505429.7424                   21505427.0554
 -14647376.66448 -11399716.44946  21692612.3364                   21692611.4224
 11  8 18  1 55 30.0000000  0  9G26G10G29G12G05G02G04G30G25
   4036324.21145   3158181.05142  24641259.4694                   24641257.9844
 -19040811.39847 -14814575.10945  22456033.9224                   22456031.8834
  -2716588.50847  -2106395.41844  23393365.9924                   23393363.7544
 -24033917.72748 -18703500.15646  20864906.9694                   20864903.4964
 -25829854.54748 -20102364.37547  20191809.4454                   20191806.3554
 -28421207.19548 -22120911.01246  21167340.6334                   21167335.2584
 -17093114.66846 -13292782.19143  24292036.1174                   24292035.0824
 -14447526.87148 -11244165.57846  21500192.1024                   21500189.4614
 -14693996.12548 -11436043.30946  21683740.5704                   21683740.0124
 11  8 18  1 56  0.0000000  0  9G26G10G29G12G05G02G04G30G25
   3929443.14845   3074897.34042  24620920.9454                   24620919.7734
 -18964014.39147 -14754733.27345  22470647.9774                   22470645.2234
  -2813694.12947  -2182062.11744  23374887.3914                   23374885.0784
 -24013511.97748 -18687599.57446  20868789.6174                   20868786.2894
 -25848952.20748 -20117245.64847  20188175.4924                   20188172.4064
 -28401917.32848 -22105879.93446  21171011.4304                   21171006.1214
 -17027765.21146 -13241860.52043  24304472.5314                   24304470.3954
 -14474411.16448 -11265114.37946  21495076.2344                   21495073.9414
 -14740026.35548 -11471911.03946  21674981.3594                   21674980.7304
 11  8 18  1 56 30.0000000  0  9G26G10G29G12G05G02G04G30G25
   3822477.49645   2991547.67242  24600565.1484                   24600563.8524
 -18886865.19947 -14694616.99644  22485328.7504                   22485326.0004
  -2910777.94947  -2257711.81245  23356413.4534                   23356411.0634
 -23992531.30548 -18671250.99646  20872782.0784                   20872779.3834
 -25867442.82848 -20131653.90247  20184656.3364                   20184653.5824
 -28382486.61347 -22090739.09846  21174708.9144                   21174703.6414
 -16962443.43046 -13190960.42243  24316902.5394                   24316901.1994
 -14500654.42248 -11285563.66046  21490082.3754                   21490080.1644
 -14785464.39848 -11507317.30946  21666334.9384                   21666334.7894
 11  8 18  1 57  0.0000000  0  9G26G10G29G12G05G02G04G30G25
   3715428.83645   2908133.29342  24580193.5704                   24580193.3634
 -18809367.84447 -14634229.44944  22500076.0474                   22500072.9924
  -3007840.10247  -2333344.65244  23337942.7734                   23337940.2814
 -23970978.53948 -18654456.63746  20876883.1564                   20876880.3444
 -25885328.46548 -20145590.73847  20181253.2344                   20181250.0664
 -28362916.50848 -22075489.65246  21178433.0164                   21178427.2894
 -16897150.95346 -13140083.14143  24329327.0394                   24329325.5124
 -14526257.99648 -11305514.48846  21485210.0314                   21485207.4454
 -14830310.69948 -11542262.48046  21657801.0634                   21657800.4224
 11  8 18  1 57 30.0000000  0  9G26G10G29G12G05G02G04G30G25
   3608301.00845   2824657.24242  24559809.3754                   24559808.0204
 -18731523.94147 -14573571.85544  22514888.6884                   22514886.2034
  -3104878.09447  -2408958.63344  23319476.7734                   23319474.9104
 -23948853.84448 -18637216.61746  20881093.8524                   20881090.1954
 -25902608.47348 -20159055.65647  20177964.8594                   20177961.5864
 -28343206.51248 -22060131.21146  21182183.6024                   21182178.3484
 -16831887.12546 -13089228.17643  24341746.6094                   24341745.1094
 -14551220.60548 -11324965.84446  21480459.9614                   21480457.7544
 -14874563.13348 -11576744.88346  21649380.0554                   21649379.2504
 11  8 18  1 58  0.0000000  0  9G26G10G29G12G05G02G04G30G25
   3501095.73445   2741120.89842  24539409.2344                   24539407.5394
 -18653337.77047 -14512647.56644  22529767.7894                   22529764.8714
  -3201891.88347  -2484553.77045  23301015.3444                   23301014.2464
 -23926160.11348 -18619533.18746  20885412.2664                   20885409.0984
 -25919284.33248 -20172049.80147  20174791.1884                   20174788.1254
 -28323358.67648 -22044665.35246  21185960.6254                   21185954.9064
 -16766653.50046 -13038396.73043  24354160.0004                   24354158.7584
 -14575543.64548 -11343918.84846  21475831.4064                   21475828.8634
 -14918222.04348 -11610764.79746  21641072.1334                   21641071.2624
 11  8 18  1 58 30.0000000  0  9G26G10G29G12G05G02G04G30G25
   3393817.441 5                  24518994.023
 -18574810.97347 -14451457.85544  22544711.5084                   22544708.3834
  -3298878.54747  -2560127.76244  23282559.3984                   23282557.2114
 -23902897.12148 -18601406.18046  20889838.9144                   20889835.6604
 -25935355.01648 -20184572.38747  20171733.3984                   20171730.0634
 -28303372.05548 -22029091.35946  21189764.2194                   21189758.8754
 -16701448.47346 -12987587.59843  24366568.5314                   24366566.8284
 -14599225.57048 -11362372.28146  21471324.8444                   21471322.2624
 -14961285.03148 -11644320.36346  21632877.3204                   21632877.0124
 11  8 18  1 59  0.0000000  0  9G26G10G29G12G05G02G04G30G25
   3286468.824 6                  24498565.547
 -18495946.41447 -14390004.94945  22559718.5004                   22559715.6524
  -3395837.13747  -2635679.87545  23264109.3284                   23264106.6954
 -23879066.75048 -18582837.07046  20894373.7424                   20894370.4964
 -25950821.25448 -20196623.97347  20168790.0394                   20168786.9964
 -28283247.69548 -22013410.03146  21193593.3754                   21193588.2114
 -16636273.14846 -12936801.60243  24378971.0704                   24378968.9574
 -14622266.75048 -11380326.41446  21466940.2344                   21466937.8204
 -15003751.57448 -11677411.15246  21624796.4534                   21624795.7504
 11  8 18  1 59 30.0000000  0  9G26G10G29G12G05G02G04G30G25
   3179051.328 6                  24478124.859
 -18416748.36347 -14328292.18045  22574789.6174                   22574786.5904
  -3492767.88347  -2711210.26644  23245663.9694                   23245661.7974
 -23854672.22348 -18563828.36346  20899015.9454                   20899012.3054
 -25965685.14548 -20208206.20347  20165961.6254                   20165958.4264
 -28262987.76647 -21997623.07046  21197448.9304                   21197443.8954
 -16571128.87146 -12886039.78943  24391366.3444                   24391366.1214
 -14644668.55948 -11397782.35546  21462677.3754                   21462674.5434
 -15045622.06648 -11710037.47746  21616828.5554                   21616827.8204
 11  8 18  2  0  0.0000000  0  9G26G10G29G12G05G02G04G30G25
   3071569.074 6                  24457671.070
 -18337219.07847 -14266321.29345  22589923.4924                   22589920.3874
  -3589668.48447  -2786717.19144  23227223.9384                   23227221.8524
 -23829714.11348 -18544380.48846  20903765.1414                   20903762.1024
 -25979946.24648 -20219318.72347  20163247.8984                   20163244.6994
 -28242591.55148 -21981729.89846  21201330.1954                   21201324.9144
 -16506014.98846 -12835301.70343  24403757.4144                   24403756.3834
 -14666430.27748 -11414739.50446  21458536.0634                   21458533.7584
 -15086894.79748 -11742198.03146  21608974.5704                   21608973.7734
 11  8 18  2  0 30.0000000  0  9G26G10G29G12G05G02G04G30G25
   2964024.797 6                  24437206.094
 -18257361.44947 -14204094.58244  22605119.6884                   22605116.5904
  -3686537.84847  -2862199.77745  23208790.2894                   23208788.3094
 -23804193.80548 -18524494.52746  20908621.7584                   20908618.4384
 -25993605.29348 -20229962.10947  20160648.6174                   20160645.4264
 -28222059.44947 -21965730.84046  21205237.2274                   21205231.6134
 -16440931.90646 -12784587.58243  24416143.2814                   24416141.8914
 -14687552.06648 -11431198.02046  21454517.1174                   21454513.9454
 -15127569.09448 -11773892.25446  21601234.5554                   21601233.7704
 11  8 18  2  1  0.0000000  0  9G26G10G29G12G05G02G04G30G25
   2856421.727 6                  24416730.180
 -18177177.96147 -14141613.95344  22620377.6804                   22620375.5274
  -3783373.91047  -2937656.41844  23190362.7504                   23190360.6134
 -23778113.09048 -18504171.91046  20913584.9924                   20913581.2774
 -26006662.36348 -20240136.43447  20158164.0004                   20158160.9104
 -28201392.16048 -21949626.44146  21209169.8524                   21209165.0004
 -16375879.41046 -12733897.29743  24428521.6564                   24428520.4614
 -14708033.76248 -11447157.76246  21450619.6414                   21450616.9224
 -15167643.69148 -11805119.18046  21593608.7424                   21593608.1644
 11  8 18  2  1 30.0000000  0  9G26G10G29G12G05G02G04G30G25
   2748762.375 6                  24396243.406
 -18096672.32047 -14078882.31244  22635697.3674                   22635695.0594
  -3880176.02747  -3013086.61745  23171942.3984                   23171939.7114
 -23751473.98848 -18483414.17246  20918653.9384                   20918650.4884
 -26019118.82048 -20249842.74647  20155793.5314                   20155790.2624
 -28180590.73048 -21933417.52046  21213128.2034                   21213123.4344
 -16310858.55146 -12683231.68043  24440894.6954                   24440893.1374
 -14727876.20348 -11462619.39846  21446843.3834                   21446841.1724
 -15207118.64848 -11835878.85546  21586097.0234                   21586096.3054
 11  8 18  2  2  0.0000000  0  9G26G10G29G12G05G02G04G30G25
   2641049.60246   2070955.02352  24375745.9694                   24375744.4574
 -18015847.43746 -14015901.88344  22651078.0554                   22651075.2774
  -3976942.96147  -3088489.40245  23153528.2194                   23153526.1334
 -23724278.28948 -18462222.71946  20923829.0634                   20923825.5824
 -26030975.13748 -20259081.40247  20153537.5634                   20153534.0084
 -28159655.69548 -21917104.48846  21217112.0864                   21217106.8794
 -16245869.54346 -12632590.90243  24453261.2274                   24453260.1024
 -14747079.68448 -11477583.13346  21443188.6954                   21443186.2114
 -15245993.20348 -11866170.68446  21578699.3524                   21578698.4024
 11  8 18  2  2 30.0000000  0  9G26G10G29G12G05G02G04G30G25
   2533287.37146   1986984.60942  24355239.9304                   24355237.5984
 -17934705.47346 -13952674.37944  22666519.2274                   22666516.4884
  -4073672.55947  -3163863.09045  23135120.6804                   23135118.1604
 -23696526.62148 -18440598.04746  20929109.8204                   20929106.7854
 -26042231.39548 -20267852.49647  20151395.3284                   20151392.0744
 -28138586.84847 -21900687.19146  21221121.7034                   21221116.3874
 -16180911.87546 -12581974.52343  24465622.7664                   24465621.4454
 -14765643.64848 -11492048.56646  21439656.4454                   21439654.0704
 -15284265.86348 -11895993.50446  21571416.2274                   21571415.3524
 11  8 18  2  3  0.0000000  0  9G26G10G29G12G05G02G04G30G25
   2425477.23846   1902976.83243  24334724.3594                   24334722.2424
 -17853250.35547 -13889202.86744  22682019.7424                   22682016.7774
  -4170364.39847  -3239207.34445  23116721.3524                   23116719.2624
 -23668222.01648 -18418542.52046  20934496.3364                   20934493.1294
 -26052889.31648 -20276157.34447  20149367.3444                   20149364.0164
 -28117385.90247 -21884166.94546  21225155.5314                   21225150.7734
 -16115986.74246 -12531383.50843  24477977.8524                   24477976.4414
 -14783569.43748 -11506016.70346  21436245.2894                   21436242.7774
 -15321936.99648 -11925347.59846  21564247.3914                   21564246.9264
 11  8 18  2  3 30.0000000  0  9G26G10G29G12G05G02G04G30G25
   2317621.78546   1818933.78143  24314199.9774                   24314198.4574
 -17771485.87947 -13825490.27344  22697579.0004                   22697576.0904
  -4267018.07847  -3314521.86745  23098328.5554                   23098326.2274
 -23639367.36748 -18396058.37946  20939987.0004                   20939983.2934
 -26062950.63748 -20283997.31647  20147452.6804                   20147449.1524
 -28096054.37147 -21867544.95746  21229215.0704                   21229209.6484
 -16051095.40246 -12480818.83643  24490326.2584                   24490324.1174
 -14800858.31248 -11519488.55146  21432955.1954                   21432952.5594
 -15359006.94148 -11954233.24646  21557193.3674                   21557192.3554
 11  8 18  2  4  0.0000000  0  9G26G10G29G12G05G02G04G30G25
   2209724.12146   1734857.83643  24293667.0634                   24293666.6054
 -17689414.49247 -13761538.53144  22713196.6804                   22713193.4264
  -4363631.70747  -3389805.16845  23079943.9144                   23079941.1954
 -23609963.85948 -18373146.55946  20945582.2424                   20945579.4454
 -26072415.40248 -20291372.44947  20145651.7034                   20145648.1094
 -28074591.85947 -21850820.90646  21233299.1884                   21233293.9964
 -15986237.57846 -12430280.30142  24502667.3134                   24502665.3134
 -14817510.15248 -11532464.00846  21429786.5004                   21429784.1844
 -15395474.55548 -11982649.54746  21550253.5004                   21550253.2544
 11  8 18  2  4 30.0000000  0  9G26G10G29G12G05G02G04G30G25
   2101786.93846   1650751.08243  24273127.6174                   24273126.3794
 -17607039.84046 -13697350.50444  22728871.8204                   22728868.8674
  -4460204.72747  -3465056.85245  23061566.9384                   23061564.3794
 -23580013.75848 -18349808.82046  20951281.9694                   20951278.4024
 -26081285.29348 -20298284.02747  20143963.2344                   20143960.3634
 -28052999.67647 -21833995.80946  21237408.0474                   21237402.7934
 -15921413.89846 -12379768.29342  24515003.7194                   24515001.2854
 -14833525.87148 -11544943.78946  21426738.7424                   21426736.2584
 -15431339.84048 -12010596.51246  21543428.7734                   21543428.3094
 11  8 18  2  5  0.0000000  0  9G26G10G29G12G05G02G04G30G25
   1993812.86346   1566615.57043  24252580.1954                   24252579.5664
 -17524364.96547 -13632928.50844  22744604.4454                   22744601.1844
  -4556735.62947  -3540275.70745  23043197.4224                   23043194.6374
 -23549519.35948 -18326046.96546  20957084.9224                   20957081.5004
 -26089561.32048 -20304732.85547  20142388.7974                   20142385.5124
 -28031278.80548 -21817070.44546  21241541.4454                   21241536.4844
 -15856624.95746 -12329283.45343  24527331.9144                   24527330.7704
 -14848906.27748 -11556928.51246  21423812.0314                   21423809.4414
 -15466602.57048 -12038073.95346  21536718.4534                   21536717.8054
 11  8 18  2  5 30.0000000  0  9G26G10G29G12G05G02G04G30G25
   1885805.16046   1482453.91843  24232026.8984                   24232025.9884
 -17441392.87147 -13568274.92244  22760393.3444                   22760390.6254
  -4653222.83647  -3615460.52045  23024836.2894                   23024834.0554
 -23518482.04748 -18301862.05146  20962991.1174                   20962987.5864
 -26097243.96548 -20310719.30947  20140926.5864                   20140923.5704
 -28009429.43447 -21800044.94146  21245699.4454                   21245693.9454
 -15791870.83246 -12278825.68443  24539655.1484                   24539652.6644
 -14863651.54348 -11568418.33246  21421006.3204                   21421003.5084
 -15501261.96548 -12065081.27346  21530123.3444                   21530122.6454
 11  8 18  2  6  0.0000000  0  8G26G10G29G12G05G02G30G25
   1777767.17246   1398268.61743  24211468.7274                   24211466.8484
 -17358125.74647 -13503391.43444  22776238.2504                   22776235.7774
  -4749664.89847  -3690610.14145  23006484.0164                   23006481.5704
 -23486903.52748 -18277255.40246  20968999.8204                   20968996.6914
 -26104334.11348 -20316244.09047  20139577.5704                   20139573.9844
 -27987451.80547 -21782919.49246  21249881.4454                   21249875.8054
 -14877761.78148 -11579413.32046  21418321.0314                   21418318.3014
 -15535317.30548 -12091617.89846  21523642.3524                   21523641.4224
 11  8 18  2  6 30.0000000  0  8G26G10G29G12G05G02G30G25
   1669701.55946   1314061.78543  24190903.2504                   24190901.8874
 -17274567.16046 -13438280.84844  22792139.0084                   22792136.4024
  -4846060.56247  -3765723.62145  22988140.1724                   22988138.1604
 -23454786.33648 -18252229.02046  20975112.0784                   20975108.3714
 -26110832.90648 -20321308.06247  20138340.7344                   20138337.5474
 -27965346.73847 -21765694.75446  21254087.8914                   21254082.4454
 -14891238.02048 -11589914.27746  21415756.5474                   21415754.0204
 -15568768.40648 -12117683.69546  21517276.7504                   21517276.3324
 11  8 18  2  7  0.0000000  0  8G26G10G29G12G05G02G30G25
   1561614.42646   1229838.20343  24170335.0634                   24170334.4384
 -17190717.34446 -13372943.32444  22808095.4144                   22808092.7154
  -4942405.87147  -3840797.86745  22969806.3594                   22969803.6174
 -23422129.37948 -18226782.05546  20981326.2974                   20981322.8014
 -26116738.29348 -20325909.64147  20137217.2424                   20137213.5514
 -27943112.16848 -21748369.09046  21258318.6804                   21258313.2664
 -14904078.01648 -11599919.46146  21413313.2734                   21413310.6294
 -15601612.13748 -12143276.20746  21511027.1724                   21511026.7734
 11  8 18  2  7 30.0000000  0  8G26G10G29G12G05G02G30G25
   1453511.81646   1145602.55943  24149764.7734                   24149762.8244
 -17106576.27346 -13307378.85244  22824106.8444                   22824104.6884
  -5038696.02347  -3915829.11745  22951483.0234                   22951480.8364
 -23388931.67648 -18200913.71146  20987643.7114                   20987640.3834
 -26122048.04748 -20330047.09047  20136206.6414                   20136203.3284
 -27920745.43048 -21730940.44546  21262574.9774                   21262569.9344
 -14916279.10948 -11609426.80146  21410991.4844                   21410988.7384
 -15633844.90648 -12168392.64546  21504893.3054                   21504892.5044
 11  8 18  2  8  0.0000000  0  8G26G10G29G12G05G02G30G25
   1345398.05546   1061358.21943  24129190.5084                   24129189.6334
 -17022145.22747 -13241588.42644  22840174.2814                   22840170.6094
  -5134928.32447  -3990815.31245  22933170.6954                   22933168.3634
 -23355193.60248 -18174624.31646  20994063.8054                   20994060.5864
 -26126761.94948 -20333720.25047  20135309.6884                   20135306.1414
 -27898245.62548 -21713408.11346  21266856.7194                   21266851.5554
 -14927840.56248 -11618435.71946  21408791.3054                   21408788.9614
 -15665464.84048 -12193031.57046  21498876.0704                   21498875.2544
 11  8 18  2  8 30.0000000  0  8G26G10G29G12G05G02G30G25
   1237275.19546    977106.75843  24108615.3754                   24108613.6374
 -16937428.29746 -13175575.22744  22856294.5704                   22856292.4734
  -5231102.14147  -4065755.90645  22914869.5704                   22914866.9614
 -23320918.32848 -18147916.30146  21000585.6414                   21000582.7154
 -26130881.92248 -20336930.59847  20134525.5474                   20134522.0514
 -27875614.25048 -21695773.25846  21271163.1884                   21271157.9804
 -14938763.98048 -11626947.45746  21406712.7194                   21406710.3134
 -15696472.77748 -12217193.59446  21492975.5314                   21492974.8444
 11  8 18  2  9  0.0000000  0  8G26G10G29G12G05G02G30G25
   2704567.61746   2120451.68843  24387831.4144                   24387829.7734
 -15277013.41047 -11881745.44944  23172261.0704                   23172259.0084
  -3751795.20347  -2913049.17245  23196372.3914                   23196369.8914
 -21710691.19548 -16893193.86346  21307001.9534                   21306998.7624
 -24558991.42648 -19112080.84447  20433646.3284                   20433642.7194
 -26277434.84048 -20450438.63746  21575286.6884                   21575281.5274
 -13373632.19948 -10407364.24246  21704547.4614                   21704544.8554
 -14151449.66048 -11013279.48046  21786983.7424                   21786982.9494
 11  8 18  2  9 30.0000000  0  8G26G10G29G12G05G02G30G25
   2596430.41046   2036189.09843  24367253.0864                   24367252.0124
 -15191738.78946 -11815297.70744  23188487.8444                   23188485.1954
  -3847853.41847  -2987899.68745  23178092.7584                   23178090.1174
 -21675352.87948 -16865657.50846  21313726.8204                   21313723.2544
 -24561932.30548 -19114372.42647  20433086.8914                   20433083.7074
 -26254547.64548 -20432604.43746  21579642.1024                   21579636.7424
 -13383287.44148 -10414887.78946  21702709.9614                   21702707.8444
 -14181238.19148 -11036491.32046  21781315.0394                   21781314.2504
 11  8 18  2 10  0.0000000  0  8G26G10G29G12G05G02G30G25
   2488290.75046   1951924.55143  24346675.2114                   24346673.7074
 -15106189.75447 -11748636.12144  23204767.6414                   23204764.8954
  -3943851.85947  -3062703.62145  23159824.9064                   23159822.4574
 -21639486.55148 -16837709.72346  21320551.8364                   21320548.7074
 -24564285.25848 -19116205.88347  20432639.1174                   20432635.9384
 -26231533.18747 -20414671.07846  21584021.7344                   21584016.1484
 -13392309.76647 -10421918.16046  21700993.2504                   21700990.3364
 -14210416.56648 -11059227.71146  21775762.8204                   21775762.2624
 11  8 18  2 10 30.0000000  0  8G26G10G29G12G05G02G30G25
   2380150.10946   1867659.25443  24326096.5554                   24326095.2464
 -15020370.90247 -11681764.28544  23221098.1644                   23221095.3984
  -4039790.35547  -3137460.85945  23141568.3284                   23141565.4924
 -21603095.69548 -16809353.20746  21327476.8524                   21327473.3834
 -24566053.03548 -19117583.35547  20432302.5234                   20432299.1604
 -26208393.30147 -20396639.98046  21588424.9924                   21588419.5044
 -13400701.31647 -10428457.01646  21699396.2894                   21699393.8054
 -14238986.15248 -11081489.72346  21770325.9144                   21770325.0354
 11  8 18  2 11  0.0000000  0  8G26G10G29G12G05G02G30G25
   2272011.92647   1783395.87543  24305518.2194                   24305517.1414
 -14934284.96147 -11614684.33244  23237480.2114                   23237476.9884
  -4135667.11347  -3212169.95745  23123323.2814                   23123320.7544
 -21566181.83248 -16780589.15246  21334501.2664                   21334498.0124
 -24567236.42648 -19118505.45747  20432077.3914                   20432073.9454
 -26185128.32447 -20378511.41846  21592851.9064                   21592846.8834
 -13408462.72747 -10434504.86746  21697919.4534                   21697916.5394
 -14266946.44548 -11103276.95746  21765005.2504                   21765004.7384
 11  8 18  2 11 30.0000000  0  8G26G10G29G12G05G02G30G25
   2163878.49246   1699136.21143  24284941.4304                   24284939.5274
 -14847935.60247 -11547399.10944  23253911.7424                   23253909.3714
  -4231481.77747  -3286830.69545  23105090.3284                   23105087.8364
 -21528748.26248 -16751420.13746  21341624.5234                   21341621.8014
 -24567837.44948 -19118973.76647  20431962.8674                   20431959.4654
 -26161739.52047 -20360286.35946  21597303.0004                   21597297.8014
 -13415595.64847 -10440062.97346  21696561.7274                   21696558.8794
 -14294298.17648 -11124589.98046  21759800.5474                   21759800.0554
 11  8 18  2 12  0.0000000  0  8G26G10G29G12G05G02G30G25
   2055752.70347   1614882.50044  24264365.4694                   24264363.9224
 -14761325.73047 -11479910.91044  23270392.9144                   23270389.5274
  -4327232.50847  -3361441.61745  23086870.2344                   23086867.0784
 -21490797.21548 -16721847.90246  21348846.4844                   21348843.3984
 -24567857.24248 -19118989.17647  20431959.2424                   20431956.1054
 -26138227.60548 -20341965.35546  21601776.9774                   21601772.0664
 -13422100.94548 -10445132.04346  21695324.0164                   21695321.4264
 -14321041.09448 -11145428.59446  21754711.0634                   21754710.8874
 11  8 18  2 12 30.0000000  0  8G26G10G29G12G05G02G30G25
   1947637.76247   1530637.21144  24243791.6564                   24243790.5474
 -14674458.69147 -11412222.31644  23286923.0164                   23286920.5784
  -4422918.17247  -3436001.81645  23068661.3594                   23068659.1214
 -21452330.90248 -16691874.14846  21356166.3984                   21356163.0204
 -24567297.29748 -19118552.83647  20432065.6334                   20432062.5394
 -26114593.08248 -20323548.84046  21606274.1094                   21606269.2304
 -13427979.64848 -10449712.84446  21694205.3444                   21694202.6484
 -14347175.35248 -11165792.94146  21749738.4694                   21749737.5634
 11  8 18  2 13  0.0000000  0  8G26G10G29G12G05G02G30G25
   1839537.21947   1446403.14844  24223220.4534                   24223220.0124
 -14587336.96947 -11344335.27044  23303501.9454                   23303499.4384
  -4518537.03947  -3510509.97345  23050465.8914                   23050463.0984
 -21413351.24248 -16661500.39146  21363584.1414                   21363581.1024
 -24566158.40648 -19117665.35947  20432282.4774                   20432279.0944
 -26090836.09847 -20305036.89546  21610795.2034                   21610789.8634
 -13433232.39147 -10453805.89546  21693206.0164                   21693202.9774
 -14372700.43748 -11185682.60246  21744880.8834                   21744880.0704
 11  8 18  2 13 30.0000000  0  8G26G10G29G12G05G02G30G25
   1731453.55547   1362182.25044  24202653.1564                   24202651.7194
 -14499964.09047 -11276252.52344  23320128.4064                   23320125.3524
  -4614087.96947  -3584965.18745  23032282.9304                   23032280.0704
 -21373861.21548 -16630728.94946  21371098.6484                   21371095.1954
 -24564442.41048 -19116328.20747  20432608.9534                   20432606.0554
 -26066957.73848 -20286430.36746  21615339.2814                   21615334.0314
 -13437860.60247 -10457412.29346  21692325.2114                   21692322.7114
 -14397616.92248 -11205098.02746  21740139.4774                   21740138.5864
 11  8 18  2 14  0.0000000  0  8G26G10G29G12G05G02G30G25
   1623388.68046   1277975.96944  24182089.2504                   24182087.6764
 -14412344.24647 -11207977.29344  23336801.5394                   23336799.3164
  -4709570.55147  -3659367.14545  23014113.1884                   23014110.7194
 -21333863.94548 -16599562.24646  21378709.8134                   21378706.9184
 -24562151.64148 -19114543.16847  20433044.8754                   20433041.7934
 -26042959.51648 -20267730.44146  21619905.9144                   21619900.5744
 -13441866.43748 -10460533.73846  21691562.6644                   21691559.8364
 -14421925.88348 -11224040.05146  21735513.8674                   21735512.9844
 11  8 18  2 14 30.0000000  0  8G26G10G29G12G05G02G30G25
   1515345.77346   1193786.80944  24161528.9534                   24161527.5204
 -14324480.26647 -11139511.86744  23353521.5004                   23353518.7664
  -4804983.33647  -3733714.71545  22995956.3364                   22995954.5904
 -21293361.60948 -16568001.99246  21386417.2664                   21386413.6564
 -24559287.29748 -19112311.19547  20433589.9064                   20433586.6214
 -26018841.87548 -20248937.46946  21624495.1334                   21624489.5984
 -13445250.99648 -10463171.07446  21690919.0634                   21690916.2504
 -14445627.37148 -11242508.73846  21731003.6024                   21731002.9414
 11  8 18  2 15  0.0000000  0  8G26G10G29G12G05G02G30G25
   1407329.50046   1109618.40643  24140974.0234                   24140972.7624
 -14236373.67247 -11070857.39144  23370288.4924                   23370285.4964
  -4900323.44547  -3808005.64845  22977813.9454                   22977812.0164
 -21252355.43448 -16536049.13346  21394220.6094                   21394217.3524
 -24555849.57848 -19109632.43047  20434244.0944                   20434241.0084
 -25994604.09848 -20230050.86746  21629107.2194                   21629102.4654
 -13448014.04348 -10465324.10246  21690392.8204                   21690390.4414
 -14468720.18448 -11260503.12146  21726608.8594                   21726608.1094
 11  8 18  2 15 30.0000000  0  8G26G10G29G12G05G02G30G25
   1299342.02346   1025472.44543  24120424.6644                   24120423.3634
 -14148028.30547 -11002016.85944  23387099.9304                   23387097.2384
  -4995590.43747  -3882239.61345  22959685.5474                   22959683.0664
 -21210848.50848 -16503706.07446  21402118.9304                   21402115.9104
 -24551840.93448 -19106508.79347  20435006.8444                   20435003.2114
 -25970247.15648 -20211071.42646  21633742.5784                   21633737.3754
 -13450157.34448 -10466994.23846  21689985.3364                   21689982.4224
 -14491205.03948 -11278023.78546  21722330.2584                   21722330.1094
 11  8 18  2 16  0.0000000  0  8G26G10G29G12G05G02G30G25
   1191387.22746    941351.92643  24099882.1804                   24099879.9064
 -14059446.75847 -10932992.28144  23403956.3594                   23403953.2774
  -5090781.88347  -3956414.71145  22941570.7114                   22941567.9304
 -21168842.65248 -16470974.23846  21410112.3284                   21410109.2664
 -24547262.20348 -19102940.94147  20435878.1254                   20435874.7974
 -25945771.12148 -20191999.18046  21638400.2274                   21638394.6484
 -13451681.54348 -10468181.93046  21689695.0944                   21689692.6644
 -14513081.64848 -11295070.49246  21718167.3284                   21718166.7424
 11  8 18  2 16 30.0000000  0  8G26G10G29G12G05G02G30G25
   1083467.37546    857258.64544  24079344.7194                   24079343.5394
 -13970632.64846 -10863786.46543  23420856.8984                   23420854.5554
  -5185896.90247  -4030530.25845  22923470.9534                   22923468.6414
 -21126340.75448 -16437855.87146  21418199.8204                   21418196.9804
 -24542114.98448 -19098930.09847  20436857.3754                   20436854.4264
 -25921177.25448 -20172835.10946  21643079.9384                   21643074.5594
 -13452588.44148 -10468888.63346  21689522.6094                   21689519.6024
 -14534350.69948 -11311643.78146  21714119.9924                   21714119.2384
 11  8 18  2 17  0.0000000  0  8G26G10G29G12G05G02G30G25
    975584.76646    773194.35244  24058815.7194                   24058813.6604
 -13881589.57846 -10794402.25043  23437800.4774                   23437798.0474
  -5280935.16847  -4104585.99245  22905385.9454                   22905383.1174
 -21083346.33248 -16404353.72746  21426381.7274                   21426378.2304
 -24536401.73848 -19094478.20747  20437944.7504                   20437941.4064
 -25896467.07448 -20153580.41446  21647782.2734                   21647776.8164
 -13452880.22348 -10469116.00446  21689466.9454                   21689464.5864
 -14555013.44948 -11327744.62146  21710187.9844                   21710187.1564
 11  8 18  2 17 30.0000000  0  8G26G10G29G12G05G02G30G25
    867743.44546    689162.23444  24038293.8984                   24038292.1294
 -13792320.03546 -10724841.56644  23454788.5634                   23454785.7934
  -5375894.20747  -4178579.97745  22887315.6024                   22887313.0354
 -21039860.90648 -16370468.98046  21434656.8524                   21434653.6334
 -24530123.45348 -19089586.01647  20439139.5554                   20439136.3014
 -25871639.90648 -20134234.55946  21652506.8364                   21652501.2114
 -13452557.33248 -10468864.41446  21689528.7344                   21689525.3054
 -14575069.23048 -11343372.50846  21706371.3204                   21706370.9144
 11  8 18  2 18  0.0000000  0  8G26G10G29G12G05G02G30G25
    759945.69146    605164.06343  24017780.8984                   24017779.2854
 -13702827.77746 -10655107.35943  23471818.6094                   23471815.6024
  -5470773.32847  -4252511.70345  22869260.8134                   22869258.3674
 -20995888.15648 -16336204.50046  21443024.8134                   21443021.1564
 -24523282.39848 -19084255.30947  20440440.8204                   20440437.8444
 -25846697.32048 -20114798.76646  21657253.0784                   21657248.1054
 -13451621.93748 -10468135.55546  21689706.6804                   21689703.8324
 -14594519.20748 -11358528.32846  21702670.2274                   21702669.8984
 11  8 18  2 18 30.0000000  0  8G26G10G29G12G05G02G30G25
    652195.24246    521202.76644  23997276.0394                   23997275.4104
 -13613115.14547 -10585201.41843  23488889.8444                   23488887.0084
  -5565570.14547  -4326379.29745  22851221.6334                   22851218.8674
 -20951429.60248 -16301561.46946  21451484.8284                   21451481.4804
 -24515879.76648 -19078487.00447  20441850.1414                   20441846.7544
 -25821638.88748 -20095272.71546  21662021.2584                   21662016.5234
 -13450074.54348 -10466929.78946  21690001.1804                   21689998.6294
 -14613362.98848 -11373211.79346  21699084.2114                   21699083.9344
 11  8 18  2 19  0.0000000  0  8G26G10G29G12G05G02G30G25
    544495.84846    437281.20344  23976781.5704                   23976779.9804
 -13523184.60547 -10515125.66443  23506003.5784                   23506000.6214
  -5660282.99247  -4400181.45345  22833197.9774                   22833195.6604
 -20906487.42248 -16266541.58246  21460036.8134                   21460033.6134
 -24507916.22348 -19072281.62547  20443365.1884                   20443361.8984
 -25796464.59448 -20075656.37146  21666812.3284                   21666806.5744
 -13447916.12948 -10465247.89846  21690411.5554                   21690409.1804
 -14631600.33648 -11387422.72346  21695613.7034                   21695612.9774
 11  8 18  2 19 30.0000000  0  8G26G10G29G12G05G02G30G25
    436850.97746    353402.14844  23956297.8284                   23956295.7384
 -13433038.50847 -10444881.94944  23523158.1954                   23523155.1724
  -5754909.81647  -4473916.58645  22815191.0314                   22815188.3914
 -20861063.32448 -16231146.18746  21468680.8984                   21468677.3364
 -24499392.75848 -19065639.94547  20444987.6804                   20444983.7734
 -25771174.63348 -20055949.90246  21671624.9304                   21671619.4494
 -13445147.60548 -10463090.61346  21690938.7974                   21690936.2934
 -14649231.34848 -11401161.17246  21692258.6254                   21692258.2464
 11  8 18  2 20  0.0000000  0  8G26G10G29G12G05G02G30G25
    329264.32046    269568.45744  23935824.1724                   23935822.8554
 -13342679.59047 -10374472.41444  23540352.6094                   23540350.3014
  -5849448.81247  -4547583.27045  22797201.0784                   22797198.2774
 -20815160.07448 -16195377.42646  21477415.8754                   21477412.5864
 -24490310.94948 -19058563.19147  20446715.4224                   20446711.8204
 -25745769.09048 -20036153.37546  21676459.3834                   21676453.6524
 -13441770.03948 -10460458.71945  21691581.2734                   21691578.4344
 -14666255.94148 -11414427.09846  21689019.0474                   21689018.4884
 11  8 18  2 20 30.0000000  0  8G26G10G29G12G05G02G30G25
    221739.08246    185782.64543  23915362.8674                   23915361.5044
 -13252111.07047 -10303899.55144  23557588.0554                   23557584.6604
  -5943898.42247  -4621180.30945  22779227.5634                   22779225.1334
 -20768779.75448 -16159236.91446  21486241.4534                   21486238.6054
 -24480672.68048 -19051052.83247  20448549.4534                   20448546.1454
 -25720248.38748 -20016267.11746  21681315.4774                   21681310.3444
 -13437784.71548 -10457353.27046  21692339.7814                   21692337.1294
 -14682674.49648 -11427220.78146  21685894.5864                   21685894.1994
 11  8 18  2 21  0.0000000  0  8G26G10G29G12G05G02G30G25
    114278.43446    102047.13743  23894914.0004                   23894912.4384
 -13161335.70347 -10233165.52044  23574861.5474                   23574858.7974
  -6038256.79747  -4694706.26245  22761271.8524                   22761268.9694
 -20721925.50048 -16122727.11746  21495157.8674                   21495154.5784
 -24470479.18448 -19043109.82447  20450489.2034                   20450486.0594
 -25694613.00448 -19996291.48046  21686194.0704                   21686188.7704
 -13433193.20748 -10453775.45746  21693213.4844                   21693211.1054
 -14698487.45348 -11439542.56646  21682885.5634                   21682884.9654
 11  8 18  2 21 30.0000000  0  8G26G10G29G12G05G02G30G25
      6885.47746     18364.42243  23874478.0394                   23874475.5434
 -13070356.42647 -10162272.60244  23592173.7034                   23592171.4614
  -6132522.53947  -4768160.03145  22743334.0234                   22743330.5124
 -20674599.62148 -16085849.82046  21504164.0864                   21504160.4144
 -24459732.37948 -19034735.67247  20452534.5004                   20452531.1294
 -25668863.53548 -19976226.96146  21691093.8204                   21691088.1134
 -13427997.06248 -10449726.50446  21694201.9454                   21694199.5824
 -14713695.39148 -11451392.90646  21679991.7114                   21679991.2344
 11  8 18  2 22  0.0000000  0  8G26G10G29G12G05G02G30G25
   -100437.34846    -65263.67244  23854054.7114                   23854053.0314
 -12979176.82847 -10091223.57444  23609524.5314                   23609522.4844
  -6226694.73447  -4841540.92245  22725413.4534                   22725410.4694
 -20626805.38348 -16048607.55946  21513258.7664                   21513255.3954
 -24448434.65648 -19025932.23447  20454684.0234                   20454680.9304
 -25643000.90648 -19956074.27046  21696015.2274                   21696009.7664
 -13422198.44948 -10445208.09046  21695305.8204                   21695303.3014
 -14728299.45748 -11462772.69946  21677212.8284                   21677212.1214
 11  8 18  2 22 30.0000000  0  8G26G10G29G12G05G02G30G25
   -207685.07046   -148833.25444  23833645.6484                   23833644.7234
 -12887798.69147 -10020019.87943  23626913.5234                   23626911.2734
  -6320770.89147  -4914846.96145  22707511.4534                   22707508.3634
 -20578543.87548 -16011001.20346  21522442.8284                   21522439.3244
 -24436586.40248 -19016699.80547  20456938.7734                   20456935.7344
 -25617024.01648 -19935832.52746  21700958.2034                   21700953.1994
 -13415797.47348 -10440220.30146  21696523.8364                   21696521.1994
 -14742298.73048 -11473681.21546  21674548.7504                   21674547.9654
 11  8 18  2 23  0.0000000  0  8G26G10G29G12G05G02G30G25
   -314855.10946   -232342.32044  23813252.1954                   23813250.0864
 -12796225.29747  -9948664.03143  23644339.6644                   23644336.2234
  -6414748.71147  -4988076.38345  22689627.7344                   22689624.7114
 -20529818.15647 -15973033.12146  21531714.7424                   21531711.5474
 -24424189.48048 -19007039.84847  20459297.9844                   20459294.5594
 -25590933.82848 -19915502.52046  21705922.9774                   21705918.1134
 -13408795.93448 -10434764.53146  21697855.9924                   21697853.2664
 -14755693.93748 -11484119.03146  21671999.9144                   21671999.2384
 11  8 18  2 23 30.0000000  0  8G26G10G29G12G05G02G30G25
   -421944.97346   -315788.88744  23792873.8134                   23792871.4344
 -12704459.93447  -9877158.57443  23661801.9844                   23661798.2854
  -6508627.75048  -5061228.82845  22671762.8834                   22671760.1134
 -20480631.76648 -15934706.05946  21541074.6024                   21541071.4964
 -24411246.52748 -18996954.41447  20461760.7974                   20461757.5514
 -25564731.24648 -19895084.92646  21710909.2344                   21710904.2584
 -13401196.21548 -10428842.64546  21699302.0004                   21699299.6484
 -14768486.57848 -11494087.30946  21669565.5004                   21669564.8594
 11  8 18  2 24  0.0000000  0  9G26G10G29G12G05G02G15G30G25
   -528952.16046   -399171.03144  23772510.8674                   23772508.9304
 -12612506.43747  -9805506.53543  23679299.7584                   23679296.6094
  -6602407.35247  -5134303.80545  22653917.6724                   22653914.6024
 -20430988.24247 -15896022.79746  21550521.3754                   21550518.2464
 -24397759.74248 -18986445.20747  20464327.3364                   20464323.8594
 -25538417.66448 -19874580.84446  21715916.8204                   21715911.6844
   6146102.23056   4800450.10954  24682386.0784                   24682384.8524
 -13393000.68448 -10422456.50846  21700861.6804                   21700859.1174
 -14780677.95348 -11503587.07446  21667245.6334                   21667244.7424
 11  8 18  2 24 30.0000000  0  9G26G10G29G12G05G02G15G30G25
   -635876.37146   -482488.50444  23752163.6884                   23752161.4414
 -12520371.13347  -9733712.79343  23696832.8594                   23696829.4304
  -6696088.87547  -5207302.34845  22636090.1884                   22636087.9574
 -20380892.91448 -15856987.48846  21560054.4774                   21560051.2034
 -24383734.13348 -18975516.14547  20466996.3984                   20466992.8524
 -25511996.68748 -19853993.07446  21720944.5704                   21720939.2304
   6040558.28546   4718208.23444  24662301.6724                   24662301.1134
 -13384214.12548 -10415609.81646  21702533.8204                   21702531.0124
 -14792271.78948 -11512621.21546  21665039.2584                   21665038.4534
 11  8 18  2 25  0.0000000  0  9G26G10G29G12G05G02G15G30G25
   -742715.53546   -565739.70744  23731832.7274                   23731830.8634
 -12428057.72347  -9661780.27743  23714399.3444                   23714396.6414
  -6789671.73047  -5280224.01645  22618281.9844                   22618279.1214
 -20330349.84447 -15817603.28546  21569672.4144                   21569668.6174
 -24369172.84848 -18964169.67247  20469767.1414                   20469763.4144
 -25485469.27048 -19833322.35546  21725992.1334                   21725986.9804
   5934906.72746   4635882.50843  24642197.1954                   24642195.6294
 -13374839.18748 -10408304.66446  21704317.7584                   21704314.9414
 -14803269.74648 -11521191.02746  21662946.3834                   21662945.5704
 11  8 18  2 25 30.0000000  0  9G26G10G29G12G05G02G15G30G25
   -849466.93047   -648922.52744  23711518.8834                   23711516.4304
 -12335570.09047  -9589712.01644  23731999.9534                   23731997.3834
  -6883154.96147  -5353068.05145  22600492.8984                   22600489.5984
 -20279362.51247 -15777872.90246  21579374.7034                   21579371.5824
 -24354078.24248 -18952407.61747  20472639.7034                   20472636.2774
 -25458836.82448 -19812569.80146  21731060.7584                   21731055.4224
   5829148.94546   4553474.00443  24622071.5634                   24622070.7384
 -13364878.21548 -10400542.85246  21706213.3834                   21706210.1134
 -14813673.15648 -11529297.55546  21660966.5474                   21660966.2154
 11  8 18  2 26  0.0000000  0  9G26G10G29G12G05G02G15G30G25
   -956126.42247   -732033.73844  23691222.6094                   23691219.9804
 -12242909.91047  -9517509.30944  23749631.9844                   23749629.4654
  -6976535.97347  -5425832.42645  22582722.7034                   22582720.1484
 -20227932.48047 -15737797.56246  21589161.5314                   21589158.3134
 -24338451.05948 -18940230.57447  20475613.2034                   20475610.0084
 -25432098.70748 -19791734.89546  21736148.1954                   21736143.0704
   5723288.37546   4470985.37943  24601926.8754                   24601925.2234
 -13354331.96548 -10392324.98046  21708220.0314                   21708217.6414
 -14823481.85948 -11536940.68046  21659099.8674                   21659099.1604
 11  8 18  2 26 30.0000000  0  9G26G10G29G12G05G02G15G30G25
  -1062689.38347   -815069.74644  23670944.3364                   23670942.0944
 -12150078.70747  -9445173.34043  23767297.2194                   23767294.8554
  -7069811.70347  -5498514.76645  22564973.1564                   22564970.1764
 -20176061.21147 -15697378.39846  21599032.5784                   21599029.1174
 -24322291.84048 -18927638.94947  20478688.3984                   20478685.0204
 -25405254.10248 -19770817.02046  21741256.8984                   21741251.6764
   5617328.78146   4388419.58643  24581763.7194                   24581761.9304
 -13343200.87148 -10383651.39146  21710338.0554                   21710335.9304
 -14832695.21548 -11544119.90246  21657346.8134                   21657345.7814
 11  8 18  2 27  0.0000000  0  9G26G10G29G12G05G02G15G30G25
  -1169152.39147   -898027.84844  23650684.4064                   23650682.4104
 -12057079.31247  -9372706.31644  23784993.8984                   23784992.3014
  -7162980.33247  -5571113.64845  22547243.5634                   22547240.7304
 -20123750.99247 -15656617.19546  21608986.7504                   21608983.4844
 -24305602.36348 -18914634.15247  20481864.1954                   20481860.9844
 -25378302.97348 -19749816.13746  21746385.5084                   21746380.0944
   5511272.76647   4305778.68043  24561581.5084                   24561579.7774
 -13331486.52748 -10374523.32046  21712567.3754                   21712564.8364
 -14841313.77048 -11550835.65246  21655706.4924                   21655705.8204
 11  8 18  2 27 30.0000000  0  9G26G10G29G12G05G02G15G30G25
  -1275512.32846   -980905.62544  23630445.0474                   23630442.9614
 -11963914.92646  -9300110.75443  23802722.2344                   23802720.5234
  -7256040.55147  -5643628.05945  22529534.6724                   22529532.2854
 -20071005.25847 -15615516.62146  21619023.8444                   21619020.7504
 -24288384.83648 -18901217.87547  20485140.6254                   20485137.4614
 -25351246.20348 -19728732.94146  21751534.4144                   21751528.7734
   5405122.12546   4223064.01644  24541381.6254                   24541381.0004
 -13319190.95348 -10364942.33646  21714906.8284                   21714904.5474
 -14849338.58248 -11557088.74246  21654179.6094                   21654179.0784
 11  8 18  2 28  0.0000000  0  9G26G10G29G12G05G02G15G30G25
  -1381764.10247  -1063699.14144  23610226.0394                   23610223.6724
 -11870586.22347  -9227387.17643  23820482.5474                   23820480.6604
  -7348988.66047  -5716055.11345  22511847.5314                   22511844.7774
 -20017825.17248 -15574077.58646  21629143.8364                   21629140.7384
 -24270639.39148 -18887390.23847  20488517.3054                   20488513.8914
 -25324081.86348 -19707565.91846  21756703.5164                   21756698.1644
   5298880.96946   4140278.84043  24521164.2584                   24521162.9924
 -13306314.16848 -10354908.48046  21717357.5554                   21717354.7504
 -14856768.64848 -11562878.39546  21652765.8284                   21652765.1954
 11  8 18  2 28 30.0000000  0  9G26G10G29G12G05G02G15G30G25
  -1487903.75047  -1146405.27044  23590028.3444                   23590025.4384
 -11777095.45747  -9154537.27744  23838273.5314                   23838270.7664
  -7441822.46547  -5788393.08245  22494181.5474                   22494179.1174
 -19964212.10948 -15532301.17246  21639346.3054                   21639343.1844
 -24252367.37148 -18873152.28147  20491994.7734                   20491991.0314
 -25296809.78548 -19686314.93446  21761893.1254                   21761888.0864
   5192552.55946   4057425.66444  24500930.8364                   24500929.1564
 -13292857.20748 -10344422.52746  21719918.3914                   21719915.3284
 -14863604.00848 -11568204.63746  21651464.9774                   21651464.1094
 11  8 18  2 29  0.0000000  0  9G26G10G29G12G05G02G15G30G25
  -1593928.67247  -1229022.00444  23569852.1804                   23569849.8794
 -11683446.43747  -9081564.04743  23856094.6334                   23856092.1604
  -7534540.55147  -5860640.89545  22476538.1954                   22476535.0664
 -19910170.32048 -15490190.68446  21649629.9774                   21649626.7384
 -24233571.19948 -18858505.89847  20495571.1024                   20495567.6254
 -25269430.84848 -19664980.68446  21767103.1174                   21767098.2584
   5086138.39146   3974505.71144  24480680.4384                   24480679.2424
 -13278822.71947 -10333486.55545  21722588.5394                   21722586.0434
 -14869846.37148 -11573068.80946  21650277.0084                   21650276.2424
 11  8 18  2 29 30.0000000  0  9G26G10G29G12G05G02G15G30G25
  -1699835.44547  -1311546.69944  23549698.8674                   23549696.4024
 -11589641.96547  -9008469.68743  23873944.2274                   23873942.1994
  -7627141.30547  -5932797.27045  22458916.7734                   22458914.0044
 -19855702.41448 -15447748.16046  21659995.0474                   21659991.6094
 -24214252.60248 -18843452.43047  20499247.4064                   20499243.9734
 -25241945.54348 -19643563.54746  21772333.0084                   21772328.3484
   4979640.95346   3891520.85943  24460414.4534                   24460413.9264
 -13264212.39148 -10322101.88346  21725369.4694                   21725367.0004
 -14875496.47348 -11577471.47346  21649201.7814                   21649201.2234
 11  8 18  2 30  0.0000000  0  9G26G10G29G12G05G02G15G30G25
  -1805619.81247  -1393975.99644  23529568.6564                   23529566.9104
 -11495684.07847  -8935255.79343  23891824.7664                   23891821.5434
  -7719622.23847  -6004860.28545  22441317.6724                   22441315.0434
 -19800810.15648 -15404974.97746  21670440.1804                   21670437.3794
 -24194412.83648 -18827992.86347  20503022.6644                   20503019.3834
 -25214353.34048 -19622063.11746  21777584.3204                   21777578.6294
   4873063.47346   3808473.62943  24440133.2734                   24440131.6254
 -13249027.41048 -10310269.41446  21728258.6804                   21728256.0984
 -14880554.30548 -11581412.62546  21648239.6644                   21648238.6724
 11  8 18  2 30 30.0000000  0  9G26G10G29G12G05G02G15G30G25
  -1911278.00047  -1476306.98444  23509462.5634                   23509460.3984
 -11401574.90247  -8861923.96543  23909732.8364                   23909729.9414
  -7811981.07047  -6076828.15645  22423742.6564                   22423740.1374
 -19745495.85948 -15361872.92246  21680966.4454                   21680963.2464
 -24174053.64148 -18812128.54347  20506897.0634                   20506893.6484
 -25186653.94148 -19600479.16046  21782855.2894                   21782849.8594
   4766408.94946   3725366.37943  24419837.4454                   24419835.5984
 -13233269.04348 -10297990.17246  21731257.6484                   21731254.8404
 -14885020.32448 -11584892.63346  21647389.5634                   21647388.5004
 11  8 18  2 31  0.0000000  0  9G26G10G29G12G05G02G15G30G25
  -2016806.93046  -1558537.23844  23489380.9614                   23489378.0784
 -11307317.72747  -8788476.82443  23927669.3754                   23927666.6174
  -7904216.37547  -6148699.79745  22406190.7344                   22406188.1914
 -19689762.71947 -15318444.50046  21691572.0944                   21691568.8914
 -24153177.04348 -18795861.04747  20510869.4144                   20510866.3484
 -25158848.09047 -19578812.25046  21788146.7584                   21788141.2034
   4659679.33246   3642200.60243  24399527.1804                   24399525.3244
 -13216939.67647 -10285265.98846  21734364.7194                   21734362.1024
 -14888895.92648 -11587912.56646  21646652.0164                   21646651.1174
 11  8 18  2 31 30.0000000  0  9G26G10G29G12G05G02G15G30G25
  -2122203.39847  -1640664.29744  23469324.2344                   23469322.0664
 -11212915.62147  -8714916.76243  23945633.7114                   23945631.1914
  -7996326.60947  -6220473.94945  22388662.8754                   22388660.6254
 -19633613.83247 -15274692.12546  21702256.9304                   21702253.6024
 -24131785.27748 -18779192.14147  20514940.1884                   20514937.0044
 -25130935.96147 -19557062.53146  21793458.3834                   21793452.9344
   4552876.84046   3558978.02343  24379204.0474                   24379202.4064
 -13200041.34047 -10272098.44145  21737580.4144                   21737577.8094
 -14892182.05548 -11590473.18046  21646026.6884                   21646025.2234
 11  8 18  2 32  0.0000000  0  9G26G10G29G12G05G02G15G30G25
  -2227464.28947  -1722685.71544  23449293.6564                   23449291.4924
 -11118371.34047  -8641245.90643  23963625.1564                   23963622.3014
  -8088309.94547  -6292149.24645  22371159.0164                   22371156.0744
 -19577052.20347 -15230618.12546  21713020.0004                   21713017.3484
 -24109880.35548 -18762123.36347  20519108.7814                   20519105.5394
 -25102917.93747 -19535230.29346  21798790.0864                   21798784.1294
   4446003.85546   3475700.47743  24358866.2274                   24358864.8714
 -13182576.15248 -10258489.21145  21740904.2894                   21740901.6484
 -14894879.94948 -11592575.42246  21645513.1724                   21645512.4144
 11  8 18  2 32 30.0000000  0  9G26G10G29G12G05G02G15G30G25
  -2332585.85547  -1804598.56644  23429289.1884                   23429286.9654
 -11023687.57446  -8567466.36743  23981642.5084                   23981639.6684
  -8180164.51647  -6363724.19945  22353680.0554                   22353676.7384
 -19520080.01647 -15186224.22346  21723861.7734                   21723858.7544
 -24087464.25448 -18744656.26247  20523374.5554                   20523370.7344
 -25074794.35948 -19513315.80146  21804140.9144                   21804136.2734
   4339063.05547   3392370.12543  24338516.4454                   24338513.5904
 -13164546.02047 -10244439.73445  21744335.2114                   21744332.7384
 -14896990.46948 -11594219.97346  21645112.0394                   21645111.1374
 11  8 18  2 33  0.0000000  0  9G26G10G29G12G05G02G15G30G25
  -2437565.34047  -1886400.70344  23409313.3754                   23409310.5634
 -10928867.15246  -8493580.35543  23999685.7274                   23999683.4454
  -8271888.69147  -6435197.54745  22336224.8284                   22336222.2584
 -19462701.35247 -15141513.57846  21734780.4694                   21734777.1524
 -24064539.44548 -18726792.77347  20527736.5474                   20527733.2504
 -25046565.81247 -19491319.52746  21809513.2114                   21809507.6764
   4232056.51647   3308988.48043  24318152.9534                   24318151.0634
 -13145953.31247 -10229951.90646  21747872.9384                   21747870.4774
 -14898514.94948 -11595407.87546  21644821.7424                   21644820.8754
 11  8 18  2 33 30.0000000  0  9G26G10G29G12G05G02G15G30G25
  -2542395.99647  -1968086.88344  23389363.9224                   23389362.3284
 -10833909.83646  -8419587.66843  24017756.1334                   24017753.5204
  -8363477.85547  -6506565.69145  22318796.5004                   22318793.2894
 -19404915.78947 -15096485.88746  21745776.6414                   21745773.6374
 -24041105.06648 -18708532.21147  20532196.1724                   20532192.5004
 -25018229.31647 -19469239.13346  21814905.0634                   21814899.8484
   4124989.66447   3225559.90644  24297779.0004                   24297778.0004
 -13126796.90647 -10215024.82446  21751518.5704                   21751515.4184
 -14899451.38748 -11596137.55146  21644643.7814                   21644642.9224
 11  8 18  2 34  0.0000000  0  9G26G10G29G12G05G02G15G30G25
  -2647074.97347  -2049654.84844  23369444.3754                   23369442.3404
 -10738819.12946  -8345491.03943  24035851.1334                   24035849.0044
  -8454930.77747  -6577827.68445  22301393.2584                   22301390.5314
 -19346726.64847 -15051143.69546  21756849.6254                   21756846.2194
 -24017163.31248 -18689876.29347  20536751.8524                   20536748.7584
 -24989785.76647 -19447075.31646  21820317.6094                   21820312.8364
   4017864.61347   3142085.96544  24277393.6804                   24277392.5394
 -13107079.33647 -10199660.48445  21755270.6024                   21755267.8204
 -14899801.37548 -11596410.25846  21644576.7274                   21644575.7734
 11  8 18  2 34 30.0000000  0  9G26G10G29G12G05G02G15G30G25
  -2751601.19547  -2131103.79344  23349553.7814                   23349551.4414
 -10643599.98847  -8271294.33243  24053971.1884                   24053968.6024
  -8546247.96147  -6648983.90645  22284016.3674                   22284013.1604
 -19288139.13348 -15005491.10546  21767998.4844                   21767995.2504
 -23992718.83648 -18670828.64847  20541403.8134                   20541400.5314
 -24961237.62147 -19424830.00446  21825750.2894                   21825745.2774
   3910681.17647   3058566.54744  24256997.4694                   24256996.1254
 -13086805.18748 -10183862.43745  21759128.7974                   21759126.1134
 -14899568.40648 -11596228.70746  21644620.9924                   21644620.0984
 11  8 18  2 35  0.0000000  0  9G26G10G29G12G05G02G15G30G25
  -2855970.93447  -2212430.80944  23329692.8284                   23329690.2544
 -10548254.69946  -8196999.31643  24072114.1644                   24072112.4344
  -8637426.76647  -6720032.29345  22266665.6884                   22266662.7234
 -19229155.63348 -14959529.95746  21779222.8834                   21779219.7854
 -23967773.31648 -18651390.58247  20546150.8674                   20546147.1334
 -24932584.50847 -19402502.89146  21831202.9534                   21831197.9304
   3803442.80547   2975004.32844  24236590.4774                   24236588.1914
 -13065976.05547 -10167631.94145  21763092.0554                   21763089.9224
 -14898753.21548 -11595593.47746  21644775.9224                   21644775.2774
 11  8 18  2 35 30.0000000  0  9G26G10G29G12G05G02G15G30G25
  -2960180.41847  -2293632.98044  23309862.5164                   23309860.1334
 -10452786.07046  -8122608.17643  24090282.0634                   24090278.7814
  -8728465.24247  -6790971.34445  22249341.2814                   22249338.2114
 -19169778.94947 -14913262.41846  21790521.5234                   21790518.5084
 -23942328.72348 -18631563.62147  20550992.7194                   20550989.3014
 -24903826.66848 -19380094.19945  21836675.3834                   21836670.1804
   3696151.89847   2891401.18844  24216173.6724                   24216172.6134
 -13044593.82848 -10150970.46945  21767161.0944                   21767158.6024
 -14897356.65648 -11594505.23046  21645041.8524                   21645040.9104
 11  8 18  2 36  0.0000000  0  9G26G10G29G12G05G02G15G30G25
  -3064226.42247  -2374707.73044  23290062.4614                   23290060.6414
 -10357196.84447  -8048123.07443  24108471.5554                   24108469.4574
  -8819361.59447  -6861799.64146  22232044.4694                   22232041.6644
 -19110012.19947 -14866690.94546  21801894.9454                   21801891.9144
 -23916386.91048 -18611349.22347  20555929.3054                   20555925.9414
 -24874964.24248 -19357603.97346  21842167.5704                   21842162.2704
   3588811.06346   2807759.14544  24195746.5784                   24195745.7894
 -13022660.60948 -10133879.64845  21771335.1094                   21771332.5474
 -14895379.98448 -11592964.96146  21645418.0784                   21645417.1454
 11  8 18  2 36 30.0000000  0  9G26G10G29G12G05G02G15G30G25
  -3168105.00847  -2455652.03944  23270294.9384                   23270293.1954
 -10261489.21147  -7973545.69543  24126684.0394                   24126681.7274
  -8910113.68447  -6932515.52746  22214774.7114                   22214771.7734
 -19049857.72347 -14819817.34046  21813341.9534                   21813338.8444
 -23889949.92248 -18590748.96547  20560960.0864                   20560956.5784
 -24845997.21947 -19335032.26645  21847680.0234                   21847674.7074
   3481423.02746   2724080.31644  24175311.7194                   24175310.5784
 -13000178.43747 -10116361.07046  21775613.4924                   21775610.7464
 -14892824.17248 -11590973.40246  21645904.3524                   21645903.4534
 11  8 18  2 37  0.0000000  0  9G26G10G29G12G05G02G15G30G25
  -3271811.84847  -2536462.50444  23250560.3594                   23250558.6994
 -10165664.68446  -7898877.21943  24144918.7424                   24144916.6094
  -9000718.87147  -7003116.93446  22197533.0554                   22197530.3204
 -18989317.55547 -14772643.19146  21824862.5314                   21824859.1644
 -23863019.02348 -18569763.84846  20566084.7734                   20566081.1454
 -24816925.02347 -19312378.60546  21853212.1414                   21853206.8674
   3373991.08646   2640367.27344  24154867.8914                   24154866.4964
 -12977148.53148 -10098415.68746  21779995.8134                   21779992.6994
 -14889689.47748 -11588530.77746  21646500.7504                   21646499.8554
 11  8 18  2 37 30.0000000  0  9G26G10G29G12G05G02G15G30G25
  -3375344.91447  -2617137.55544  23230858.5004                   23230856.3554
 -10069727.47746  -7824120.95343  24163175.8134                   24163172.2934
  -9091176.34847  -7073603.24646  22180319.5004                   22180316.4144
 -18928396.31248 -14725172.10246  21836455.4774                   21836452.4734
 -23835597.55548 -18548396.45747  20571302.9844                   20571299.3634
 -24787748.52747 -19289643.66046  21858764.4774                   21858759.3054
   3266516.89546   2556621.29344  24134416.3524                   24134414.6294
 -12953574.24648 -10080046.11746  21784481.5634                   21784479.2384
 -14885978.42248 -11585639.03146  21647207.0554                   21647206.6644
 11  8 18  2 38  0.0000000  0  9G26G10G29G12G05G02G15G30G25
  -3478701.07447  -2697674.77044  23211190.8284                   23211189.3094
  -9973680.79746  -7749279.35543  24181452.1484                   24181449.5314
  -9181484.73447  -7143973.38746  22163134.6884                   22163131.0474
 -18867097.19148 -14677406.57846  21848120.1254                   21848117.1134
 -23807688.07048 -18526648.80546  20576614.1094                   20576610.6094
 -24758468.63347 -19266828.16046  21864336.2974                   21864330.7624
   3159002.02046   2472843.62943  24113956.7664                   24113955.1094
 -12929458.32048 -10061254.49245  21789070.5704                   21789068.1024
 -14881692.70348 -11582299.50846  21648022.8204                   21648021.9884
 11  8 18  2 38 30.0000000  0  9G26G10G29G12G05G02G15G30G25
  -3581875.36347  -2778070.26644  23191557.4454                   23191555.2664
  -9877525.59446  -7674353.19943  24199750.0474                   24199746.6024
  -9271640.48847  -7214224.58246  22145978.1564                   22145975.4494
 -18805421.75448 -14629347.81646  21859856.7194                   21859853.2544
 -23779291.46548 -18504521.57447  20582017.7424                   20582014.3444
 -24729084.01248 -19243931.04346  21869927.5864                   21869922.5084
   3051450.82046   2389037.68443  24093489.9694                   24093488.3284
 -12904801.59848 -10042041.47346  21793762.9844                   21793760.2194
 -14876832.25448 -11578512.14146  21648947.6414                   21648947.0864
 11  8 18  2 39  0.0000000  0  9G26G10G29G12G05G02G15G30G25
  -3684864.18047  -2858321.25444  23171958.9844                   23171957.1524
  -9781264.62146  -7599344.61743  24218067.5784                   24218065.1564
  -9361641.38347  -7284355.09046  22128851.2584                   22128848.4064
 -18743372.69948 -14580997.91446  21871664.1804                   21871661.3874
 -23750409.50448 -18482016.13747  20587513.8204                   20587510.0204
 -24699594.79348 -19220952.42645  21875539.5234                   21875534.1094
   2943866.36746   2305205.74243  24073017.2344                   24073015.7234
 -12879606.07448 -10022408.60246  21798557.4924                   21798554.4804
 -14871398.05548 -11574277.69546  21649981.4774                   21649980.8134
 11  8 18  2 39 30.0000000  0  9G26G10G29G12G05G02G15G30G25
  -3787663.86346  -2938424.85544  23152397.3914                   23152395.2704
  -9684900.09046  -7524255.36743  24236405.8984                   24236402.2854
  -9451485.51647  -7354363.46146  22111754.6174                   22111752.1294
 -18680952.94948 -14532359.16846  21883542.5704                   21883539.7234
 -23721044.43448 -18459134.25846  20593101.7814                   20593097.8324
 -24670000.56648 -19197891.98045  21881170.7584                   21881165.7304
   2836251.02746   2221349.74243  24052538.2814                   24052536.8834
 -12853873.81248 -10002357.48046  21803453.8834                   21803451.3484
 -14865391.34048 -11569597.14146  21651124.5784                   21651123.8594
 11  8 18  2 40  0.0000000  0  9G26G10G29G12G05G02G15G30G25
  -3890271.83247  -3018379.05944  23132871.6414                   23132868.8594
  -9588435.61746  -7449088.21943  24254761.6334                   24254759.2194
  -9541172.04747  -7424249.00446  22094688.1884                   22094685.6294
 -18618166.18048 -14483434.41846  21895490.1804                   21895487.0394
 -23691199.37548 -18435878.36347  20598780.8674                   20598777.7704
 -24640302.51648 -19174750.64146  21886822.3054                   21886817.2854
   2728606.71947   2137471.16844  24032054.6484                   24032053.4384
 -12827608.02748  -9981890.65246  21808452.2814                   21808449.3714
 -14858814.30548 -11564472.16446  21652376.2894                   21652375.2734
 11  8 18  2 40 30.0000000  0  9G26G10G29G12G05G02G15G30G25
  -3992685.08247  -3098181.55144  23113383.1804                   23113379.6644
  -9491874.39546  -7373845.67243  24273136.0864                   24273134.4024
  -9630699.33247  -7494010.46546  22077652.0554                   22077648.5204
 -18555016.14548 -14434226.60546  21907507.4224                   21907504.3094
 -23660876.91448 -18412250.46946  20604550.8674                   20604547.4924
 -24610501.42248 -19151529.02045  21892493.1804                   21892487.9384
   2620935.32447   2053571.49244  24011565.4614                   24011563.4384
 -12800811.55548  -9961010.28146  21813551.4534                   21813548.7074
 -14851669.06248 -11558904.44546  21653736.1804                   21653735.2114
 11  8 18  2 41  0.0000000  0  9G26G10G29G12G05G02G15G30G25
  -4094899.42647  -3177829.03944  23093931.9144                   23093929.4574
  -9395218.20746  -7298529.16843  24291529.6564                   24291526.8284
  -9720064.75847  -7563645.81646  22060645.7894                   22060643.1454
 -18491505.09448 -14384737.48046  21919593.1884                   21919589.8284
 -23630078.91848 -18388252.02046  20610411.7504                   20610407.9614
 -24580596.54347 -19128226.50845  21898183.9144                   21898178.5084
   2513240.27747   1969653.37544  23991071.3204                   23991069.9574
 -12773486.12548  -9939717.73445  21818751.2194                   21818748.6764
 -14843956.24648 -11552894.46146  21655203.3134                   21655202.4494
 11  8 18  2 41 30.0000000  0  9G26G10G29G12G05G02G15G30G25
  -4196911.00847  -3257318.54744  23074519.9064                   23074517.1254
  -9298469.72746  -7223140.73843  24309940.2664                   24309937.5394
  -9809266.10247  -7633153.30146  22043671.1334                   22043668.4384
 -18427635.59448 -14334969.05146  21931746.9454                   21931743.6764
 -23598807.04748 -18363884.31646  20616362.6254                   20616359.5084
 -24550587.89547 -19104843.14545  21903894.2504                   21903889.1484
   2405524.42647   1885719.02743  23970573.7344                   23970571.6484
 -12745633.68748  -9918014.53545  21824051.2734                   21824048.7814
 -14835676.96948 -11546443.07846  21656778.8674                   21656778.4844
 11  8 18  2 42  0.0000000  0  9G26G10G29G12G05G02G15G30G25
  -4298716.78547  -3336647.66044  23055147.1094                   23055144.4304
  -9201631.53146  -7147682.37543  24328367.8754                   24328365.7934
  -9898301.78947  -7702531.69546  22026728.4304                   22026725.2424
 -18363411.32448 -14284924.16446  21943968.6094                   21943965.5634
 -23567063.64548 -18339149.18446  20622403.1804                   20622399.6684
 -24520475.58247 -19081379.00045  21909624.6414                   21909619.4614
   2297789.95347   1801770.17244  23950073.3524                   23950070.1134
 -12717257.02048  -9895902.84845  21829451.2664                   21829448.8524
 -14826833.07848 -11539551.73446  21658462.0784                   21658461.3204
 11  8 18  2 42 30.0000000  0  9G26G10G29G12G05G02G15G30G25
  -4400313.14147  -3415813.59844  23035813.6954                   23035811.0664
  -9104705.68046  -7072155.72743  24346812.9924                   24346809.9104
  -9987169.40247  -7771779.13745  22009817.2894                   22009813.8984
 -18298834.76248 -14234604.77346  21956256.9304                   21956253.9964
 -23534851.05148 -18314048.45346  20628533.1094                   20628529.8164
 -24490259.84847 -19057834.26645  21915374.7894                   21915369.1604
   2190040.01247   1717809.25044  23929568.6094                   23929566.8674
 -12688358.22347  -9873384.30145  21834950.6094                   21834947.6844
 -14817425.69148 -11532221.29746  21660252.1334                   21660251.6994
 11  8 18  2 43  0.0000000  0  9G26G10G29G12G05G02G15G30G25
  -4501696.82847  -3494813.82444  23016521.0084                   23016518.9304
  -9007695.69546  -6996563.51643  24365272.8594                   24365270.5744
 -10075867.51247  -7840894.49246  21992938.4384                   21992935.6094
 -18233909.55548 -14184013.71945  21968611.8134                   21968608.6454
 -23502172.01648 -18288584.25847  20634751.8444                   20634747.8364
 -24459941.08647 -19034209.24645  21921143.9774                   21921139.0984
   2082276.61347   1633837.85544  23909061.6414                   23909059.7154
 -12658940.19548  -9850461.15645  21840548.5474                   21840546.0554
 -14807456.89148 -11524453.39846  21662149.3054                   21662148.0554
 11  8 18  2 43 30.0000000  0  9G26G10G29G12G05G02G15G30G25
  -4602862.74247  -3573644.36345  22997269.4844                   22997267.1254
  -8910602.84846  -6920906.75843  24383749.4614                   24383746.9884
 -10164392.57847  -7909875.01246  21976093.1644                   21976089.9384
 -18168637.28947 -14133152.21946  21981032.8054                   21981029.3444
 -23469027.27748 -18262757.18447  20641059.3134                   20641055.3594
 -24429517.82447 -19010502.80545  21926932.8834                   21926927.6524
   1974503.84846   1549859.17644  23888553.0474                   23888551.0204
 -12629003.83247  -9827134.10545  21846245.2424                   21846242.6484
 -14796926.68048 -11516248.03946  21664153.2734                   21664152.4494
 11  8 18  2 44  0.0000000  0  9G26G10G29G12G05G02G15G30G25
  -4703809.19147  -3652303.88344  22978060.2974                   22978057.0434
  -8813430.91446  -6845188.37143  24402240.3204                   24402238.0084
 -10252744.47747  -7978720.59446  21959280.0084                   21959276.7234
 -18103022.71547 -14082023.98846  21993519.1024                   21993515.8204
 -23435420.84448 -18236570.35247  20647454.1884                   20647450.7584
 -24398991.96947 -18986716.42245  21932742.0314                   21932736.0664
   1866722.79346   1465874.03544  23868043.3914                   23868041.0434
 -12598553.38347  -9803406.47345  21852039.3754                   21852036.6454
 -14785838.31248 -11507607.75446  21666263.4064                   21666261.8404
 11  8 18  2 44 30.0000000  0  9G26G10G29G12G05G02G15G30G25
  -4804531.63347  -3730788.84044  22958893.4454                   22958890.8874
  -8716181.62146  -6769409.72743  24420746.6884                   24420744.2304
 -10340919.81647  -8047428.60946  21942500.8134                   21942497.9184
 -18037067.74647 -14030630.51246  22006069.8914                   22006066.9104
 -23401354.05548 -18210024.78547  20653936.9534                   20653933.2894
 -24368362.35947 -18962849.19945  21938570.2034                   21938564.8054
   1758937.38346   1381885.50844  23847531.8754                   23847530.2464
 -12567590.05147  -9779279.21145  21857931.9694                   21857929.0944
 -14774192.23048 -11498532.87546  21668479.5084                   21668478.4144
 11  8 18  2 45  0.0000000  0  9G26G10G29G12G05G02G15G30G25
  -4905025.98047  -3809096.08645  22939769.9694                   22939767.9654
  -8618857.27746  -6693572.60243  24439267.1254                   24439263.8134
 -10428916.30947  -8115997.25046  21925755.1564                   21925752.0004
 -17970775.35547 -13978974.10946  22018684.8594                   22018681.7734
 -23366828.76648 -18183121.95347  20660506.6334                   20660502.9064
 -24337628.56647 -18938900.78545  21944419.4384                   21944413.7344
   1651150.57846   1297895.87544  23827021.1334                   23827019.3244
 -12536116.11748  -9754754.06645  21863921.2274                   21863918.8484
 -14761989.70348 -11489024.41046  21670801.4064                   21670800.3404
 11  8 18  2 45 30.0000000  0  9G26G10G29G12G05G02G15G30G25
  -5005288.57047  -3887222.72745  22920690.9064                   22920688.9534
  -8521459.71946  -6617678.42643  24457800.5084                   24457798.3984
 -10516731.78947  -8184424.87146  21909044.6094                   21909041.3834
 -17904147.75448 -13927056.51246  22031363.7584                   22031360.3834
 -23331846.94148 -18155863.37947  20667163.4144                   20667159.7974
 -24306790.42247 -18914871.05145  21950287.4304                   21950282.0784
   1543365.14846   1213907.33644  23806509.7734                   23806507.9024
 -12504133.87148  -9729832.83645  21870006.7344                   21870004.5124
 -14749232.21948 -11479083.49646  21673228.9534                   21673228.1644
 11  8 18  2 46  0.0000000  0 10G26G10G29G12G05G02G15G30G25G21
  -5105316.72747  -3965166.68444  22901656.1334                   22901653.2894
  -8423992.45346  -6541729.93743  24476348.0234                   24476345.3524
 -10604365.02347  -8252710.47346  21892368.7814                   21892365.2074
 -17837189.36347 -13874881.14546  22044105.4924                   22044102.1174
 -23296411.66848 -18128251.46547  20673906.3204                   20673902.8244
 -24275848.87547 -18890760.75045  21956175.3834                   21956170.1604
   1435583.09846   1129921.40644  23785999.7734                   23785997.4574
 -12471646.58247  -9704518.06645  21876189.6174                   21876186.5234
 -14735922.07848 -11468711.94946  21675761.8524                   21675761.2544
   6201880.53516                  25149573.211
 11  8 18  2 46 30.0000000  0 10G26G10G29G12G05G02G15G30G25G21
  -5205109.14847  -4042926.94945  22882665.6414                   22882663.6024
  -8326460.42646  -6465730.96143  24494908.0784                   24494905.5634
 -10691816.16847  -8320854.18446  21875727.4774                   21875724.3364
 -17769905.26247 -13822451.98046  22056908.9924                   22056906.0594
 -23260527.55148 -18100289.80146  20680735.0084                   20680731.6564
 -24244806.23847 -18866571.69145  21962082.4774                   21962077.5664
   1327804.87946   1045938.45744  23765490.8524                   23765488.4024
 -12438658.80147  -9678813.30145  21882466.4064                   21882464.2074
 -14722063.18048 -11457912.80546  21678399.2734                   21678398.5124
   6134091.879 6                  25136672.469
 11  8 18  2 47  0.0000000  0 10G26G10G29G12G05G02G15G30G25G21
  -5304664.23847  -4120502.27745  22863720.8134                   22863718.9574
  -8228867.72746  -6389684.72743  24513478.7424                   24513476.9884
 -10779084.98847  -8388855.84446  21859120.8284                   21859117.3324
 -17702300.72747 -13769773.12146  22069773.9454                   22069770.5784
 -23224199.25048 -18071982.02046  20687648.2424                   20687644.3634
 -24213664.34047 -18842305.28145  21968008.9774                   21968003.9224
   1220031.29747    961959.15244  23744981.8674                   23744979.9694
 -12405175.28947  -9652722.24645  21888838.3284                   21888835.4734
 -14707659.18448 -11446688.91046  21681140.1174                   21681139.3554
   6066327.16446   4734517.80153  25123777.9454                   25123776.2384
 11  8 18  2 47 30.0000000  0 10G26G10G29G12G05G02G15G30G25G21
  -5403979.76647  -4197890.95344  22844822.1254                   22844819.4264
  -8131218.08646  -6313594.12143  24532061.2974                   24532059.0984
 -10866170.89547  -8456714.97346  21842548.8524                   21842545.7304
 -17634379.63747 -13716847.60946  22082698.3984                   22082695.6604
 -23187430.23448 -18043330.83646  20694644.8524                   20694641.6844
 -24182424.87148 -18817962.84045  21973953.5314                   21973948.2384
   1112263.88347    877984.61344  23724474.3834                   23724471.7974
 -12371199.78547  -9626247.82045  21895303.7734                   21895300.9884
 -14692713.14848 -11435042.64146  21683984.0474                   21683983.1644
   5998584.60946   4681731.48443  25110886.8444                   25110884.2974
 11  8 18  2 48  0.0000000  0 10G26G10G29G12G05G02G15G30G25G21
  -5503050.91847  -4275089.19144  22825969.1644                   22825966.9414
  -8033512.93046  -6237460.27042  24550654.2424                   24550651.3054
 -10953070.75447  -8524429.12146  21826012.2034                   21826008.8874
 -17566144.52047 -13663677.42245  22095683.1954                   22095679.7704
 -23150221.64848 -18014337.11747  20701725.3984                   20701722.1764
 -24151086.16448 -18793543.06645  21979917.1094                   21979911.6134
   1004506.24647    794017.69944  23703968.3594                   23703966.5084
 -12336733.79347  -9599391.20745  21901862.5634                   21901859.4104
 -14677225.61748 -11422974.43046  21686931.5084                   21686930.6174
   5930864.54346   4628962.62943  25097999.9774                   25097997.1414
 11  8 18  2 48 30.0000000  0  9G26G29G12G05G02G15G30G25G21
  -5601874.13747  -4352094.25844  22807163.8284                   22807161.0904
 -11039781.97748  -8591996.30946  21809511.7894                   21809508.0704
 -17497597.97747 -13610264.56246  22108727.2584                   22108723.8834
 -23112575.49248 -17985002.44546  20708889.4454                   20708885.5124
 -24119648.27348 -18769046.01245  21985899.8204                   21985894.0164
    896761.52047    710060.84044  23683465.4924                   23683462.7814
 -12301779.65648  -9572154.21145  21908514.0394                   21908511.3014
 -14661198.13748 -11410485.47746  21689981.1724                   21689980.5634
   5863166.61746   4576211.05942  25085117.3444                   25085113.5594
 11  8 18  2 49  0.0000000  0  9G26G29G12G05G02G15G30G25G21
  -5700443.97747  -4428901.87545  22788406.3754                   22788404.0904
 -11126301.02048  -8659413.73046  21793047.9614                   21793044.6254
 -17428741.56247 -13556610.23446  22121830.6174                   22121827.3204
 -23074492.63748 -17955327.47746  20716136.4924                   20716132.9574
 -24088109.50848 -18744470.34445  21991901.0004                   21991895.8954
    789034.18447    626117.51244  23662965.7504                   23662962.5824
 -12266338.32048  -9544537.57045  21915258.2974                   21915255.5514
 -14644630.73048 -11397575.80946  21693133.6254                   21693133.1294
   5795491.54346   4523477.28942  25072240.0474                   25072235.5984
 11  8 18  2 49 30.0000000  0  9G26G29G12G05G02G15G30G25G21
  -5798754.70347  -4505507.58645  22769698.9534                   22769695.6174
 -11212623.53948  -8726678.02346  21776620.9924                   21776617.7734
 -17359576.04347 -13502715.05146  22134992.4614                   22134989.2304
 -23035973.41848 -17925312.49647  20723466.4064                   20723462.8204
 -24056467.48848 -18719814.24645  21997922.2894                   21997916.6134
    681329.10247    542191.52744  23642469.5474                   23642467.0554
 -12230410.12147  -9516541.57445  21922095.1414                   21922091.9534
 -14627523.03948 -11384245.14146  21696389.4694                   21696388.4144
   5727841.31646   4470762.86343  25059366.2974                   25059363.3324
 11  8 18  2 50  0.0000000  0  9G26G29G12G05G02G15G30G25G21
  -5896799.97747  -4581906.47344  22751041.2344                   22751037.7234
 -11298744.50848  -8793785.25846  21760232.6414                   21760229.2664
 -17290101.65247 -13448579.19546  22148212.5944                   22148209.2974
 -22997016.96948 -17894956.81246  20730879.4774                   20730875.9924
 -24024719.60948 -18695075.62945  22003963.5554                   22003957.9924
    573652.02747    458287.37144  23621979.5164                   23621976.8594
 -12193994.95748  -9488166.12145  21929024.5554                   21929022.0474
 -14609873.99648 -11370492.63346  21699747.8594                   21699747.3714
   5660217.78946   4418069.29343  25046497.4064                   25046495.4104
 11  8 18  2 50 30.0000000  0  9G26G29G12G05G02G15G30G25G21
  -5994574.27747  -4658094.19144  22732434.8444                   22732432.7734
 -11384659.78548  -8860732.21546  21743883.4694                   21743880.4884
 -17220319.76647 -13394203.71145  22161492.0394                   22161489.3404
 -22957623.96548 -17864260.95346  20738375.7424                   20738372.2154
 -23992863.89547 -18670253.01245  22010025.5004                   22010020.8984
    466007.52347    374408.59044  23601495.3054                   23601492.7424
 -12157093.50848  -9459411.74245  21936046.7034                   21936044.1294
 -14591683.53948 -11356318.26246  21703209.6954                   21703208.6724
   5592622.07446   4365397.49642  25033633.3984                   25033631.2774
 11  8 18  2 51  0.0000000  0  9G26G29G12G05G02G15G30G25G21
  -6092075.64847  -4734069.24645  22713881.3984                   22713878.9924
 -11470369.01648  -8927518.61346  21727573.5394                   21727570.7664
 -17150234.80147 -13339592.07045  22174828.6174                   22174825.3404
 -22917798.58248 -17833228.17646  20745954.2664                   20745950.7734
 -23960901.42648 -18645347.18745  22016108.3054                   22016103.1804
    358396.98447    290556.26244  23581017.6174                   23581015.1454
 -12119709.86348  -9430281.62145  21943160.6644                   21943158.3054
 -14572954.94148 -11341724.53946  21706773.5944                   21706772.7424
   5525052.10546   4312745.56342  25020775.9304                   25020771.9694
 11  8 18  2 51 30.0000000  0  9G26G29G12G05G02G15G30G25G21
  -6189300.69547  -4809828.98845  22695380.0784                   22695377.1564
 -11555870.22348  -8994142.91046  21711303.1024                   21711300.3524
 -17079850.09447 -13284746.87145  22188222.4924                   22188219.0204
 -22877543.35248 -17801860.45746  20753614.1644                   20753611.1054
 -23928832.55548 -18620358.46945  22022210.2194                   22022205.0554
    250822.85546    206732.28944  23560546.9614                   23560543.2114
 -12081847.13747  -9400778.20745  21950365.8444                   21950362.8164
 -14553690.40248 -11326713.22346  21710439.6564                   21710438.5314
   5457506.99646   4260113.09442  25007922.7814                   25007919.3954
 11  8 18  2 52  0.0000000  0  9G26G29G12G05G02G15G30G25G21
  -6286246.68447  -4885371.29344  22676931.7424                   22676929.8284
 -11641162.17648  -9060604.15646  21695072.5944                   21695069.4804
 -17009169.68747 -13229671.23845  22201672.4064                   22201669.6334
 -22836861.50848 -17770160.31246  20761356.1094                   20761352.5984
 -23896658.42648 -18595287.72745  22028332.7974                   22028327.8134
    143287.04347    122938.18044  23540083.1804                   23540080.5314
 -12043508.89147  -9370904.25445  21957661.3204                   21957658.3984
 -14533892.69948 -11311286.43746  21714206.6564                   21714205.9144
   5389984.92645   4207498.74242  24995073.8754                   24995070.1994
 11  8 18  2 52 30.0000000  0  9G26G29G12G05G02G15G30G25G21
  -6382910.60547  -4960693.79345  22658537.3674                   22658534.7384
 -11726243.16048  -9126901.00446  21678882.0704                   21678879.0904
 -16938197.46147 -13174368.22745  22215178.0314                   22215175.2704
 -22795755.87948 -17738129.94146  20769178.1564                   20769174.4774
 -23864379.19948 -18570135.09445  22034475.4924                   22034470.2974
     35792.03547     39175.87544  23519628.1414                   23519625.3714
 -12004698.32847  -9340662.26645  21965046.7274                   21965044.2384
 -14513564.22748 -11295446.08646  21718075.2504                   21718074.4494
   5322485.25046   4154901.66842  24982229.1564                   24982225.3634
 11  8 18  2 53  0.0000000  0  9G26G29G12G05G02G15G30G25G21
  -6479288.09047  -5035793.07845  22640197.6484                   22640194.6914
 -11811110.13348  -9193031.07846  21662732.4384                   21662729.3054
 -16866935.42647 -13118839.39145  22228738.6644                   22228735.4734
 -22754228.22748 -17705770.72346  20777080.6484                   20777076.8444
 -23831994.09048 -18544899.95745  22040638.5554                   22040633.1374
    -71658.63346    -44551.85944  23499180.3674                   23499179.1054
 -11965417.25447  -9310053.64845  21972521.5004                   21972518.9694
 -14492706.08248 -11279192.99646  21722044.5164                   21722043.0904
   5255007.31346   4102321.62142  24969387.3594                   24969385.3404
 11  8 18  2 53 30.0000000  0  9G26G29G12G05G02G15G30G25G21
  -6575376.53547  -5110667.15645  22621911.9774                   22621909.4924
 -11895761.98848  -9258993.52346  21646623.8364                   21646620.4264
 -16795387.68747 -13063087.93445  22242353.5474                   22242350.7774
 -22712281.78548 -17673085.17246  20785062.6174                   20785058.9734
 -23799503.90248 -18519582.94145  22046821.1254                   22046816.1454
   -179062.97746   -128243.50844  23478741.6024                   23478739.4104
 -11925669.33247  -9279081.26645  21980084.9924                   21980082.8484
 -14471321.16048 -11262529.42246  21726113.5474                   21726112.6174
   5187549.98045   4049757.60943  24956550.9454                   24956547.6454
 11  8 18  2 54  0.0000000  0  9G26G29G12G05G02G15G30G25G21
  -6671172.33247  -5185313.19145  22603682.7274                   22603680.3444
 -11980196.72348  -9324786.78146  21630556.3524                   21630553.2344
 -16723557.64847 -13007116.50845  22256022.6644                   22256019.7074
 -22669919.07848 -17640075.26646  20793123.8284                   20793120.3794
 -23766908.50448 -18494183.93445  22053023.8134                   22053018.4304
   -286418.21946   -211896.89144  23458313.0084                   23458310.6914
 -11885457.40247  -9247747.31245  21987737.3984                   21987734.9064
 -14449411.44948 -11245456.93046  21730283.1254                   21730281.9924
   5120112.82146   3997209.37143  24943717.8284                   24943715.6764
 11  8 18  2 54 30.0000000  0  9G26G29G12G05G02G15G30G25G21
  -6766672.57847  -5259728.94545  22585509.2034                   22585507.1644
 -12064412.60948  -9390409.50046  21614530.8674                   21614527.5984
 -16651448.83647 -12950927.84445  22269743.8594                   22269741.2274
 -22627143.61748 -17606743.73446  20801263.9454                   20801259.8984
 -23734208.60248 -18468703.49645  22059246.3594                   22059240.9494
   -393722.27347   -295510.36744  23437893.3364                   23437892.1884
 -11844785.02047  -9216054.56245  21995477.4224                   21995474.8914
 -14426979.60248 -11227977.57046  21734551.9614                   21734551.1134
   5052693.74646   3944675.13743  24930888.9454                   24930885.8754
 11  8 18  2 55  0.0000000  0  9G26G29G12G05G02G15G30G25G21
  -6861872.69547  -5333910.80545  22567393.7194                   22567390.8794
 -12148406.50848  -9455859.24646  21598547.3204                   21598543.8554
 -16579063.26247 -12894523.53145  22283519.0394                   22283516.1644
 -22583956.08648 -17573091.10546  20809482.3984                   20809478.8674
 -23701403.10248 -18443140.77345  22065488.7424                   22065483.2664
   -500971.10547   -379080.82444  23417485.1954                   23417482.8594
 -11803653.62947  -9184004.15245  22003304.2814                   22003301.5394
 -14404026.45748 -11210092.02346  21738919.3204                   21738918.8444
   4985293.72346   3892155.77743  24918062.5314                   24918060.1564
 11  8 18  2 55 30.0000000  0  9G26G29G12G05G02G15G30G25G21
  -6956768.97747  -5407855.93045  22549335.5554                   22549332.3984
 -12232176.24248  -9521134.32446  21582606.1954                   21582603.1564
 -16506404.16047 -12837906.07445  22297345.3984                   22297342.7274
 -22540358.91848 -17539119.27746  20817778.6024                   20817774.7114
 -23668491.55148 -18417495.41845  22071751.5784                   22071746.3054
   -608161.57046   -462605.80544  23397086.8204                   23397085.0904
 -11762066.07847  -9151598.29345  22011218.2504                   22011215.7034
 -14380553.97348 -11191801.79746  21743386.0474                   21743385.2934
   4917911.92646   3839650.66843  24905240.3914                   24905237.0044
 11  8 18  2 56  0.0000000  0  9G26G29G12G05G02G15G30G25G21
  -7051358.25447  -5481561.84445  22531335.4694                   22531333.5354
 -12315720.02348  -9586233.32046  21566708.4924                   21566704.8754
 -16433475.12147 -12781078.27345  22311223.5004                   22311220.9184
 -22496355.58248 -17504830.96146  20826152.0704                   20826148.7274
 -23635474.52348 -18391767.86345  22078034.8984                   22078029.7934
   -715291.76246   -546083.82044  23376701.1564                   23376699.3954
 -11720025.69147  -9118839.55945  22019217.8984                   22019215.9844
 -14356564.81248 -11173108.96146  21747951.0394                   21747950.4064
   4850547.12546   3787158.79343  24892420.9614                   24892418.5634
 11  8 18  2 56 30.0000000  0  9G26G29G12G05G02G15G30G25G21
  -7145637.77047  -5555026.34845  22513394.2664                   22513392.1414
 -12399036.23848  -9651155.00046  21550853.6884                   21550850.4964
 -16360279.93047 -12724043.07445  22325152.2814                   22325149.0274
 -22451948.63348 -17470228.14546  20834602.5234                   20834599.1254
 -23602352.74648 -18365958.69145  22084337.8914                   22084332.2704
   -822359.11747   -629512.85244  23356326.9924                   23356324.3794
 -11677535.81247  -9085730.59845  22027303.6954                   22027300.9224
 -14332061.59448 -11154015.55546  21752614.0234                   21752613.4184
   4783198.15646   3734679.23043  24879604.1484                   24879601.7624
 11  8 18  2 57  0.0000000  0  9G26G29G12G05G02G15G30G25G21
  -7239604.94147  -5628247.48445  22495513.4534                   22495510.7114
 -12482123.82448  -9715898.52746  21535042.5554                   21535039.2154
 -16286823.03547 -12666803.96945  22339130.8914                   22339127.2464
 -22407142.04748 -17435313.92246  20843128.7894                   20843125.0944
 -23569126.71148 -18340068.27345  22090660.5474                   22090654.6294
   -929361.79747   -712891.49244  23335965.1254                   23335961.9844
 -11634600.42247  -9052274.45345  22035473.6334                   22035471.5664
 -14307047.49248 -11134524.05946  21757374.1644                   21757373.0434
   4715863.28546   3682210.62943  24866791.6094                   24866789.1954
 11  8 18  2 57 30.0000000  0  9G26G29G12G05G02G15G30G25G21
  -7333255.42647  -5701221.85545  22477692.4454                   22477689.3444
 -12564979.96548  -9780461.71546  21519275.5314                   21519272.3674
 -16213106.62947 -12609362.63345  22353158.7344                   22353155.7234
 -22361937.35547 -17400089.50046  20851731.0084                   20851727.5704
 -23535795.80548 -18314096.15645  22097003.0474                   22096997.5234
  -1036296.38347   -796217.06644  23315615.8284                   23315613.3874
 -11591221.82847  -9018472.98045  22043728.7504                   22043726.5474
 -14281523.98048 -11114635.62946  21762230.9534                   21762230.1884
   4648542.45347   3629752.94944  24853980.9384                   24853977.2664
 11  8 18  2 58  0.0000000  0  9G26G29G12G05G02G15G30G25G21
  -7426585.27347  -5773946.36345  22459931.8204                   22459929.3204
 -12647601.93048  -9844842.42246  21503553.2584                   21503549.9454
 -16139133.34047 -12551721.12145  22367235.0394                   22367231.6954
 -22316336.55948 -17364556.40246  20860408.6644                   20860405.1254
 -23502359.28148 -18288041.71945  22103364.9694                   22103360.1374
  -1143159.60946   -879487.04344  23295279.6564                   23295277.0314
 -11547402.17247  -8984327.80945  22052067.2114                   22052064.5824
 -14255492.62548 -11094351.47346  21767184.4844                   21767183.3324
   4581235.55546   3577306.15243  24841172.0084                   24841169.5784
 11  8 18  2 58 30.0000000  0  9G26G29G12G05G02G15G30G25G21
  -7519590.55547  -5846417.97745  22442233.9384                   22442231.4494
 -12729987.27748  -9909038.77346  21487875.6174                   21487871.8364
 -16064906.07847 -12493881.72345  22381359.8204                   22381356.9414
 -22270342.05548 -17328716.52346  20869160.9924                   20869157.4614
 -23468816.84448 -18261904.75445  22109748.8054                   22109742.9454
  -1249948.06647   -962698.77344  23274959.0784                   23274955.8874
 -11503144.08647  -8949841.01645  22060489.6414                   22060487.5124
 -14228955.18748 -11073672.96946  21772234.2424                   21772234.0044
   4513942.26646   3524869.99643  24828366.8054                   24828363.4414
 11  8 18  2 59  0.0000000  0  9G26G29G12G05G02G15G30G25G21
  -7612267.96947  -5918634.10545  22424597.6644                   22424595.4304
 -12812133.87548  -9973049.07446  21472243.7584                   21472240.1724
 -15990428.02347 -12435846.89845  22395533.0314                   22395530.0124
 -22223956.41048 -17292571.87146  20877988.2974                   20877984.2234
 -23435168.39848 -18235685.19945  22116151.7974                   22116146.0394
  -1356658.86347  -1045849.96144  23254652.5084                   23254649.4104
 -11458450.61347  -8915014.94145  22068994.3364                   22068991.8754
 -14201914.02348 -11052601.95346  21777380.2424                   21777379.3284
   4446661.99646   3472443.96943  24815563.1804                   24815560.4574
 11  8 18  2 59 30.0000000  0  9G26G29G12G05G02G15G30G25G21
  -7704613.98847  -5990591.99645  22407024.9454                   22407022.4064
 -12894039.58248 -10036871.66446  21456657.7344                   21456654.3244
 -15915702.61747 -12377619.34045  22409752.5704                   22409749.6484
 -22177182.25048 -17256124.47346  20886888.8914                   20886885.0314
 -23401414.12548 -18209383.17245  22122574.7194                   22122569.4264
  -1463289.59447  -1128938.77044  23234361.0554                   23234358.3014
 -11413324.80547  -8879852.00445  22077581.2344                   22077578.7194
 -14174371.53148 -11031140.29346  21782621.5864                   21782620.8444
   4379393.72746   3420027.25443  24802762.6334                   24802759.4344
 11  8 18  3  0  0.0000000  0  9G26G29G12G05G02G15G30G25G21
  -7796624.50847  -6062288.45745  22389515.9614                   22389513.1724
 -12975701.35948 -10100504.19946  21441117.7584                   21441114.4774
 -15840732.46147 -12319201.04345  22424018.5554                   22424016.1094
 -22130021.19548 -17219375.59446  20895863.2034                   20895859.7814
 -23367553.27348 -18182998.09445  22129018.1024                   22129013.1764
  -1569836.35947  -1211962.15644  23214086.1254                   23214083.4494
 -11367768.88747  -8844353.89845  22086250.5164                   22086248.2624
 -14146329.14148 -11009289.09046  21787957.9064                   21787957.1374
   4312137.35246   3367619.85943  24789964.4774                   24789961.5664
 11  8 18  3  0 30.0000000  0  9G26G29G12G05G02G15G30G25G21
  -7888296.47747  -6133721.12545  22372071.1414                   22372069.0984
 -13057118.02048 -10163945.73046  21425624.9614                   21425621.4734
 -15765521.17647 -12260594.85545  22438331.0784                   22438328.5084
 -22082476.62148 -17182327.87946  20904910.6804                   20904907.0864
 -23333586.12948 -18156530.20345  22135482.1334                   22135476.8404
  -1676297.45347  -1294918.78544  23193827.3364                   23193824.5744
 -11321786.56247  -8808523.54345  22095000.7344                   22094997.7664
 -14117789.91048 -10987050.74246  21793388.6334                   21793388.0554
   4244891.55946   3315220.64543  24777167.6094                   24777163.6214
 11  8 18  3  1  0.0000000  0  9G26G29G12G05G02G15G30G25G21
  -7979626.39547  -6204887.25045  22354691.6884                   22354688.8244
 -13138286.78148 -10227194.09846  21410178.8204                   21410175.1804
 -15690071.87547 -12201803.21545  22452688.3594                   22452685.3524
 -22034551.33647 -17144983.50446  20914030.5864                   20914026.4344
 -23299512.29747 -18129979.17245  22141965.9694                   22141960.9694
  -1782669.20747  -1377805.80544  23173585.0634                   23173581.9024
 -11275380.49647  -8772362.98045  22103831.6484                   22103828.5984
 -14088755.82048 -10964426.78946  21798913.5474                   21798912.9494
   4177655.66846   3262829.18843  24764373.5314                   24764369.5434
 11  8 18  3  1 30.0000000  0  9G26G29G12G05G02G15G30G25G21
  -8070609.90247  -6275783.44945  22337378.1024                   22337375.7734
 -13219205.01248 -10290247.24246  21394780.3834                   21394777.2234
 -15614386.91447 -12142827.93045  22467090.9924                   22467088.2194
 -21986246.67248 -17107343.50046  20923222.2974                   20923219.0314
 -23265331.27748 -18103344.62545  22148470.8204                   22148465.5394
  -1888948.09047  -1460620.44144  23153360.9694                   23153358.3714
 -11228552.89147  -8735873.95345  22112742.4304                   22112739.9494
 -14059228.35548 -10941418.37946  21804532.4144                   21804531.9804
   4110430.25446   3210445.87543  24751580.1884                   24751577.8874
 11  8 18  3  2  0.0000000  0  9G26G29G12G05G02G15G30G25G21
  -8161244.14547  -6346407.49645  22320131.1024                   22320128.7894
 -13299871.24648 -10353104.03946  21379430.6334                   21379427.0824
 -15538470.39547 -12083672.21545  22481537.5234                   22481534.1254
 -21937565.54348 -17069410.15246  20932486.1884                   20932482.8164
 -23231043.16048 -18076626.62145  22154995.8054                   22154989.9104
  -1995131.99247  -1543361.07045  23133155.1564                   23133152.7774
 -11181307.46547  -8699059.34445  22121732.8754                   22121730.5314
 -14029210.52048 -10918027.86346  21810244.7344                   21810244.0204
   4043213.76246   3158069.55143  24738789.5314                   24738785.9384
 11  8 18  3  2 30.0000000  0  9G26G29G12G05G02G15G30G25G21
  -8251525.10547  -6416756.27045  22302950.9224                   22302948.7584
 -13380282.41048 -10415762.07846  21364128.7194                   21364125.0594
 -15462324.68747 -12024337.91445  22496027.2664                   22496024.9184
 -21888510.36748 -17031185.33646  20941821.2274                   20941817.1254
 -23196647.32047 -18049824.66845  22161540.8754                   22161535.6644
  -2101217.11747  -1626024.74245  23112967.6954                   23112965.2894
 -11133646.68447  -8661921.09045  22130802.8134                   22130799.6604
 -13998704.08248 -10894256.63346  21816049.9304                   21816049.0984
   3976006.14046   3105700.04342  24725999.3984                   24725996.0784
 11  8 18  3  3  0.0000000  0  9G26G29G12G05G02G15G30G25G21
  -8341449.48447  -6486827.16045  22285838.7974                   22285836.6294
 -13460436.91048 -10478220.12546  21348875.8364                   21348872.6334
 -15385953.28147 -11964827.74245  22510560.3914                   22510557.5354
 -21839083.68447 -16992671.04346  20951226.4844                   20951222.9304
 -23162143.73048 -18022938.77745  22168106.5704                   22168101.5904
  -2207201.15247  -1708609.64145  23092799.7894                   23092797.4804
 -11085573.64547  -8624461.59045  22139950.1564                   22139947.6524
 -13967711.62148 -10870106.67246  21821947.6094                   21821946.9144
   3908806.41846   3053336.80943  24713211.9064                   24713208.5984
 11  8 18  3  3 30.0000000  0  9G26G29G12G05G02G15G30G25G21
  -8431014.37947  -6556617.96545  22268795.5634                   22268793.0124
 -13540333.00848 -10540476.82046  21333671.9844                   21333668.5904
 -15309360.28147 -11905144.90245  22525135.4064                   22525132.8794
 -21789288.66447 -16953869.73046  20960702.2894                   20960698.9064
 -23127533.08648 -17995969.45345  22174693.0554                   22174687.7974
  -2313081.85547  -1791114.02345  23072650.7734                   23072648.9144
 -11037092.11347  -8586683.80145  22149176.7734                   22149173.5164
 -13936236.10948 -10845580.30546  21827937.1024                   21827936.6644
   3841613.39146   3000978.74643  24700425.8134                   24700422.4144
 11  8 18  3  4  0.0000000  0  9G26G29G12G05G02G15G30G25G21
  -8520215.03147  -6626124.94145  22251821.0234                   22251818.4924
 -13619966.93448 -10602529.23446  21318518.0314                   21318514.6764
 -15232547.09047 -11845290.48845  22539752.6884                   22539749.5824
 -21739126.85948 -16914782.60946  20970248.1024                   20970243.8714
 -23092814.03948 -17968915.65645  22181300.1174                   22181294.5274
  -2418854.66447  -1873534.32845  23052523.0234                   23052521.0084
 -10988203.74647  -8548588.96545  22158479.2584                   22158477.1484
 -13904278.46548 -10820678.25446  21834018.3134                   21834017.7384
   3774427.64846   2948626.30943  24687640.6564                   24687636.1094
 11  8 18  3  4 30.0000000  0  9G26G29G12G05G02G15G30G25G21
  -8609047.97747  -6695345.37945  22234916.2034                   22234913.4184
 -13699336.48448 -10664375.62946  21303414.6024                   21303411.3984
 -15155516.96947 -11785267.02745  22554411.0164                   22554408.3284
 -21688600.67248 -16875411.55146  20979862.3444                   20979859.0044
 -23057986.03547 -17941776.97745  22187927.0474                   22187922.3094
  -2524516.65647  -1955868.30145  23032416.0314                   23032413.5004
 -10938911.54347  -8510179.49245  22167859.4384                   22167857.1954
 -13871841.18748 -10795402.46146  21840191.2424                   21840190.1334
   3707248.59446   2896279.09443  24674856.9304                   24674853.3404
 11  8 18  3  5  0.0000000  0  9G26G29G12G05G02G15G30G25G21
  -8697510.57447  -6764277.23445  22218082.7034                   22218079.7854
 -13778440.57848 -10726015.18446  21288361.3134                   21288358.3554
 -15078274.30547 -11725077.96545  22569109.6254                   22569107.0044
 -21637713.62148 -16835759.31246  20989546.3914                   20989542.9964
 -23023050.09847 -17914554.18045  22194575.5394                   22194570.2734
  -2630065.92647  -2038114.44145  23012331.2814                   23012327.6644
 -10889219.57047  -8471458.47745  22177315.3674                   22177313.5434
 -13838927.64848 -10769755.56246  21846454.0394                   21846453.4104
   3640074.60246   2843935.84843  24662074.2814                   24662070.6644
 11  8 18  3  5 30.0000000  0  9G26G29G12G05G02G15G30G25G21
  -8785597.88747  -6832916.67245  22201320.6564                   22201317.9414
 -13857275.19548 -10787444.75046  21273360.1484                   21273356.5904
 -15000820.80547 -11664724.60945  22583849.1254                   22583846.1564
 -21586466.61348 -16795826.57046  20999298.3834                   20999294.4774
 -22988004.42648 -17887245.87145  22201244.3134                   22201239.2464
  -2735498.10547  -2120269.33245  22992267.7424                   22992264.9924
 -10839129.31247  -8432427.11345  22186847.5164                   22186845.1414
 -13805538.63348 -10743738.14846  21852808.4694                   21852807.6024
   3572906.63346   2791597.24643  24649292.0234                   24649288.3554
 11  8 18  3  6  0.0000000  0  9G26G29G12G05G02G15G30G25G21
  -8873306.73047  -6901261.18745  22184629.4774                   22184627.0044
 -13935838.60248 -10848662.97746  21258409.5004                   21258406.1604
 -14923159.71947 -11604209.50045  22598626.8594                   22598624.0944
 -21534862.55148 -16755615.60946  21009117.6724                   21009113.8204
 -22952849.06647 -17859852.09045  22207933.9454                   22207928.9144
  -2840810.43747  -2202330.83245  22972227.6644                   22972224.5554
 -10788644.13347  -8393088.03145  22196454.2504                   22196452.2034
 -13771676.97348 -10717352.44546  21859251.7814                   21859251.2704
   3505743.60946   2739262.50443  24636511.3444                   24636508.0784
 11  8 18  3  6 30.0000000  0  9G26G29G12G05G02G15G30G25G21
  -8960634.66047  -6969308.87545  22168011.9454                   22168009.5164
 -14014129.32048 -10909668.73046  21243511.6644                   21243508.1374
 -14845295.41047 -11543536.02745  22613444.4694                   22613441.5204
 -21482904.99247 -16715129.20346  21019005.0004                   21019001.5004
 -22917584.86348 -17832373.50045  22214644.4924                   22214638.9694
  -2946001.09047  -2284297.53544  22952209.5944                   22952207.0704
 -10737768.17647  -8353444.45745  22206136.2424                   22206133.6884
 -13737346.12148 -10690601.14546  21865784.4384                   21865784.5394
   3438583.82846   2686930.31343  24623731.2664                   24623728.4694
 11  8 18  3  7  0.0000000  0  9G26G29G12G05G02G15G30G25G21
  -9047578.62547  -7037057.40245  22151466.9774                   22151464.1054
 -14092145.71948 -10970460.71146  21228665.4614                   21228662.4024
 -14767231.65647 -11482707.13745  22628299.5554                   22628296.3714
 -21430597.25448 -16674369.91846  21028958.9924                   21028955.9614
 -22882212.32447 -17804810.48445  22221375.7584                   22221370.5394
  -3051067.55547  -2366167.45744  22932216.4924                   22932213.4844
 -10686505.05947  -8313499.18745  22215891.1414                   22215888.3444
 -13702549.06648 -10663486.56246  21872406.2504                   21872405.8134
   3371426.23046   2634599.81343  24610951.4844                   24610947.7624
 11  8 18  3  7 30.0000000  0  9G26G29G12G05G02G15G30G25G21
  -9134133.33247  -7104502.58245  22134996.0234                   22134993.5274
 -14169883.99648 -11031035.98846  21213872.2194                   21213868.9884
 -14688969.57847 -11421723.72345  22643192.0234                   22643189.0944
 -21377939.76248 -16633338.10546  21038979.6254                   21038975.9024
 -22846729.13748 -17777161.26645  22228128.1724                   22228122.8324
  -3156005.18747  -2447936.98044  22912247.4614                   22912244.3244
 -10634855.87947  -8273253.09045  22225719.0704                   22225716.6644
 -13667286.44148 -10636009.21146  21879116.6804                   21879115.4924
   3304272.08246   2582272.01643  24598172.4924                   24598169.0354
 11  8 18  3  8  0.0000000  0  9G26G29G12G05G02G15G30G25G21
  -9220295.97747  -7171642.28545  22118599.6024                   22118597.5434
 -14247342.24248 -11091393.05546  21199132.3594                   21199128.8284
 -14610512.94547 -11360588.70345  22658122.0634                   22658119.1254
 -21324935.81648 -16592036.32046  21049065.7814                   21049062.3714
 -22811135.65647 -17749426.10245  22234901.3524                   22234896.1054
  -3260811.21147  -2529603.96144  22892303.5704                   22892300.1954
 -10582824.38747  -8232709.09045  22235620.7344                   22235618.2424
 -13631561.21948 -10608171.39146  21885914.6484                   21885914.0164
   3237120.10546   2529945.89843  24585393.9534                   24585391.1294
 11  8 18  3  8 30.0000000  0  9G26G29G12G05G02G15G30G25G21
  -9306063.14547  -7238473.80145  22102279.0004                   22102276.1644
 -14324518.17248 -11151530.14146  21184446.3674                   21184442.8594
 -14531865.07847 -11299304.66445  22673087.7894                   22673085.0634
 -21271587.90248 -16550466.51246  21059217.6254                   21059213.9224
 -22775431.80147 -17721604.93445  22241695.0164                   22241690.1374
  -3365482.79747  -2611166.19945  22872384.8834                   22872382.3444
 -10530413.75847  -8191869.65645  22245594.4924                   22245592.0124
 -13595376.02748 -10579975.15246  21892800.7734                   21892800.0864
   3169969.79346   2477621.07444  24572615.6174                   24572612.0434
 11  8 18  3  9  0.0000000  0  9G26G29G12G05G02G15G30G25G21
  -9391431.44547  -7304994.52345  22086033.4534                   22086030.8794
 -14401409.85948 -11211445.73046  21169814.4924                   21169811.0204
 -14453028.98847 -11237873.96545  22688090.3914                   22688086.9574
 -21217898.75848 -16508630.81246  21069434.1564                   21069430.5634
 -22739617.30147 -17693697.53945  22248510.2034                   22248505.5004
  -3470017.07847  -2692621.42645  22852492.9144                   22852490.5904
 -10477627.13747  -8150737.24245  22255639.1484                   22255636.6764
 -13558733.45748 -10551422.52046  21899773.7504                   21899773.1804
   3102820.36346   2425296.94943  24559837.2584                   24559834.0824
 11  8 18  3  9 30.0000000  0 10G26G18G29G12G05G02G15G30G25G21
  -9476397.09447  -7371201.48045  22069865.3364                   22069862.2934
   6153790.49656   4806111.32453  24545802.4304                   24545800.8364
 -14478014.44148 -11271137.59446  21155237.0784                   21155233.7304
 -14374007.73847 -11176298.98045  22703127.3284                   22703124.7154
 -21163870.56248 -16466530.91446  21079715.4844                   21079712.2154
 -22703691.68747 -17665703.56245  22255347.7504                   22255341.9494
  -3574410.76247  -2773967.11345  22832627.8834                   22832624.8364
 -10424467.26247  -8109313.97345  22265755.1254                   22265752.8204
 -13521635.66048 -10522515.14146  21906833.1254                   21906832.8244
   3035671.69946   2372973.41843  24547059.5084                   24547055.8834
 11  8 18  3 10  0.0000000  0 10G26G18G29G12G05G02G15G30G25G21
  -9560958.47347  -7437093.43445  22053773.4534                   22053771.5594
   6053645.69146   4728076.71143  24526745.1414                   24526743.3714
 -14554331.57448 -11330605.47746  21140714.4844                   21140711.2464
 -14294806.32047 -11114583.60945  22718199.3284                   22718195.7274
 -21109507.64148 -16424170.18746  21090060.0554                   21090056.6254
 -22667656.48047 -17637624.19945  22262204.7194                   22262199.8054
  -3678662.46947  -2855202.15645  22812789.7504                   22812786.4144
 -10370939.17247  -8067603.77745  22275941.1884                   22275938.7274
 -13484087.04348 -10493256.50046  21913978.6954                   21913977.7304
   2968521.24246   2320648.48443  24534280.2894                   24534277.4064
 11  8 18  3 10 30.0000000  0 10G26G18G29G12G05G02G15G30G25G21
  -9645115.17647  -7502670.04345  22037759.2974                   22037756.7424
   5953675.70346   4650178.20742  24507721.4534                   24507719.2664
 -14630362.10548 -11389850.03546  21126246.3984                   21126243.0044
 -14215431.36347 -11052733.00845  22733303.6254                   22733300.7544
 -21054815.84448 -16381553.19946  21100467.8204                   21100464.5664
 -22631514.77047 -17609461.84845  22269082.5004                   22269076.8984
  -3782772.31647  -2936326.67245  22792976.9924                   22792974.8094
 -10317049.01247  -8025611.46145  22286195.6884                   22286193.1024
 -13446093.27348 -10463650.98046  21921208.4614                   21921207.9694
   2901365.46146   2268319.41843  24521501.6804                   24521497.7074
 11  8 18  3 11  0.0000000  0 10G26G18G29G12G05G02G15G30G25G21
  -9728863.88747  -7567928.75845  22021822.5394                   22021819.8754
   5853881.69946   4572416.84842  24488731.5004                   24488728.3204
 -14706103.82448 -11448869.54746  21111833.2034                   21111829.8554
 -14135885.79347 -10990749.44945  22748440.5394                   22748437.4144
 -20999797.72348 -16338681.94546  21110937.5944                   21110933.7974
 -22595266.24647 -17581216.24245  22275979.7894                   22275974.7974
  -3886737.78547  -3017338.67245  22773193.5944                   22773191.0314
 -10262799.99647  -7983339.51245  22296519.2034                   22296516.3634
 -13407656.92248 -10433700.59846  21928522.2504                   21928521.5824
   2834203.30546   2215985.37943  24508720.6564                   24508717.5314
 11  8 18  3 11 30.0000000  0 10G26G18G29G12G05G02G15G30G25G21
  -9812200.41847  -7632866.28545  22005963.8054                   22005960.8134
   5754265.31346   4494793.91842  24469774.0944                   24469771.9654
 -14781553.64848 -11507661.60546  21097475.2664                   21097472.5004
 -14056171.97747 -10928634.80145  22763609.7424                   22763606.6254
 -20944455.10548 -16295557.81646  21121468.7194                   21121465.1954
 -22558909.78147 -17552886.55945  22282898.3594                   22282893.7384
  -3990555.05547  -3098235.19145  22753437.5314                   22753434.9304
 -10208194.57447  -7940789.83245  22306910.3204                   22306908.0314
 -13368779.91448 -10403406.84046  21935920.6484                   21935919.5864
   2767035.24246   2163646.75043  24495938.8754                   24495936.0434
 11  8 18  3 12  0.0000000  0 10G26G18G29G12G05G02G15G30G25G21
  -9895120.68447  -7697479.43445  21990184.4534                   21990182.1024
   5654828.87545   4417311.17642  24450852.1484                   24450849.2034
 -14856708.51248 -11566223.82046  21083173.7734                   21083170.5124
 -13976292.29747 -10866390.90645  22778810.4614                   22778807.4534
 -20888790.12948 -16252182.51246  21132061.5394                   21132057.9694
 -22522444.35547 -17524471.95345  22289837.6484                   22289832.4344
  -4094220.15247  -3179013.12945  22733710.9064                   22733708.7854
 -10153235.15647  -7897964.29745  22317368.3204                   22317366.5634
 -13329464.11348 -10372771.18446  21943402.2194                   21943401.8364
   2699861.17646   2111303.40243  24483155.6954                   24483153.1214
 11  8 18  3 12 30.0000000  0 10G26G18G29G12G05G02G15G30G25G21
  -9977620.19147  -7761764.74645  21974485.3674                   21974482.9384
   5555574.41045   4339970.28542  24431965.0314                   24431961.5904
 -14931565.14148 -11624553.65646  21068929.2114                   21068926.0124
 -13896248.74647 -10804019.31645  22794042.5474                   22794039.1564
 -20832803.84448 -16208556.83246  21142715.4454                   21142711.7304
 -22485868.81247 -17495971.55145  22296797.9144                   22296792.4614
  -4197728.96147  -3259669.29345  22714013.4534                   22714010.8134
 -10097923.77747  -7854864.54745  22327894.3984                   22327891.6684
 -13289710.96948 -10341794.71946  21950967.0394                   21950966.4844
   2632681.91846   2058956.03543  24470372.6884                   24470369.4494
 11  8 18  3 13  0.0000000  0 10G26G18G29G12G05G02G15G30G25G21
 -10059696.16047  -7825720.00045  21958866.6254                   21958864.2934
   5456502.61346   4262771.66042  24413111.2274                   24413109.4344
 -15006121.57448 -11682649.56246  21054741.1024                   21054738.3014
 -13816045.23847 -10741523.08245  22809304.2664                   22809301.6484
 -20776499.19148 -16164683.07446  21153429.8364                   21153426.1604
 -22449183.10547 -17467385.32045  22303778.5944                   22303773.9304
  -4301079.34047  -3340202.00045  22694347.0634                   22694344.1334
 -10042264.10947  -7811493.36345  22338486.0004                   22338483.2814
 -13249523.65248 -10310479.95346  21958614.7584                   21958613.5904
   2565496.42246   2006603.76643  24457587.2894                   24457583.8914
 11  8 18  3 13 30.0000000  0 10G26G18G29G12G05G02G15G30G25G21
 -10141343.08647  -7889340.95745  21943330.4694                   21943327.4454
   5357616.77345   4185717.99642  24394293.0084                   24394291.7624
 -15080373.62548 -11740508.29346  21040612.2974                   21040608.5314
 -13735682.55947 -10678902.83245  22824596.7424                   22824594.0164
 -20719876.82448 -16120561.73846  21164204.9064                   21164201.1454
 -22412385.05147 -17438711.53145  22310780.9694                   22310775.8244
  -4404265.55947  -3420606.80545  22674710.8444                   22674708.3634
  -9986257.22347  -7767851.65245  22349143.8594                   22349140.8524
 -13208902.76248 -10278827.32446  21966344.3524                   21966343.7734
   2498305.57846   1954247.34843  24444801.1414                   24444797.7074
 11  8 18  3 14  0.0000000  0 10G26G18G29G12G05G02G15G30G25G21
 -10222558.49247  -7952625.65245  21927875.3364                   21927872.7234
   5258917.15646   4108809.42243  24375512.1174                   24375510.1684
 -15154319.93748 -11798128.78146  21026540.2734                   21026537.6604
 -13655165.08247 -10616161.94945  22839918.9064                   22839916.2584
 -20662940.31648 -16076195.63746  21175038.9694                   21175035.5944
 -22375475.26247 -17409950.69545  22317804.6094                   22317799.8984
  -4507285.94547  -3500882.37145  22655106.3754                   22655104.3484
  -9929907.25847  -7723942.60945  22359866.3834                   22359863.6884
 -13167851.87148 -10246839.63346  21974156.1414                   21974155.7774
   2431108.35546   1901885.93843  24432013.6024                   24432010.5314
 11  8 18  3 14 30.0000000  0 10G26G18G29G12G05G02G15G30G25G21
 -10303338.80547  -8015571.31245  21912503.3284                   21912500.4574
   5160405.05546   4032046.96143  24356766.5554                   24356763.7774
 -15227958.34448 -11855509.34846  21012527.5164                   21012524.2544
 -13574495.95747 -10553302.90245  22855269.1174                   22855266.9574
 -20605692.22348 -16031586.72346  21185933.1954                   21185929.7234
 -22338453.63347 -17381102.69545  22324850.3594                   22324844.3094
  -4610137.39547  -3581026.32045  22635534.6334                   22635532.0044
  -9873217.34847  -7679768.67645  22370654.6644                   22370652.0004
 -13126373.55948 -10214518.89546  21982049.1094                   21982048.3594
   2363904.28946   1849519.22343  24419225.6564                   24419222.4024
 11  8 18  3 15  0.0000000  0 10G26G18G29G12G05G02G15G30G25G21
 -10383681.16448  -8078175.71945  21897214.3834                   21897211.8794
   5062081.25846   3955431.19143  24338056.0784                   24338053.0824
 -15301286.53948 -11912648.18746  20998573.3524                   20998570.2854
 -13493678.52747 -10490328.30545  22870648.4774                   22870645.8834
 -20548135.11748 -15986737.02746  21196885.8984                   21196882.2584
 -22301319.91847 -17352167.37945  22331916.8444                   22331910.9104
  -4712816.95347  -3661036.31245  22615995.4384                   22615992.6564
  -9816190.95747  -7635332.55145  22381506.4774                   22381503.7234
 -13084470.76648 -10181867.39546  21990023.0554                   21990022.5314
   2296692.44546   1797146.39143  24406435.2034                   24406431.0984
 11  8 18  3 15 30.0000000  0 10G26G18G29G12G05G02G15G30G25G21
 -10463580.85948  -8140435.19545  21882010.0004                   21882007.3404
   4963948.40646   3878964.23443  24319381.2664                   24319378.4964
 -15374301.21548 -11969542.72346  20984679.3444                   20984675.9654
 -13412714.52747 -10427239.50045  22886055.7584                   22886053.0234
 -20490270.61347 -15941647.79746  21207897.1334                   21207893.3674
 -22264072.54347 -17323143.47345  22339004.2814                   22338998.7704
  -4815320.41047  -3740909.08245  22596489.9304                   22596487.1374
  -9758830.01247  -7590635.72345  22392421.8834                   22392419.4384
 -13042145.01248 -10148886.30946  21998077.4144                   21998076.9224
   2229473.48046   1744768.04343  24393643.7814                   24393640.2664
 11  8 18  3 16  0.0000000  0 10G26G18G29G12G05G02G15G30G25G21
 -10543034.67647  -8202347.23845  21866890.6484                   21866887.9384
   4866007.13746   3802646.58643  24300743.5084                   24300741.5394
 -15447000.14548 -12026191.23046  20970844.8364                   20970841.6374
 -13331607.36347 -10364039.13745  22901489.5474                   22901487.6524
 -20432101.34448 -15896321.09446  21218966.6334                   21218962.8954
 -22226711.32047 -17294030.87145  22346113.8594                   22346107.9964
  -4917645.08647  -3820642.55145  22577018.2974                   22577015.4414
  -9701137.98847  -7545680.90645  22403400.6024                   22403398.1174
 -12999399.25448 -10115577.93746  22006211.6644                   22006210.9104
   2162246.85947   1692383.70343  24380851.2664                   24380847.4184
 11  8 18  3 16 30.0000000  0 10G26G18G29G12G05G02G15G30G25G21
 -10622039.50448  -8263909.40645  21851856.5394                   21851853.4144
   4768258.87546   3726479.34043  24282142.7894                   24282139.8674
 -15519381.07848 -12082591.94546  20957071.5944                   20957067.9654
 -13250360.12947 -10300729.64145  22916950.4614                   22916947.6024
 -20373629.66848 -15850758.73446  21230092.9614                   21230089.3634
 -22189235.96147 -17264829.32045  22353245.3444                   22353239.9694
  -5019787.78547  -3900234.22345  22557580.9694                   22557577.7584
  -9643117.91447  -7500470.46545  22414441.1174                   22414438.9574
 -12956235.96548 -10081944.23046  22014425.3364                   22014424.8554
   2095011.98047   1639992.92643  24368057.2974                   24368052.4924
 11  8 18  3 17  0.0000000  0 10G26G18G29G12G05G02G15G30G25G21
  -9125169.20347  -7097516.96145  22136701.2274                   22136698.2074
   6246127.83646   4878065.72343  24563371.4694                   24563368.5084
 -14016019.40648 -10911141.26646  21243151.6954                   21243148.3134
 -11593558.96947  -9009715.77745  23232229.9534                   23232227.2774
 -18739440.47348 -14577364.55946  21541069.4454                   21541065.3404
 -20576227.68047 -16007939.79345  22660190.4534                   22660185.1024
  -3546322.18447  -2752079.16445  22837971.8054                   22837969.3444
  -8009355.10247  -6227408.55545  22725335.7734                   22725333.2384
 -11337239.60548  -8820388.64546  22322510.4844                   22322509.6054
   3603190.46547   2815196.98043  24655053.6254                   24655049.8674
 11  8 18  3 17 30.0000000  0 10G26G18G29G12G05G02G15G30G25G21
  -9203266.33247  -7158371.82445  22121839.8284                   22121836.9694
   6148768.48046   4802201.48843  24544843.1564                   24544841.2854
 -14087757.71548 -10967041.23046  21229500.4064                   21229496.8094
 -11512041.55947  -8946195.74645  23247741.3674                   23247738.8834
 -18680372.75448 -14531337.76646  21552309.8054                   21552305.6914
 -20538524.23447 -15978560.52045  22667365.1254                   22667359.8714
  -3648092.35547  -2831380.55145  22818605.8834                   22818603.4384
  -7950689.18047  -6181694.86345  22736499.4224                   22736497.0864
 -11293250.23848  -8786111.22346  22330881.0004                   22330880.6454
   3535936.82047   2762791.59443  24642256.0634                   24642251.4024
 11  8 18  3 18  0.0000000  0 10G26G18G29G12G05G02G15G30G25G21
  -9280905.89847  -7218870.16445  22107065.8984                   22107062.6214
   6051603.77346   4726488.94143  24526354.4844                   24526351.2664
 -14159172.55948 -11022689.14146  21215910.2734                   21215907.1254
 -11430395.18047  -8882575.21145  23263278.4454                   23263275.0044
 -18621011.76648 -14485082.44546  21563605.3834                   21563601.4884
 -20500706.98047 -15949092.55945  22674561.8594                   22674556.4414
  -3749672.72747  -2910534.03145  22799275.5164                   22799272.5204
  -7891706.30547  -6135734.19545  22747723.8754                   22747721.4184
 -11248853.10548  -8751516.07846  22339329.7584                   22339329.0164
   3468671.85947   2710377.36343  24629455.2344                   24629450.2854
 11  8 18  3 18 30.0000000  0 10G26G18G29G12G05G02G15G30G25G21
  -9358082.22347  -7279007.53945  22092379.2424                   22092376.3714
   5954637.15246   4650930.73443  24507902.0634                   24507899.6094
 -14230259.50048 -11078081.54746  21202383.2344                   21202380.1484
 -11348620.36747  -8818854.58245  23278839.9844                   23278837.2584
 -18561357.73048 -14438598.78946  21574956.7734                   21574953.7074
 -20462773.79347 -15919534.27045  22681780.0394                   22681774.6524
  -3851058.45747  -2989535.87145  22779982.5554                   22779979.5634
  -7832407.53147  -6089527.35245  22759007.4614                   22759005.6604
 -11204048.86748  -8716603.68446  22347855.4064                   22347854.7424
   3401397.44147   2657955.77343  24616653.7034                   24616650.1174
